Wetterdaten: Samstag, 28.05.2022
Datum Zeit Temp. 2m Temp +5 cm Feuchte A. Luftdruck Regen Wind Richtung Richtung Sonnenschein UV Solar Taupunkt Windchill Windben
28.05.2022 00:00 6,4 C 3,9 C 79 % 1024,2 hPa 0,0 l/m 1,6 km/h (1 Bft) W-SW 247 0 min 0,0 UV-I 0 W/m 3,0 C 6,4 C 3,2 km/h (1 Bft)
28.05.2022 00:01 6,4 C 3,9 C 79 % 1024,3 hPa 0,0 l/m 3,2 km/h (1 Bft) W-SW 247 0 min 0,0 UV-I 0 W/m 3,0 C 6,4 C 3,2 km/h (1 Bft)
28.05.2022 00:02 6,3 C 3,9 C 79 % 1024,3 hPa 0,0 l/m 3,2 km/h (1 Bft) W-SW 247 0 min 0,0 UV-I 0 W/m 2,9 C 6,3 C 4,8 km/h (1 Bft)
28.05.2022 00:03 6,3 C 3,9 C 79 % 1024,2 hPa 0,0 l/m 3,2 km/h (1 Bft) W-SW 247 0 min 0,0 UV-I 0 W/m 2,9 C 6,3 C 3,2 km/h (1 Bft)
28.05.2022 00:04 6,2 C 3,9 C 80 % 1024,2 hPa 0,0 l/m 3,2 km/h (1 Bft) W-SW 247 0 min 0,0 UV-I 0 W/m 3,0 C 6,2 C 3,2 km/h (1 Bft)
28.05.2022 00:05 6,2 C 3,3 C 80 % 1024,2 hPa 0,0 l/m 3,2 km/h (1 Bft) W-SW 247 0 min 0,0 UV-I 0 W/m 3,0 C 6,2 C 3,2 km/h (1 Bft)
28.05.2022 00:06 6,2 C 3,3 C 80 % 1024,2 hPa 0,0 l/m 3,2 km/h (1 Bft) W-SW 247 0 min 0,0 UV-I 0 W/m 3,0 C 6,2 C 4,8 km/h (1 Bft)
28.05.2022 00:07 6,2 C 3,3 C 80 % 1024,1 hPa 0,0 l/m 3,2 km/h (1 Bft) W-SW 247 0 min 0,0 UV-I 0 W/m 3,0 C 6,2 C 4,8 km/h (1 Bft)
28.05.2022 00:08 6,3 C 3,3 C 80 % 1024,2 hPa 0,0 l/m 1,6 km/h (1 Bft) W-SW 247 0 min 0,0 UV-I 0 W/m 3,1 C 6,3 C 3,2 km/h (1 Bft)
28.05.2022 00:09 6,4 C 3,9 C 80 % 1024,1 hPa 0,0 l/m 0,0 km/h (0 Bft) N 0 0 min 0,0 UV-I 0 W/m 3,2 C 6,4 C 0,0 km/h (0 Bft)
28.05.2022 00:10 6,4 C 3,9 C 79 % 1024,2 hPa 0,0 l/m 0,0 km/h (0 Bft) N 0 0 min 0,0 UV-I 0 W/m 3,0 C 6,4 C 0,0 km/h (0 Bft)
28.05.2022 00:11 6,5 C 3,9 C 79 % 1024,2 hPa 0,0 l/m 0,0 km/h (0 Bft) N 0 0 min 0,0 UV-I 0 W/m 3,1 C 6,5 C 0,0 km/h (0 Bft)
28.05.2022 00:12 6,5 C 3,9 C 79 % 1024,2 hPa 0,0 l/m 0,0 km/h (0 Bft) N 0 0 min 0,0 UV-I 0 W/m 3,1 C 6,5 C 0,0 km/h (0 Bft)
28.05.2022 00:13 6,4 C 3,3 C 79 % 1024,2 hPa 0,0 l/m 0,0 km/h (0 Bft) N 0 0 min 0,0 UV-I 0 W/m 3,0 C 6,4 C 0,0 km/h (0 Bft)
28.05.2022 00:14 6,4 C 3,3 C 79 % 1024,1 hPa 0,0 l/m 0,0 km/h (0 Bft) N 0 0 min 0,0 UV-I 0 W/m 3,0 C 6,4 C 0,0 km/h (0 Bft)
28.05.2022 00:15 6,4 C 3,3 C 79 % 1024,2 hPa 0,0 l/m 0,0 km/h (0 Bft) N 0 0 min 0,0 UV-I 0 W/m 3,0 C 6,4 C 0,0 km/h (0 Bft)
28.05.2022 00:16 6,4 C 3,3 C 79 % 1024,2 hPa 0,0 l/m 0,0 km/h (0 Bft) N 0 0 min 0,0 UV-I 0 W/m 3,0 C 6,4 C 0,0 km/h (0 Bft)
28.05.2022 00:17 6,3 C 3,3 C 79 % 1024,2 hPa 0,0 l/m 0,0 km/h (0 Bft) N 0 0 min 0,0 UV-I 0 W/m 2,9 C 6,3 C 0,0 km/h (0 Bft)
28.05.2022 00:18 6,3 C 3,3 C 79 % 1024,2 hPa 0,0 l/m 0,0 km/h (0 Bft) N 0 0 min 0,0 UV-I 0 W/m 2,9 C 6,3 C 0,0 km/h (0 Bft)
28.05.2022 00:19 6,3 C 3,3 C 79 % 1024,2 hPa 0,0 l/m 0,0 km/h (0 Bft) N 0 0 min 0,0 UV-I 0 W/m 2,9 C 6,3 C 0,0 km/h (0 Bft)
28.05.2022 00:20 6,3 C 3,3 C 80 % 1024,2 hPa 0,0 l/m 0,0 km/h (0 Bft) N 0 0 min 0,0 UV-I 0 W/m 3,1 C 6,3 C 0,0 km/h (0 Bft)
28.05.2022 00:21 6,3 C 3,3 C 79 % 1024,2 hPa 0,0 l/m 0,0 km/h (0 Bft) N 0 0 min 0,0 UV-I 0 W/m 2,9 C 6,3 C 0,0 km/h (0 Bft)
28.05.2022 00:22 6,3 C 3,3 C 79 % 1024,2 hPa 0,0 l/m 0,0 km/h (0 Bft) N 0 0 min 0,0 UV-I 0 W/m 2,9 C 6,3 C 0,0 km/h (0 Bft)
28.05.2022 00:23 6,3 C 3,3 C 79 % 1024,1 hPa 0,0 l/m 0,0 km/h (0 Bft) N 0 0 min 0,0 UV-I 0 W/m 2,9 C 6,3 C 0,0 km/h (0 Bft)
28.05.2022 00:24 6,2 C 3,3 C 79 % 1024,1 hPa 0,0 l/m 0,0 km/h (0 Bft) N 0 0 min 0,0 UV-I 0 W/m 2,8 C 6,2 C 0,0 km/h (0 Bft)
28.05.2022 00:25 6,2 C 3,3 C 80 % 1024,1 hPa 0,0 l/m 0,0 km/h (0 Bft) N 0 0 min 0,0 UV-I 0 W/m 3,0 C 6,2 C 0,0 km/h (0 Bft)
28.05.2022 00:26 6,3 C 3,3 C 80 % 1024,1 hPa 0,0 l/m 0,0 km/h (0 Bft) N 0 0 min 0,0 UV-I 0 W/m 3,1 C 6,3 C 0,0 km/h (0 Bft)
28.05.2022 00:27 6,3 C 3,3 C 80 % 1024,2 hPa 0,0 l/m 0,0 km/h (0 Bft) N 0 0 min 0,0 UV-I 0 W/m 3,1 C 6,3 C 0,0 km/h (0 Bft)
28.05.2022 00:28 6,3 C 3,3 C 80 % 1024,1 hPa 0,0 l/m 0,0 km/h (0 Bft) N 0 0 min 0,0 UV-I 0 W/m 3,1 C 6,3 C 0,0 km/h (0 Bft)
28.05.2022 00:29 6,4 C 3,9 C 80 % 1024,2 hPa 0,0 l/m 0,0 km/h (0 Bft) N 0 0 min 0,0 UV-I 0 W/m 3,2 C 6,4 C 0,0 km/h (0 Bft)
28.05.2022 00:30 6,4 C 3,3 C 79 % 1024,1 hPa 0,0 l/m 0,0 km/h (0 Bft) N 0 0 min 0,0 UV-I 0 W/m 3,0 C 6,4 C 0,0 km/h (0 Bft)
28.05.2022 00:31 6,3 C 3,3 C 79 % 1024,2 hPa 0,0 l/m 0,0 km/h (0 Bft) N 0 0 min 0,0 UV-I 0 W/m 2,9 C 6,3 C 0,0 km/h (0 Bft)
28.05.2022 00:32 6,3 C 3,3 C 79 % 1024,1 hPa 0,0 l/m 0,0 km/h (0 Bft) N 0 0 min 0,0 UV-I 0 W/m 2,9 C 6,3 C 0,0 km/h (0 Bft)
28.05.2022 00:33 6,4 C 3,3 C 80 % 1024,1 hPa 0,0 l/m 0,0 km/h (0 Bft) N 0 0 min 0,0 UV-I 0 W/m 3,2 C 6,4 C 0,0 km/h (0 Bft)
28.05.2022 00:34 6,4 C 3,3 C 79 % 1024,1 hPa 0,0 l/m 0,0 km/h (0 Bft) N 0 0 min 0,0 UV-I 0 W/m 3,0 C 6,4 C 0,0 km/h (0 Bft)
28.05.2022 00:35 6,3 C 3,3 C 79 % 1024,0 hPa 0,0 l/m 0,0 km/h (0 Bft) N 0 0 min 0,0 UV-I 0 W/m 2,9 C 6,3 C 0,0 km/h (0 Bft)
28.05.2022 00:36 6,2 C 3,3 C 79 % 1024,0 hPa 0,0 l/m 0,0 km/h (0 Bft) N 0 0 min 0,0 UV-I 0 W/m 2,8 C 6,2 C 0,0 km/h (0 Bft)
28.05.2022 00:37 6,0 C 3,3 C 79 % 1024,1 hPa 0,0 l/m 0,0 km/h (0 Bft) N 0 0 min 0,0 UV-I 0 W/m 2,6 C 6,0 C 0,0 km/h (0 Bft)
28.05.2022 00:38 5,8 C 3,3 C 80 % 1024,0 hPa 0,0 l/m 0,0 km/h (0 Bft) N 0 0 min 0,0 UV-I 0 W/m 2,6 C 5,8 C 0,0 km/h (0 Bft)
28.05.2022 00:39 5,6 C 3,3 C 80 % 1024,1 hPa 0,0 l/m 0,0 km/h (0 Bft) W-SW 247 0 min 0,0 UV-I 0 W/m 2,4 C 5,6 C 1,6 km/h (1 Bft)
28.05.2022 00:40 5,5 C 2,8 C 81 % 1024,0 hPa 0,0 l/m 1,6 km/h (1 Bft) W-SW 247 0 min 0,0 UV-I 0 W/m 2,5 C 5,5 C 3,2 km/h (1 Bft)
28.05.2022 00:41 5,4 C 2,8 C 81 % 1024,0 hPa 0,0 l/m 1,6 km/h (1 Bft) W-SW 247 0 min 0,0 UV-I 0 W/m 2,4 C 5,4 C 3,2 km/h (1 Bft)
28.05.2022 00:42 5,4 C 2,8 C 82 % 1024,0 hPa 0,0 l/m 1,6 km/h (1 Bft) W-SW 247 0 min 0,0 UV-I 0 W/m 2,6 C 5,4 C 3,2 km/h (1 Bft)
28.05.2022 00:43 5,3 C 2,8 C 82 % 1023,9 hPa 0,0 l/m 1,6 km/h (1 Bft) W-SW 247 0 min 0,0 UV-I 0 W/m 2,5 C 5,3 C 1,6 km/h (1 Bft)
28.05.2022 00:44 5,3 C 2,8 C 82 % 1024,0 hPa 0,0 l/m 0,0 km/h (0 Bft) N 0 0 min 0,0 UV-I 0 W/m 2,5 C 5,3 C 0,0 km/h (0 Bft)
28.05.2022 00:45 5,2 C 2,8 C 82 % 1024,0 hPa 0,0 l/m 0,0 km/h (0 Bft) W-SW 247 0 min 0,0 UV-I 0 W/m 2,4 C 5,2 C 1,6 km/h (1 Bft)
28.05.2022 00:46 5,1 C 2,8 C 82 % 1024,0 hPa 0,0 l/m 0,0 km/h (0 Bft) N 0 0 min 0,0 UV-I 0 W/m 2,3 C 5,1 C 0,0 km/h (0 Bft)
28.05.2022 00:47 4,9 C 2,8 C 82 % 1023,9 hPa 0,0 l/m 0,0 km/h (0 Bft) W-SW 247 0 min 0,0 UV-I 0 W/m 2,1 C 4,9 C 1,6 km/h (1 Bft)
28.05.2022 00:48 4,8 C 2,8 C 83 % 1024,0 hPa 0,0 l/m 0,0 km/h (0 Bft) W-SW 247 0 min 0,0 UV-I 0 W/m 2,2 C 4,8 C 1,6 km/h (1 Bft)
28.05.2022 00:49 4,8 C 2,8 C 83 % 1024,0 hPa 0,0 l/m 0,0 km/h (0 Bft) W-SW 247 0 min 0,0 UV-I 0 W/m 2,2 C 4,8 C 1,6 km/h (1 Bft)
28.05.2022 00:50 4,7 C 2,8 C 83 % 1024,0 hPa 0,0 l/m 0,0 km/h (0 Bft) W-SW 247 0 min 0,0 UV-I 0 W/m 2,1 C 4,7 C 1,6 km/h (1 Bft)
28.05.2022 00:51 4,6 C 2,8 C 83 % 1024,0 hPa 0,0 l/m 0,0 km/h (0 Bft) W-SW 247 0 min 0,0 UV-I 0 W/m 2,0 C 4,6 C 1,6 km/h (1 Bft)
28.05.2022 00:52 4,6 C 2,8 C 84 % 1024,0 hPa 0,0 l/m 0,0 km/h (0 Bft) W-SW 247 0 min 0,0 UV-I 0 W/m 2,1 C 4,6 C 1,6 km/h (1 Bft)
28.05.2022 00:53 4,6 C 2,8 C 84 % 1023,9 hPa 0,0 l/m 0,0 km/h (0 Bft) W-SW 247 0 min 0,0 UV-I 0 W/m 2,1 C 4,6 C 1,6 km/h (1 Bft)
28.05.2022 00:54 4,6 C 2,8 C 84 % 1023,9 hPa 0,0 l/m 0,0 km/h (0 Bft) N 0 0 min 0,0 UV-I 0 W/m 2,1 C 4,6 C 0,0 km/h (0 Bft)
28.05.2022 00:55 4,7 C 2,8 C 84 % 1024,0 hPa 0,0 l/m 0,0 km/h (0 Bft) N 0 0 min 0,0 UV-I 0 W/m 2,2 C 4,7 C 0,0 km/h (0 Bft)
28.05.2022 00:56 4,7 C 2,8 C 84 % 1023,9 hPa 0,0 l/m 0,0 km/h (0 Bft) N 0 0 min 0,0 UV-I 0 W/m 2,2 C 4,7 C 0,0 km/h (0 Bft)
28.05.2022 00:57 4,7 C 2,8 C 84 % 1024,0 hPa 0,0 l/m 0,0 km/h (0 Bft) N 0 0 min 0,0 UV-I 0 W/m 2,2 C 4,7 C 0,0 km/h (0 Bft)
28.05.2022 00:58 4,7 C 2,8 C 84 % 1024,0 hPa 0,0 l/m 0,0 km/h (0 Bft) N 0 0 min 0,0 UV-I 0 W/m 2,2 C 4,7 C 0,0 km/h (0 Bft)
28.05.2022 00:59 4,7 C 2,8 C 85 % 1023,9 hPa 0,0 l/m 0,0 km/h (0 Bft) N 0 0 min 0,0 UV-I 0 W/m 2,4 C 4,7 C 0,0 km/h (0 Bft)
28.05.2022 01:00 4,7 C 2,8 C 84 % 1023,9 hPa 0,0 l/m 0,0 km/h (0 Bft) W-SW 247 0 min 0,0 UV-I 0 W/m 2,2 C 4,7 C 3,2 km/h (1 Bft)
28.05.2022 01:01 4,8 C 2,8 C 85 % 1023,9 hPa 0,0 l/m 3,2 km/h (1 Bft) W-SW 247 0 min 0,0 UV-I 0 W/m 2,5 C 4,8 C 4,8 km/h (1 Bft)
28.05.2022 01:02 4,7 C 2,8 C 84 % 1023,9 hPa 0,0 l/m 1,6 km/h (1 Bft) W-SW 247 0 min 0,0 UV-I 0 W/m 2,2 C 4,7 C 1,6 km/h (1 Bft)
28.05.2022 01:03 4,7 C 2,8 C 84 % 1023,9 hPa 0,0 l/m 0,0 km/h (0 Bft) W-SW 247 0 min 0,0 UV-I 0 W/m 2,2 C 4,7 C 1,6 km/h (1 Bft)
28.05.2022 01:04 4,7 C 2,8 C 84 % 1023,9 hPa 0,0 l/m 3,2 km/h (1 Bft) W-SW 247 0 min 0,0 UV-I 0 W/m 2,2 C 4,7 C 3,2 km/h (1 Bft)
28.05.2022 01:05 4,6 C 2,8 C 84 % 1023,8 hPa 0,0 l/m 3,2 km/h (1 Bft) W-SW 247 0 min 0,0 UV-I 0 W/m 2,1 C 4,6 C 3,2 km/h (1 Bft)
28.05.2022 01:06 4,6 C 2,8 C 84 % 1023,9 hPa 0,0 l/m 3,2 km/h (1 Bft) W 270 0 min 0,0 UV-I 0 W/m 2,1 C 4,6 C 6,4 km/h (2 Bft)
28.05.2022 01:07 4,6 C 2,8 C 85 % 1023,9 hPa 0,0 l/m 3,2 km/h (1 Bft) W 270 0 min 0,0 UV-I 0 W/m 2,3 C 4,6 C 6,4 km/h (2 Bft)
28.05.2022 01:08 4,6 C 2,2 C 85 % 1023,8 hPa 0,0 l/m 6,4 km/h (2 Bft) W-SW 247 0 min 0,0 UV-I 0 W/m 2,3 C 4,6 C 8,0 km/h (2 Bft)
28.05.2022 01:09 4,7 C 2,8 C 85 % 1023,9 hPa 0,0 l/m 4,8 km/h (1 Bft) W-SW 247 0 min 0,0 UV-I 0 W/m 2,4 C 4,7 C 9,7 km/h (2 Bft)
28.05.2022 01:10 4,8 C 2,8 C 85 % 1023,9 hPa 0,0 l/m 3,2 km/h (1 Bft) W-SW 247 0 min 0,0 UV-I 0 W/m 2,5 C 4,8 C 4,8 km/h (1 Bft)
28.05.2022 01:11 4,8 C 2,8 C 85 % 1023,9 hPa 0,0 l/m 3,2 km/h (1 Bft) W-SW 247 0 min 0,0 UV-I 0 W/m 2,5 C 4,8 C 6,4 km/h (2 Bft)
28.05.2022 01:12 4,9 C 2,8 C 85 % 1023,9 hPa 0,0 l/m 3,2 km/h (1 Bft) W-SW 247 0 min 0,0 UV-I 0 W/m 2,6 C 4,9 C 4,8 km/h (1 Bft)
28.05.2022 01:13 4,8 C 2,8 C 84 % 1023,9 hPa 0,0 l/m 1,6 km/h (1 Bft) W-SW 247 0 min 0,0 UV-I 0 W/m 2,3 C 4,8 C 4,8 km/h (1 Bft)
28.05.2022 01:14 4,8 C 2,8 C 84 % 1023,9 hPa 0,0 l/m 0,0 km/h (0 Bft) W-SW 247 0 min 0,0 UV-I 0 W/m 2,3 C 4,8 C 1,6 km/h (1 Bft)
28.05.2022 01:15 4,7 C 2,8 C 84 % 1023,9 hPa 0,0 l/m 0,0 km/h (0 Bft) W-SW 247 0 min 0,0 UV-I 0 W/m 2,2 C 4,7 C 4,8 km/h (1 Bft)
28.05.2022 01:16 4,7 C 2,2 C 84 % 1023,9 hPa 0,0 l/m 1,6 km/h (1 Bft) W-SW 247 0 min 0,0 UV-I 0 W/m 2,2 C 4,7 C 3,2 km/h (1 Bft)
28.05.2022 01:17 4,6 C 2,2 C 84 % 1023,9 hPa 0,0 l/m 1,6 km/h (1 Bft) W-SW 247 0 min 0,0 UV-I 0 W/m 2,1 C 4,6 C 3,2 km/h (1 Bft)
28.05.2022 01:18 4,6 C 2,2 C 84 % 1023,9 hPa 0,0 l/m 0,0 km/h (0 Bft) W-SW 247 0 min 0,0 UV-I 0 W/m 2,1 C 4,6 C 1,6 km/h (1 Bft)
28.05.2022 01:19 4,4 C 2,2 C 84 % 1023,9 hPa 0,0 l/m 1,6 km/h (1 Bft) W-SW 247 0 min 0,0 UV-I 0 W/m 1,9 C 4,4 C 3,2 km/h (1 Bft)
28.05.2022 01:20 4,4 C 2,2 C 85 % 1023,9 hPa 0,0 l/m 1,6 km/h (1 Bft) W-SW 247 0 min 0,0 UV-I 0 W/m 2,1 C 4,4 C 1,6 km/h (1 Bft)
28.05.2022 01:21 4,4 C 2,2 C 85 % 1023,8 hPa 0,0 l/m 1,6 km/h (1 Bft) W-SW 247 0 min 0,0 UV-I 0 W/m 2,1 C 4,4 C 1,6 km/h (1 Bft)
28.05.2022 01:22 4,3 C 2,2 C 85 % 1023,9 hPa 0,0 l/m 1,6 km/h (1 Bft) W-SW 247 0 min 0,0 UV-I 0 W/m 2,0 C 4,3 C 3,2 km/h (1 Bft)
28.05.2022 01:23 4,3 C 2,2 C 85 % 1023,9 hPa 0,0 l/m 3,2 km/h (1 Bft) W-SW 247 0 min 0,0 UV-I 0 W/m 2,0 C 4,3 C 4,8 km/h (1 Bft)
28.05.2022 01:24 4,3 C 2,2 C 85 % 1023,8 hPa 0,0 l/m 3,2 km/h (1 Bft) W-SW 247 0 min 0,0 UV-I 0 W/m 2,0 C 4,3 C 4,8 km/h (1 Bft)
28.05.2022 01:25 4,3 C 2,2 C 85 % 1023,8 hPa 0,0 l/m 3,2 km/h (1 Bft) W-SW 247 0 min 0,0 UV-I 0 W/m 2,0 C 4,3 C 4,8 km/h (1 Bft)
28.05.2022 01:26 4,3 C 2,2 C 85 % 1023,8 hPa 0,0 l/m 1,6 km/h (1 Bft) W-SW 247 0 min 0,0 UV-I 0 W/m 2,0 C 4,3 C 3,2 km/h (1 Bft)
28.05.2022 01:27 4,2 C 2,2 C 85 % 1023,8 hPa 0,0 l/m 3,2 km/h (1 Bft) W-SW 247 0 min 0,0 UV-I 0 W/m 1,9 C 4,2 C 6,4 km/h (2 Bft)
28.05.2022 01:28 4,2 C 2,2 C 85 % 1023,8 hPa 0,0 l/m 3,2 km/h (1 Bft) W-SW 247 0 min 0,0 UV-I 0 W/m 1,9 C 4,2 C 4,8 km/h (1 Bft)
28.05.2022 01:29 4,2 C 2,2 C 85 % 1023,8 hPa 0,0 l/m 4,8 km/h (1 Bft) W-SW 247 0 min 0,0 UV-I 0 W/m 1,9 C 4,2 C 6,4 km/h (2 Bft)
28.05.2022 01:30 4,2 C 2,2 C 86 % 1023,8 hPa 0,0 l/m 4,8 km/h (1 Bft) W-SW 247 0 min 0,0 UV-I 0 W/m 2,1 C 4,2 C 6,4 km/h (2 Bft)
28.05.2022 01:31 4,3 C 2,2 C 86 % 1023,8 hPa 0,0 l/m 4,8 km/h (1 Bft) W-SW 247 0 min 0,0 UV-I 0 W/m 2,2 C 4,3 C 6,4 km/h (2 Bft)
28.05.2022 01:32 4,4 C 2,2 C 86 % 1023,8 hPa 0,0 l/m 3,2 km/h (1 Bft) W-SW 247 0 min 0,0 UV-I 0 W/m 2,3 C 4,4 C 4,8 km/h (1 Bft)
28.05.2022 01:33 4,4 C 2,2 C 86 % 1023,8 hPa 0,0 l/m 3,2 km/h (1 Bft) W-SW 247 0 min 0,0 UV-I 0 W/m 2,3 C 4,4 C 4,8 km/h (1 Bft)
28.05.2022 01:34 4,4 C 2,2 C 86 % 1023,8 hPa 0,0 l/m 3,2 km/h (1 Bft) W-SW 247 0 min 0,0 UV-I 0 W/m 2,3 C 4,4 C 6,4 km/h (2 Bft)
28.05.2022 01:35 4,4 C 2,2 C 85 % 1023,7 hPa 0,0 l/m 4,8 km/h (1 Bft) W-SW 247 0 min 0,0 UV-I 0 W/m 2,1 C 4,4 C 6,4 km/h (2 Bft)
28.05.2022 01:36 4,5 C 2,2 C 86 % 1023,8 hPa 0,0 l/m 4,8 km/h (1 Bft) W-SW 247 0 min 0,0 UV-I 0 W/m 2,4 C 4,5 C 6,4 km/h (2 Bft)
28.05.2022 01:37 4,6 C 2,2 C 86 % 1023,8 hPa 0,0 l/m 4,8 km/h (1 Bft) W-SW 247 0 min 0,0 UV-I 0 W/m 2,5 C 4,6 C 6,4 km/h (2 Bft)
28.05.2022 01:38 4,6 C 2,2 C 86 % 1023,7 hPa 0,0 l/m 3,2 km/h (1 Bft) W-SW 247 0 min 0,0 UV-I 0 W/m 2,5 C 4,6 C 4,8 km/h (1 Bft)
28.05.2022 01:39 4,6 C 2,2 C 85 % 1023,7 hPa 0,0 l/m 3,2 km/h (1 Bft) W-SW 247 0 min 0,0 UV-I 0 W/m 2,3 C 4,6 C 4,8 km/h (1 Bft)
28.05.2022 01:40 4,5 C 2,2 C 85 % 1023,8 hPa 0,0 l/m 3,2 km/h (1 Bft) W-SW 247 0 min 0,0 UV-I 0 W/m 2,2 C 4,5 C 4,8 km/h (1 Bft)
28.05.2022 01:41 4,3 C 2,2 C 85 % 1023,8 hPa 0,0 l/m 3,2 km/h (1 Bft) W-SW 247 0 min 0,0 UV-I 0 W/m 2,0 C 4,3 C 6,4 km/h (2 Bft)
28.05.2022 01:42 4,3 C 2,2 C 85 % 1023,7 hPa 0,0 l/m 3,2 km/h (1 Bft) W-SW 247 0 min 0,0 UV-I 0 W/m 2,0 C 4,3 C 4,8 km/h (1 Bft)
28.05.2022 01:43 4,3 C 2,2 C 85 % 1023,7 hPa 0,0 l/m 3,2 km/h (1 Bft) W-SW 247 0 min 0,0 UV-I 0 W/m 2,0 C 4,3 C 4,8 km/h (1 Bft)
28.05.2022 01:44 4,2 C 2,2 C 85 % 1023,8 hPa 0,0 l/m 3,2 km/h (1 Bft) W-SW 247 0 min 0,0 UV-I 0 W/m 1,9 C 4,2 C 6,4 km/h (2 Bft)
28.05.2022 01:45 4,2 C 2,2 C 86 % 1023,8 hPa 0,0 l/m 4,8 km/h (1 Bft) W-SW 247 0 min 0,0 UV-I 0 W/m 2,1 C 4,2 C 6,4 km/h (2 Bft)
28.05.2022 01:46 4,2 C 2,2 C 86 % 1023,8 hPa 0,0 l/m 4,8 km/h (1 Bft) W-SW 247 0 min 0,0 UV-I 0 W/m 2,1 C 4,2 C 4,8 km/h (1 Bft)
28.05.2022 01:47 4,2 C 2,2 C 86 % 1023,7 hPa 0,0 l/m 4,8 km/h (1 Bft) W-SW 247 0 min 0,0 UV-I 0 W/m 2,1 C 4,2 C 6,4 km/h (2 Bft)
28.05.2022 01:48 4,2 C 2,2 C 86 % 1023,8 hPa 0,0 l/m 3,2 km/h (1 Bft) W-SW 247 0 min 0,0 UV-I 0 W/m 2,1 C 4,2 C 4,8 km/h (1 Bft)
28.05.2022 01:49 4,3 C 2,2 C 86 % 1023,7 hPa 0,0 l/m 4,8 km/h (1 Bft) W-SW 247 0 min 0,0 UV-I 0 W/m 2,2 C 4,3 C 6,4 km/h (2 Bft)
28.05.2022 01:50 4,3 C 2,2 C 86 % 1023,7 hPa 0,0 l/m 4,8 km/h (1 Bft) W-SW 247 0 min 0,0 UV-I 0 W/m 2,2 C 4,3 C 6,4 km/h (2 Bft)
28.05.2022 01:51 4,4 C 2,2 C 86 % 1023,7 hPa 0,0 l/m 4,8 km/h (1 Bft) W-SW 247 0 min 0,0 UV-I 0 W/m 2,3 C 4,4 C 6,4 km/h (2 Bft)
28.05.2022 01:52 4,3 C 2,2 C 86 % 1023,6 hPa 0,0 l/m 4,8 km/h (1 Bft) W-SW 247 0 min 0,0 UV-I 0 W/m 2,2 C 4,3 C 4,8 km/h (1 Bft)
28.05.2022 01:53 4,3 C 2,2 C 85 % 1023,7 hPa 0,0 l/m 3,2 km/h (1 Bft) W-SW 247 0 min 0,0 UV-I 0 W/m 2,0 C 4,3 C 4,8 km/h (1 Bft)
28.05.2022 01:54 4,3 C 2,2 C 86 % 1023,7 hPa 0,0 l/m 3,2 km/h (1 Bft) W-SW 247 0 min 0,0 UV-I 0 W/m 2,2 C 4,3 C 4,8 km/h (1 Bft)
28.05.2022 01:55 4,3 C 2,2 C 85 % 1023,7 hPa 0,0 l/m 4,8 km/h (1 Bft) W-SW 247 0 min 0,0 UV-I 0 W/m 2,0 C 4,3 C 6,4 km/h (2 Bft)
28.05.2022 01:56 4,3 C 2,2 C 85 % 1023,8 hPa 0,0 l/m 4,8 km/h (1 Bft) W-SW 247 0 min 0,0 UV-I 0 W/m 2,0 C 4,3 C 6,4 km/h (2 Bft)
28.05.2022 01:57 4,2 C 2,2 C 86 % 1023,7 hPa 0,0 l/m 4,8 km/h (1 Bft) W-SW 247 0 min 0,0 UV-I 0 W/m 2,1 C 4,2 C 6,4 km/h (2 Bft)
28.05.2022 01:58 4,2 C 2,2 C 86 % 1023,8 hPa 0,0 l/m 4,8 km/h (1 Bft) W-SW 247 0 min 0,0 UV-I 0 W/m 2,1 C 4,2 C 6,4 km/h (2 Bft)
28.05.2022 01:59 4,2 C 2,2 C 86 % 1023,7 hPa 0,0 l/m 3,2 km/h (1 Bft) W-SW 247 0 min 0,0 UV-I 0 W/m 2,1 C 4,2 C 4,8 km/h (1 Bft)
28.05.2022 02:00 4,1 C 2,2 C 85 % 1023,7 hPa 0,0 l/m 3,2 km/h (1 Bft) W-SW 247 0 min 0,0 UV-I 0 W/m 1,8 C 4,1 C 4,8 km/h (1 Bft)
28.05.2022 02:01 4,1 C 2,2 C 86 % 1023,6 hPa 0,0 l/m 4,8 km/h (1 Bft) W-SW 247 0 min 0,0 UV-I 0 W/m 2,0 C 4,1 C 6,4 km/h (2 Bft)
28.05.2022 02:02 4,1 C 2,2 C 86 % 1023,6 hPa 0,0 l/m 3,2 km/h (1 Bft) W-SW 247 0 min 0,0 UV-I 0 W/m 2,0 C 4,1 C 4,8 km/h (1 Bft)
28.05.2022 02:03 4,0 C 2,2 C 86 % 1023,5 hPa 0,0 l/m 3,2 km/h (1 Bft) W-SW 247 0 min 0,0 UV-I 0 W/m 1,9 C 4,0 C 4,8 km/h (1 Bft)
28.05.2022 02:04 3,9 C 2,2 C 86 % 1023,5 hPa 0,0 l/m 4,8 km/h (1 Bft) W-SW 247 0 min 0,0 UV-I 0 W/m 1,8 C 3,9 C 4,8 km/h (1 Bft)
28.05.2022 02:05 3,9 C 2,2 C 86 % 1023,5 hPa 0,0 l/m 3,2 km/h (1 Bft) W-SW 247 0 min 0,0 UV-I 0 W/m 1,8 C 3,9 C 4,8 km/h (1 Bft)
28.05.2022 02:06 3,9 C 1,7 C 86 % 1023,6 hPa 0,0 l/m 3,2 km/h (1 Bft) W-SW 247 0 min 0,0 UV-I 0 W/m 1,8 C 3,9 C 4,8 km/h (1 Bft)
28.05.2022 02:07 3,8 C 1,7 C 86 % 1023,5 hPa 0,0 l/m 3,2 km/h (1 Bft) W-SW 247 0 min 0,0 UV-I 0 W/m 1,7 C 3,8 C 4,8 km/h (1 Bft)
28.05.2022 02:08 3,8 C 1,7 C 86 % 1023,5 hPa 0,0 l/m 3,2 km/h (1 Bft) W-SW 247 0 min 0,0 UV-I 0 W/m 1,7 C 3,8 C 3,2 km/h (1 Bft)
28.05.2022 02:09 3,9 C 1,7 C 86 % 1023,5 hPa 0,0 l/m 3,2 km/h (1 Bft) W-SW 247 0 min 0,0 UV-I 0 W/m 1,8 C 3,9 C 4,8 km/h (1 Bft)
28.05.2022 02:10 3,9 C 1,7 C 87 % 1023,5 hPa 0,0 l/m 1,6 km/h (1 Bft) W-SW 247 0 min 0,0 UV-I 0 W/m 1,9 C 3,9 C 4,8 km/h (1 Bft)
28.05.2022 02:11 3,9 C 1,7 C 87 % 1023,5 hPa 0,0 l/m 1,6 km/h (1 Bft) W-SW 247 0 min 0,0 UV-I 0 W/m 1,9 C 3,9 C 3,2 km/h (1 Bft)
28.05.2022 02:12 4,0 C 1,7 C 87 % 1023,5 hPa 0,0 l/m 1,6 km/h (1 Bft) W-SW 247 0 min 0,0 UV-I 0 W/m 2,0 C 4,0 C 3,2 km/h (1 Bft)
28.05.2022 02:13 4,0 C 1,7 C 87 % 1023,6 hPa 0,0 l/m 1,6 km/h (1 Bft) W-SW 247 0 min 0,0 UV-I 0 W/m 2,0 C 4,0 C 3,2 km/h (1 Bft)
28.05.2022 02:14 4,0 C 1,7 C 87 % 1023,5 hPa 0,0 l/m 1,6 km/h (1 Bft) W-SW 247 0 min 0,0 UV-I 0 W/m 2,0 C 4,0 C 3,2 km/h (1 Bft)
28.05.2022 02:15 4,0 C 1,7 C 87 % 1023,5 hPa 0,0 l/m 0,0 km/h (0 Bft) W-SW 247 0 min 0,0 UV-I 0 W/m 2,0 C 4,0 C 1,6 km/h (1 Bft)
28.05.2022 02:16 4,0 C 1,7 C 87 % 1023,4 hPa 0,0 l/m 0,0 km/h (0 Bft) N 0 0 min 0,0 UV-I 0 W/m 2,0 C 4,0 C 0,0 km/h (0 Bft)
28.05.2022 02:17 3,9 C 1,7 C 86 % 1023,4 hPa 0,0 l/m 0,0 km/h (0 Bft) N 0 0 min 0,0 UV-I 0 W/m 1,8 C 3,9 C 0,0 km/h (0 Bft)
28.05.2022 02:18 3,9 C 1,7 C 86 % 1023,4 hPa 0,0 l/m 0,0 km/h (0 Bft) N 0 0 min 0,0 UV-I 0 W/m 1,8 C 3,9 C 0,0 km/h (0 Bft)
28.05.2022 02:19 3,8 C 1,7 C 86 % 1023,4 hPa 0,0 l/m 0,0 km/h (0 Bft) N 0 0 min 0,0 UV-I 0 W/m 1,7 C 3,8 C 0,0 km/h (0 Bft)
28.05.2022 02:20 3,8 C 1,7 C 86 % 1023,4 hPa 0,0 l/m 0,0 km/h (0 Bft) N 0 0 min 0,0 UV-I 0 W/m 1,7 C 3,8 C 0,0 km/h (0 Bft)
28.05.2022 02:21 3,7 C 1,7 C 87 % 1023,4 hPa 0,0 l/m 0,0 km/h (0 Bft) N 0 0 min 0,0 UV-I 0 W/m 1,7 C 3,7 C 0,0 km/h (0 Bft)
28.05.2022 02:22 3,7 C 1,7 C 87 % 1023,4 hPa 0,0 l/m 0,0 km/h (0 Bft) N 0 0 min 0,0 UV-I 0 W/m 1,7 C 3,7 C 0,0 km/h (0 Bft)
28.05.2022 02:23 3,7 C 1,7 C 87 % 1023,3 hPa 0,0 l/m 0,0 km/h (0 Bft) N 0 0 min 0,0 UV-I 0 W/m 1,7 C 3,7 C 0,0 km/h (0 Bft)
28.05.2022 02:24 3,7 C 1,7 C 87 % 1023,4 hPa 0,0 l/m 0,0 km/h (0 Bft) N 0 0 min 0,0 UV-I 0 W/m 1,7 C 3,7 C 0,0 km/h (0 Bft)
28.05.2022 02:25 3,7 C 1,7 C 87 % 1023,4 hPa 0,0 l/m 0,0 km/h (0 Bft) N 0 0 min 0,0 UV-I 0 W/m 1,7 C 3,7 C 0,0 km/h (0 Bft)
28.05.2022 02:26 3,7 C 1,7 C 87 % 1023,3 hPa 0,0 l/m 0,0 km/h (0 Bft) N 0 0 min 0,0 UV-I 0 W/m 1,7 C 3,7 C 0,0 km/h (0 Bft)
28.05.2022 02:27 3,7 C 1,7 C 87 % 1023,3 hPa 0,0 l/m 0,0 km/h (0 Bft) N 0 0 min 0,0 UV-I 0 W/m 1,7 C 3,7 C 0,0 km/h (0 Bft)
28.05.2022 02:28 3,6 C 1,7 C 87 % 1023,3 hPa 0,0 l/m 0,0 km/h (0 Bft) N 0 0 min 0,0 UV-I 0 W/m 1,6 C 3,6 C 0,0 km/h (0 Bft)
28.05.2022 02:29 3,5 C 1,7 C 87 % 1023,3 hPa 0,0 l/m 0,0 km/h (0 Bft) N 0 0 min 0,0 UV-I 0 W/m 1,5 C 3,5 C 0,0 km/h (0 Bft)
28.05.2022 02:30 3,4 C 1,1 C 87 % 1023,3 hPa 0,0 l/m 0,0 km/h (0 Bft) N 0 0 min 0,0 UV-I 0 W/m 1,4 C 3,4 C 0,0 km/h (0 Bft)
28.05.2022 02:31 3,3 C 1,1 C 87 % 1023,3 hPa 0,0 l/m 0,0 km/h (0 Bft) N 0 0 min 0,0 UV-I 0 W/m 1,3 C 3,3 C 0,0 km/h (0 Bft)
28.05.2022 02:32 3,3 C 1,7 C 87 % 1023,3 hPa 0,0 l/m 0,0 km/h (0 Bft) N 0 0 min 0,0 UV-I 0 W/m 1,3 C 3,3 C 0,0 km/h (0 Bft)
28.05.2022 02:33 3,3 C 1,7 C 87 % 1023,3 hPa 0,0 l/m 0,0 km/h (0 Bft) N 0 0 min 0,0 UV-I 0 W/m 1,3 C 3,3 C 0,0 km/h (0 Bft)
28.05.2022 02:34 3,3 C 1,1 C 87 % 1023,3 hPa 0,0 l/m 0,0 km/h (0 Bft) N 0 0 min 0,0 UV-I 0 W/m 1,3 C 3,3 C 0,0 km/h (0 Bft)
28.05.2022 02:35 3,3 C 1,1 C 87 % 1023,4 hPa 0,0 l/m 0,0 km/h (0 Bft) N 0 0 min 0,0 UV-I 0 W/m 1,3 C 3,3 C 0,0 km/h (0 Bft)
28.05.2022 02:36 3,3 C 1,1 C 88 % 1023,2 hPa 0,0 l/m 0,0 km/h (0 Bft) N 0 0 min 0,0 UV-I 0 W/m 1,5 C 3,3 C 0,0 km/h (0 Bft)
28.05.2022 02:37 3,3 C 1,1 C 87 % 1023,3 hPa 0,0 l/m 0,0 km/h (0 Bft) N 0 0 min 0,0 UV-I 0 W/m 1,3 C 3,3 C 0,0 km/h (0 Bft)
28.05.2022 02:38 3,3 C 1,1 C 87 % 1023,2 hPa 0,0 l/m 0,0 km/h (0 Bft) N 0 0 min 0,0 UV-I 0 W/m 1,3 C 3,3 C 0,0 km/h (0 Bft)
28.05.2022 02:39 3,3 C 1,1 C 88 % 1023,3 hPa 0,0 l/m 0,0 km/h (0 Bft) N 0 0 min 0,0 UV-I 0 W/m 1,5 C 3,3 C 0,0 km/h (0 Bft)
28.05.2022 02:40 3,3 C 1,1 C 88 % 1023,3 hPa 0,0 l/m 0,0 km/h (0 Bft) N 0 0 min 0,0 UV-I 0 W/m 1,5 C 3,3 C 0,0 km/h (0 Bft)
28.05.2022 02:41 3,3 C 1,1 C 88 % 1023,2 hPa 0,0 l/m 0,0 km/h (0 Bft) N 0 0 min 0,0 UV-I 0 W/m 1,5 C 3,3 C 0,0 km/h (0 Bft)
28.05.2022 02:42 3,3 C 1,1 C 88 % 1023,2 hPa 0,0 l/m 0,0 km/h (0 Bft) N 0 0 min 0,0 UV-I 0 W/m 1,5 C 3,3 C 0,0 km/h (0 Bft)
28.05.2022 02:43 3,3 C 1,1 C 88 % 1023,1 hPa 0,0 l/m 0,0 km/h (0 Bft) N 0 0 min 0,0 UV-I 0 W/m 1,5 C 3,3 C 0,0 km/h (0 Bft)
28.05.2022 02:44 3,3 C 1,1 C 88 % 1023,2 hPa 0,0 l/m 0,0 km/h (0 Bft) N 0 0 min 0,0 UV-I 0 W/m 1,5 C 3,3 C 0,0 km/h (0 Bft)
28.05.2022 02:45 3,2 C 1,1 C 88 % 1023,1 hPa 0,0 l/m 0,0 km/h (0 Bft) N 0 0 min 0,0 UV-I 0 W/m 1,4 C 3,2 C 0,0 km/h (0 Bft)
28.05.2022 02:46 3,2 C 1,1 C 88 % 1023,3 hPa 0,0 l/m 0,0 km/h (0 Bft) N 0 0 min 0,0 UV-I 0 W/m 1,4 C 3,2 C 0,0 km/h (0 Bft)
28.05.2022 02:47 3,2 C 1,1 C 88 % 1023,3 hPa 0,0 l/m 0,0 km/h (0 Bft) N 0 0 min 0,0 UV-I 0 W/m 1,4 C 3,2 C 0,0 km/h (0 Bft)
28.05.2022 02:48 3,1 C 1,1 C 88 % 1023,2 hPa 0,0 l/m 0,0 km/h (0 Bft) N 0 0 min 0,0 UV-I 0 W/m 1,3 C 3,1 C 0,0 km/h (0 Bft)
28.05.2022 02:49 3,1 C 1,1 C 88 % 1023,2 hPa 0,0 l/m 0,0 km/h (0 Bft) N 0 0 min 0,0 UV-I 0 W/m 1,3 C 3,1 C 0,0 km/h (0 Bft)
28.05.2022 02:50 3,1 C 1,1 C 88 % 1023,1 hPa 0,0 l/m 0,0 km/h (0 Bft) N 0 0 min 0,0 UV-I 0 W/m 1,3 C 3,1 C 0,0 km/h (0 Bft)
28.05.2022 02:51 3,1 C 1,1 C 88 % 1023,2 hPa 0,0 l/m 0,0 km/h (0 Bft) N 0 0 min 0,0 UV-I 0 W/m 1,3 C 3,1 C 0,0 km/h (0 Bft)
28.05.2022 02:52 3,0 C 1,1 C 88 % 1023,2 hPa 0,0 l/m 0,0 km/h (0 Bft) N 0 0 min 0,0 UV-I 0 W/m 1,2 C 3,0 C 0,0 km/h (0 Bft)
28.05.2022 02:53 3,0 C 1,1 C 88 % 1023,2 hPa 0,0 l/m 0,0 km/h (0 Bft) N 0 0 min 0,0 UV-I 0 W/m 1,2 C 3,0 C 0,0 km/h (0 Bft)
28.05.2022 02:54 3,0 C 1,1 C 88 % 1023,3 hPa 0,0 l/m 0,0 km/h (0 Bft) N 0 0 min 0,0 UV-I 0 W/m 1,2 C 3,0 C 0,0 km/h (0 Bft)
28.05.2022 02:55 3,0 C 1,1 C 88 % 1023,3 hPa 0,0 l/m 0,0 km/h (0 Bft) N 0 0 min 0,0 UV-I 0 W/m 1,2 C 3,0 C 0,0 km/h (0 Bft)
28.05.2022 02:56 3,0 C 1,1 C 88 % 1023,2 hPa 0,0 l/m 0,0 km/h (0 Bft) N 0 0 min 0,0 UV-I 0 W/m 1,2 C 3,0 C 0,0 km/h (0 Bft)
28.05.2022 02:57 3,1 C 1,1 C 88 % 1023,1 hPa 0,0 l/m 0,0 km/h (0 Bft) N 0 0 min 0,0 UV-I 0 W/m 1,3 C 3,1 C 0,0 km/h (0 Bft)
28.05.2022 02:58 3,1 C 1,1 C 89 % 1023,2 hPa 0,0 l/m 0,0 km/h (0 Bft) N 0 0 min 0,0 UV-I 0 W/m 1,5 C 3,1 C 0,0 km/h (0 Bft)
28.05.2022 02:59 3,1 C 1,1 C 88 % 1023,2 hPa 0,0 l/m 0,0 km/h (0 Bft) N 0 0 min 0,0 UV-I 0 W/m 1,3 C 3,1 C 0,0 km/h (0 Bft)
28.05.2022 03:00 3,1 C 1,1 C 88 % 1023,2 hPa 0,0 l/m 0,0 km/h (0 Bft) N 0 0 min 0,0 UV-I 0 W/m 1,3 C 3,1 C 0,0 km/h (0 Bft)
28.05.2022 03:01 3,1 C 1,1 C 88 % 1023,2 hPa 0,0 l/m 0,0 km/h (0 Bft) N 0 0 min 0,0 UV-I 0 W/m 1,3 C 3,1 C 0,0 km/h (0 Bft)
28.05.2022 03:02 3,1 C 1,1 C 88 % 1023,2 hPa 0,0 l/m 0,0 km/h (0 Bft) N 0 0 min 0,0 UV-I 0 W/m 1,3 C 3,1 C 0,0 km/h (0 Bft)
28.05.2022 03:03 3,1 C 1,1 C 88 % 1023,3 hPa 0,0 l/m 0,0 km/h (0 Bft) N 0 0 min 0,0 UV-I 0 W/m 1,3 C 3,1 C 0,0 km/h (0 Bft)
28.05.2022 03:04 3,1 C 1,1 C 88 % 1023,2 hPa 0,0 l/m 0,0 km/h (0 Bft) N 0 0 min 0,0 UV-I 0 W/m 1,3 C 3,1 C 0,0 km/h (0 Bft)
28.05.2022 03:05 3,1 C 1,1 C 88 % 1023,2 hPa 0,0 l/m 0,0 km/h (0 Bft) N 0 0 min 0,0 UV-I 0 W/m 1,3 C 3,1 C 0,0 km/h (0 Bft)
28.05.2022 03:06 3,2 C 1,1 C 89 % 1023,2 hPa 0,0 l/m 0,0 km/h (0 Bft) N 0 0 min 0,0 UV-I 0 W/m 1,6 C 3,2 C 0,0 km/h (0 Bft)
28.05.2022 03:07 3,2 C 1,1 C 89 % 1023,2 hPa 0,0 l/m 0,0 km/h (0 Bft) N 0 0 min 0,0 UV-I 0 W/m 1,6 C 3,2 C 0,0 km/h (0 Bft)
28.05.2022 03:08 3,2 C 1,1 C 88 % 1023,1 hPa 0,0 l/m 0,0 km/h (0 Bft) N 0 0 min 0,0 UV-I 0 W/m 1,4 C 3,2 C 0,0 km/h (0 Bft)
28.05.2022 03:09 3,1 C 1,1 C 88 % 1023,1 hPa 0,0 l/m 0,0 km/h (0 Bft) N 0 0 min 0,0 UV-I 0 W/m 1,3 C 3,1 C 0,0 km/h (0 Bft)
28.05.2022 03:10 3,1 C 1,1 C 88 % 1023,2 hPa 0,0 l/m 0,0 km/h (0 Bft) N 0 0 min 0,0 UV-I 0 W/m 1,3 C 3,1 C 0,0 km/h (0 Bft)
28.05.2022 03:11 3,1 C 1,1 C 88 % 1023,2 hPa 0,0 l/m 0,0 km/h (0 Bft) N 0 0 min 0,0 UV-I 0 W/m 1,3 C 3,1 C 0,0 km/h (0 Bft)
28.05.2022 03:12 3,1 C 1,1 C 88 % 1023,1 hPa 0,0 l/m 0,0 km/h (0 Bft) N 0 0 min 0,0 UV-I 0 W/m 1,3 C 3,1 C 0,0 km/h (0 Bft)
28.05.2022 03:13 3,1 C 1,1 C 89 % 1023,1 hPa 0,0 l/m 0,0 km/h (0 Bft) N 0 0 min 0,0 UV-I 0 W/m 1,5 C 3,1 C 0,0 km/h (0 Bft)
28.05.2022 03:14 3,1 C 1,1 C 89 % 1023,1 hPa 0,0 l/m 0,0 km/h (0 Bft) N 0 0 min 0,0 UV-I 0 W/m 1,5 C 3,1 C 0,0 km/h (0 Bft)
28.05.2022 03:15 3,1 C 1,1 C 89 % 1023,1 hPa 0,0 l/m 0,0 km/h (0 Bft) N 0 0 min 0,0 UV-I 0 W/m 1,5 C 3,1 C 0,0 km/h (0 Bft)
28.05.2022 03:16 3,1 C 1,1 C 89 % 1023,1 hPa 0,0 l/m 0,0 km/h (0 Bft) N 0 0 min 0,0 UV-I 0 W/m 1,5 C 3,1 C 0,0 km/h (0 Bft)
28.05.2022 03:17 3,1 C 1,1 C 88 % 1023,2 hPa 0,0 l/m 0,0 km/h (0 Bft) N 0 0 min 0,0 UV-I 0 W/m 1,3 C 3,1 C 0,0 km/h (0 Bft)
28.05.2022 03:18 3,0 C 1,1 C 89 % 1023,2 hPa 0,0 l/m 0,0 km/h (0 Bft) N 0 0 min 0,0 UV-I 0 W/m 1,4 C 3,0 C 0,0 km/h (0 Bft)
28.05.2022 03:19 3,0 C 1,1 C 89 % 1023,2 hPa 0,0 l/m 0,0 km/h (0 Bft) N 0 0 min 0,0 UV-I 0 W/m 1,4 C 3,0 C 0,0 km/h (0 Bft)
28.05.2022 03:20 3,0 C 1,1 C 89 % 1023,3 hPa 0,0 l/m 0,0 km/h (0 Bft) N 0 0 min 0,0 UV-I 0 W/m 1,4 C 3,0 C 0,0 km/h (0 Bft)
28.05.2022 03:21 3,1 C 1,1 C 89 % 1023,2 hPa 0,0 l/m 0,0 km/h (0 Bft) N 0 0 min 0,0 UV-I 0 W/m 1,5 C 3,1 C 0,0 km/h (0 Bft)
28.05.2022 03:22 3,0 C 1,1 C 89 % 1023,2 hPa 0,0 l/m 0,0 km/h (0 Bft) N 0 0 min 0,0 UV-I 0 W/m 1,4 C 3,0 C 0,0 km/h (0 Bft)
28.05.2022 03:23 3,1 C 1,1 C 89 % 1023,2 hPa 0,0 l/m 0,0 km/h (0 Bft) N 0 0 min 0,0 UV-I 0 W/m 1,5 C 3,1 C 0,0 km/h (0 Bft)
28.05.2022 03:24 3,1 C 1,1 C 89 % 1023,2 hPa 0,0 l/m 0,0 km/h (0 Bft) N 0 0 min 0,0 UV-I 0 W/m 1,5 C 3,1 C 0,0 km/h (0 Bft)
28.05.2022 03:25 2,9 C 1,1 C 89 % 1023,2 hPa 0,0 l/m 0,0 km/h (0 Bft) N 0 0 min 0,0 UV-I 0 W/m 1,3 C 2,9 C 0,0 km/h (0 Bft)
28.05.2022 03:26 3,0 C 1,1 C 89 % 1023,1 hPa 0,0 l/m 0,0 km/h (0 Bft) N 0 0 min 0,0 UV-I 0 W/m 1,4 C 3,0 C 0,0 km/h (0 Bft)
28.05.2022 03:27 2,9 C 1,1 C 89 % 1023,1 hPa 0,0 l/m 0,0 km/h (0 Bft) N 0 0 min 0,0 UV-I 0 W/m 1,3 C 2,9 C 0,0 km/h (0 Bft)
28.05.2022 03:28 2,9 C 1,1 C 89 % 1023,2 hPa 0,0 l/m 0,0 km/h (0 Bft) N 0 0 min 0,0 UV-I 0 W/m 1,3 C 2,9 C 0,0 km/h (0 Bft)
28.05.2022 03:29 2,8 C 1,1 C 89 % 1023,1 hPa 0,0 l/m 0,0 km/h (0 Bft) N 0 0 min 0,0 UV-I 0 W/m 1,2 C 2,8 C 0,0 km/h (0 Bft)
28.05.2022 03:30 2,8 C 1,1 C 89 % 1023,1 hPa 0,0 l/m 0,0 km/h (0 Bft) N 0 0 min 0,0 UV-I 0 W/m 1,2 C 2,8 C 0,0 km/h (0 Bft)
28.05.2022 03:31 2,8 C 1,1 C 89 % 1023,1 hPa 0,0 l/m 0,0 km/h (0 Bft) N 0 0 min 0,0 UV-I 0 W/m 1,2 C 2,8 C 0,0 km/h (0 Bft)
28.05.2022 03:32 2,7 C 1,1 C 89 % 1023,1 hPa 0,0 l/m 0,0 km/h (0 Bft) N 0 0 min 0,0 UV-I 0 W/m 1,1 C 2,7 C 0,0 km/h (0 Bft)
28.05.2022 03:33 2,7 C 1,1 C 89 % 1023,1 hPa 0,0 l/m 0,0 km/h (0 Bft) N 0 0 min 0,0 UV-I 0 W/m 1,1 C 2,7 C 0,0 km/h (0 Bft)
28.05.2022 03:34 2,8 C 1,1 C 89 % 1023,1 hPa 0,0 l/m 0,0 km/h (0 Bft) N 0 0 min 0,0 UV-I 0 W/m 1,2 C 2,8 C 0,0 km/h (0 Bft)
28.05.2022 03:35 2,8 C 1,1 C 89 % 1023,1 hPa 0,0 l/m 0,0 km/h (0 Bft) N 0 0 min 0,0 UV-I 0 W/m 1,2 C 2,8 C 0,0 km/h (0 Bft)
28.05.2022 03:36 2,8 C 1,1 C 89 % 1023,1 hPa 0,0 l/m 0,0 km/h (0 Bft) N 0 0 min 0,0 UV-I 0 W/m 1,2 C 2,8 C 0,0 km/h (0 Bft)
28.05.2022 03:37 2,8 C 1,1 C 89 % 1023,1 hPa 0,0 l/m 0,0 km/h (0 Bft) N 0 0 min 0,0 UV-I 0 W/m 1,2 C 2,8 C 0,0 km/h (0 Bft)
28.05.2022 03:38 2,8 C 1,1 C 89 % 1023,1 hPa 0,0 l/m 0,0 km/h (0 Bft) N 0 0 min 0,0 UV-I 0 W/m 1,2 C 2,8 C 0,0 km/h (0 Bft)
28.05.2022 03:39 2,8 C 1,1 C 89 % 1023,1 hPa 0,0 l/m 0,0 km/h (0 Bft) N 0 0 min 0,0 UV-I 0 W/m 1,2 C 2,8 C 0,0 km/h (0 Bft)
28.05.2022 03:40 2,8 C 1,1 C 89 % 1023,1 hPa 0,0 l/m 0,0 km/h (0 Bft) N 0 0 min 0,0 UV-I 0 W/m 1,2 C 2,8 C 0,0 km/h (0 Bft)
28.05.2022 03:41 2,8 C 0,6 C 89 % 1023,1 hPa 0,0 l/m 0,0 km/h (0 Bft) N 0 0 min 0,0 UV-I 0 W/m 1,2 C 2,8 C 0,0 km/h (0 Bft)
28.05.2022 03:42 2,8 C 1,1 C 89 % 1023,1 hPa 0,0 l/m 0,0 km/h (0 Bft) N 0 0 min 0,0 UV-I 0 W/m 1,2 C 2,8 C 0,0 km/h (0 Bft)
28.05.2022 03:43 2,8 C 1,1 C 89 % 1023,2 hPa 0,0 l/m 0,0 km/h (0 Bft) N 0 0 min 0,0 UV-I 0 W/m 1,2 C 2,8 C 0,0 km/h (0 Bft)
28.05.2022 03:44 2,9 C 1,1 C 89 % 1023,1 hPa 0,0 l/m 0,0 km/h (0 Bft) N 0 0 min 0,0 UV-I 0 W/m 1,3 C 2,9 C 0,0 km/h (0 Bft)
28.05.2022 03:45 2,9 C 1,1 C 89 % 1023,2 hPa 0,0 l/m 0,0 km/h (0 Bft) N 0 0 min 0,0 UV-I 0 W/m 1,3 C 2,9 C 0,0 km/h (0 Bft)
28.05.2022 03:46 3,0 C 0,6 C 89 % 1023,2 hPa 0,0 l/m 0,0 km/h (0 Bft) N 0 0 min 0,0 UV-I 0 W/m 1,4 C 3,0 C 0,0 km/h (0 Bft)
28.05.2022 03:47 2,9 C 1,1 C 89 % 1023,2 hPa 0,0 l/m 0,0 km/h (0 Bft) N 0 0 min 0,0 UV-I 0 W/m 1,3 C 2,9 C 0,0 km/h (0 Bft)
28.05.2022 03:48 3,0 C 1,1 C 89 % 1023,1 hPa 0,0 l/m 0,0 km/h (0 Bft) N 0 0 min 0,0 UV-I 0 W/m 1,4 C 3,0 C 0,0 km/h (0 Bft)
28.05.2022 03:49 3,0 C 1,1 C 89 % 1023,2 hPa 0,0 l/m 0,0 km/h (0 Bft) N 0 0 min 0,0 UV-I 0 W/m 1,4 C 3,0 C 0,0 km/h (0 Bft)
28.05.2022 03:50 3,1 C 0,6 C 89 % 1023,2 hPa 0,0 l/m 0,0 km/h (0 Bft) N 0 0 min 0,0 UV-I 0 W/m 1,5 C 3,1 C 0,0 km/h (0 Bft)
28.05.2022 03:51 3,1 C 1,1 C 89 % 1023,1 hPa 0,0 l/m 0,0 km/h (0 Bft) N 0 0 min 0,0 UV-I 0 W/m 1,5 C 3,1 C 0,0 km/h (0 Bft)
28.05.2022 03:52 3,1 C 1,1 C 89 % 1023,1 hPa 0,0 l/m 0,0 km/h (0 Bft) N 0 0 min 0,0 UV-I 0 W/m 1,5 C 3,1 C 0,0 km/h (0 Bft)
28.05.2022 03:53 3,0 C 1,1 C 89 % 1023,1 hPa 0,0 l/m 0,0 km/h (0 Bft) N 0 0 min 0,0 UV-I 0 W/m 1,4 C 3,0 C 0,0 km/h (0 Bft)
28.05.2022 03:54 2,9 C 1,1 C 89 % 1023,1 hPa 0,0 l/m 0,0 km/h (0 Bft) N 0 0 min 0,0 UV-I 0 W/m 1,3 C 2,9 C 0,0 km/h (0 Bft)
28.05.2022 03:55 2,9 C 1,1 C 89 % 1023,1 hPa 0,0 l/m 0,0 km/h (0 Bft) N 0 0 min 0,0 UV-I 0 W/m 1,3 C 2,9 C 0,0 km/h (0 Bft)
28.05.2022 03:56 2,9 C 1,1 C 89 % 1023,1 hPa 0,0 l/m 0,0 km/h (0 Bft) N 0 0 min 0,0 UV-I 0 W/m 1,3 C 2,9 C 0,0 km/h (0 Bft)
28.05.2022 03:57 2,9 C 1,1 C 89 % 1023,1 hPa 0,0 l/m 0,0 km/h (0 Bft) N 0 0 min 0,0 UV-I 0 W/m 1,3 C 2,9 C 0,0 km/h (0 Bft)
28.05.2022 03:58 2,9 C 1,1 C 89 % 1023,0 hPa 0,0 l/m 0,0 km/h (0 Bft) N 0 0 min 0,0 UV-I 0 W/m 1,3 C 2,9 C 0,0 km/h (0 Bft)
28.05.2022 03:59 2,9 C 1,1 C 89 % 1023,1 hPa 0,0 l/m 0,0 km/h (0 Bft) N 0 0 min 0,0 UV-I 0 W/m 1,3 C 2,9 C 0,0 km/h (0 Bft)
28.05.2022 04:00 2,9 C 1,1 C 89 % 1023,1 hPa 0,0 l/m 0,0 km/h (0 Bft) N 0 0 min 0,0 UV-I 0 W/m 1,3 C 2,9 C 0,0 km/h (0 Bft)
28.05.2022 04:01 2,9 C 1,1 C 89 % 1023,1 hPa 0,0 l/m 0,0 km/h (0 Bft) N 0 0 min 0,0 UV-I 0 W/m 1,3 C 2,9 C 0,0 km/h (0 Bft)
28.05.2022 04:02 2,9 C 1,1 C 89 % 1023,2 hPa 0,0 l/m 0,0 km/h (0 Bft) N 0 0 min 0,0 UV-I 0 W/m 1,3 C 2,9 C 0,0 km/h (0 Bft)
28.05.2022 04:03 3,1 C 1,1 C 89 % 1023,1 hPa 0,0 l/m 0,0 km/h (0 Bft) N 0 0 min 0,0 UV-I 0 W/m 1,5 C 3,1 C 0,0 km/h (0 Bft)
28.05.2022 04:04 3,2 C 1,1 C 90 % 1023,1 hPa 0,0 l/m 0,0 km/h (0 Bft) N 0 0 min 0,0 UV-I 0 W/m 1,7 C 3,2 C 0,0 km/h (0 Bft)
28.05.2022 04:05 3,3 C 1,1 C 90 % 1023,1 hPa 0,0 l/m 0,0 km/h (0 Bft) N 0 0 min 0,0 UV-I 0 W/m 1,8 C 3,3 C 0,0 km/h (0 Bft)
28.05.2022 04:06 3,3 C 1,7 C 90 % 1023,0 hPa 0,0 l/m 0,0 km/h (0 Bft) N 0 0 min 0,0 UV-I 0 W/m 1,8 C 3,3 C 0,0 km/h (0 Bft)
28.05.2022 04:07 3,4 C 1,7 C 90 % 1023,0 hPa 0,0 l/m 0,0 km/h (0 Bft) N 0 0 min 0,0 UV-I 0 W/m 1,9 C 3,4 C 0,0 km/h (0 Bft)
28.05.2022 04:08 3,4 C 1,7 C 89 % 1023,1 hPa 0,0 l/m 0,0 km/h (0 Bft) N 0 0 min 0,0 UV-I 0 W/m 1,8 C 3,4 C 0,0 km/h (0 Bft)
28.05.2022 04:09 3,5 C 1,7 C 89 % 1023,1 hPa 0,0 l/m 0,0 km/h (0 Bft) N 0 0 min 0,0 UV-I 0 W/m 1,9 C 3,5 C 0,0 km/h (0 Bft)
28.05.2022 04:10 3,6 C 1,7 C 89 % 1023,1 hPa 0,0 l/m 0,0 km/h (0 Bft) N 0 0 min 0,0 UV-I 0 W/m 2,0 C 3,6 C 0,0 km/h (0 Bft)
28.05.2022 04:11 3,6 C 1,7 C 89 % 1023,0 hPa 0,0 l/m 0,0 km/h (0 Bft) N 0 0 min 0,0 UV-I 0 W/m 2,0 C 3,6 C 0,0 km/h (0 Bft)
28.05.2022 04:12 3,7 C 1,7 C 89 % 1023,0 hPa 0,0 l/m 0,0 km/h (0 Bft) N 0 0 min 0,0 UV-I 0 W/m 2,1 C 3,7 C 0,0 km/h (0 Bft)
28.05.2022 04:13 3,8 C 1,7 C 90 % 1023,0 hPa 0,0 l/m 0,0 km/h (0 Bft) N 0 0 min 0,0 UV-I 0 W/m 2,3 C 3,8 C 0,0 km/h (0 Bft)
28.05.2022 04:14 3,8 C 1,7 C 89 % 1023,0 hPa 0,0 l/m 0,0 km/h (0 Bft) N 0 0 min 0,0 UV-I 0 W/m 2,2 C 3,8 C 0,0 km/h (0 Bft)
28.05.2022 04:15 3,8 C 1,7 C 89 % 1023,0 hPa 0,0 l/m 0,0 km/h (0 Bft) N 0 0 min 0,0 UV-I 0 W/m 2,2 C 3,8 C 0,0 km/h (0 Bft)
28.05.2022 04:16 3,8 C 1,1 C 89 % 1023,0 hPa 0,0 l/m 0,0 km/h (0 Bft) N 0 0 min 0,0 UV-I 0 W/m 2,2 C 3,8 C 0,0 km/h (0 Bft)
28.05.2022 04:17 3,7 C 1,1 C 89 % 1023,0 hPa 0,0 l/m 0,0 km/h (0 Bft) N 0 0 min 0,0 UV-I 0 W/m 2,1 C 3,7 C 0,0 km/h (0 Bft)
28.05.2022 04:18 3,6 C 1,1 C 88 % 1023,0 hPa 0,0 l/m 0,0 km/h (0 Bft) N 0 0 min 0,0 UV-I 0 W/m 1,8 C 3,6 C 0,0 km/h (0 Bft)
28.05.2022 04:19 3,4 C 1,1 C 88 % 1023,0 hPa 0,0 l/m 0,0 km/h (0 Bft) N 0 0 min 0,0 UV-I 0 W/m 1,6 C 3,4 C 0,0 km/h (0 Bft)
28.05.2022 04:20 3,4 C 1,1 C 88 % 1023,0 hPa 0,0 l/m 0,0 km/h (0 Bft) N 0 0 min 0,0 UV-I 0 W/m 1,6 C 3,4 C 0,0 km/h (0 Bft)
28.05.2022 04:21 3,3 C 1,1 C 88 % 1023,1 hPa 0,0 l/m 0,0 km/h (0 Bft) N 0 0 min 0,0 UV-I 0 W/m 1,5 C 3,3 C 0,0 km/h (0 Bft)
28.05.2022 04:22 3,2 C 1,1 C 88 % 1023,0 hPa 0,0 l/m 0,0 km/h (0 Bft) N 0 0 min 0,0 UV-I 0 W/m 1,4 C 3,2 C 0,0 km/h (0 Bft)
28.05.2022 04:23 3,2 C 1,1 C 88 % 1023,1 hPa 0,0 l/m 0,0 km/h (0 Bft) N 0 0 min 0,0 UV-I 0 W/m 1,4 C 3,2 C 0,0 km/h (0 Bft)
28.05.2022 04:24 3,1 C 1,1 C 88 % 1023,0 hPa 0,0 l/m 0,0 km/h (0 Bft) N 0 0 min 0,0 UV-I 0 W/m 1,3 C 3,1 C 0,0 km/h (0 Bft)
28.05.2022 04:25 3,1 C 1,1 C 88 % 1023,0 hPa 0,0 l/m 0,0 km/h (0 Bft) N 0 0 min 0,0 UV-I 0 W/m 1,3 C 3,1 C 0,0 km/h (0 Bft)
28.05.2022 04:26 3,1 C 1,1 C 89 % 1023,1 hPa 0,0 l/m 0,0 km/h (0 Bft) N 0 0 min 0,0 UV-I 0 W/m 1,5 C 3,1 C 0,0 km/h (0 Bft)
28.05.2022 04:27 3,1 C 1,1 C 89 % 1023,0 hPa 0,0 l/m 0,0 km/h (0 Bft) N 0 0 min 0,0 UV-I 0 W/m 1,5 C 3,1 C 0,0 km/h (0 Bft)
28.05.2022 04:28 3,1 C 1,1 C 89 % 1023,0 hPa 0,0 l/m 0,0 km/h (0 Bft) N 0 0 min 0,0 UV-I 0 W/m 1,5 C 3,1 C 0,0 km/h (0 Bft)
28.05.2022 04:29 3,2 C 1,1 C 89 % 1023,0 hPa 0,0 l/m 0,0 km/h (0 Bft) N 0 0 min 0,0 UV-I 0 W/m 1,6 C 3,2 C 0,0 km/h (0 Bft)
28.05.2022 04:30 3,2 C 1,1 C 89 % 1023,0 hPa 0,0 l/m 0,0 km/h (0 Bft) N 0 0 min 0,0 UV-I 0 W/m 1,6 C 3,2 C 0,0 km/h (0 Bft)
28.05.2022 04:31 3,2 C 1,1 C 89 % 1023,0 hPa 0,0 l/m 0,0 km/h (0 Bft) N 0 0 min 0,0 UV-I 0 W/m 1,6 C 3,2 C 0,0 km/h (0 Bft)
28.05.2022 04:32 3,4 C 1,1 C 89 % 1023,0 hPa 0,0 l/m 0,0 km/h (0 Bft) N 0 0 min 0,0 UV-I 0 W/m 1,8 C 3,4 C 0,0 km/h (0 Bft)
28.05.2022 04:33 3,4 C 1,1 C 89 % 1023,0 hPa 0,0 l/m 0,0 km/h (0 Bft) N 0 0 min 0,0 UV-I 0 W/m 1,8 C 3,4 C 0,0 km/h (0 Bft)
28.05.2022 04:34 3,5 C 1,1 C 89 % 1022,9 hPa 0,0 l/m 0,0 km/h (0 Bft) N 0 0 min 0,0 UV-I 0 W/m 1,9 C 3,5 C 0,0 km/h (0 Bft)
28.05.2022 04:35 3,5 C 1,1 C 89 % 1023,0 hPa 0,0 l/m 0,0 km/h (0 Bft) N 0 0 min 0,0 UV-I 0 W/m 1,9 C 3,5 C 0,0 km/h (0 Bft)
28.05.2022 04:36 3,4 C 1,1 C 89 % 1022,9 hPa 0,0 l/m 0,0 km/h (0 Bft) N 0 0 min 0,0 UV-I 0 W/m 1,8 C 3,4 C 0,0 km/h (0 Bft)
28.05.2022 04:37 3,4 C 1,1 C 89 % 1022,9 hPa 0,0 l/m 0,0 km/h (0 Bft) N 0 0 min 0,0 UV-I 0 W/m 1,8 C 3,4 C 0,0 km/h (0 Bft)
28.05.2022 04:38 3,4 C 1,7 C 89 % 1022,9 hPa 0,0 l/m 0,0 km/h (0 Bft) N 0 0 min 0,0 UV-I 0 W/m 1,8 C 3,4 C 0,0 km/h (0 Bft)
28.05.2022 04:39 3,4 C 1,7 C 89 % 1023,0 hPa 0,0 l/m 0,0 km/h (0 Bft) N 0 0 min 0,0 UV-I 0 W/m 1,8 C 3,4 C 0,0 km/h (0 Bft)
28.05.2022 04:40 3,4 C 1,7 C 89 % 1022,9 hPa 0,0 l/m 0,0 km/h (0 Bft) N 0 0 min 0,0 UV-I 0 W/m 1,8 C 3,4 C 0,0 km/h (0 Bft)
28.05.2022 04:41 3,5 C 1,7 C 89 % 1022,9 hPa 0,0 l/m 0,0 km/h (0 Bft) N 0 0 min 0,0 UV-I 0 W/m 1,9 C 3,5 C 0,0 km/h (0 Bft)
28.05.2022 04:42 3,6 C 1,7 C 89 % 1022,9 hPa 0,0 l/m 0,0 km/h (0 Bft) N 0 0 min 0,0 UV-I 0 W/m 2,0 C 3,6 C 0,0 km/h (0 Bft)
28.05.2022 04:43 3,7 C 1,7 C 89 % 1022,9 hPa 0,0 l/m 0,0 km/h (0 Bft) N 0 0 min 0,0 UV-I 0 W/m 2,1 C 3,7 C 0,0 km/h (0 Bft)
28.05.2022 04:44 3,7 C 1,7 C 89 % 1022,9 hPa 0,0 l/m 0,0 km/h (0 Bft) N 0 0 min 0,0 UV-I 0 W/m 2,1 C 3,7 C 0,0 km/h (0 Bft)
28.05.2022 04:45 3,7 C 1,7 C 89 % 1022,9 hPa 0,0 l/m 0,0 km/h (0 Bft) N 0 0 min 0,0 UV-I 0 W/m 2,1 C 3,7 C 0,0 km/h (0 Bft)
28.05.2022 04:46 3,7 C 1,7 C 89 % 1023,0 hPa 0,0 l/m 0,0 km/h (0 Bft) N 0 0 min 0,0 UV-I 0 W/m 2,1 C 3,7 C 0,0 km/h (0 Bft)
28.05.2022 04:47 3,6 C 1,7 C 89 % 1023,0 hPa 0,0 l/m 0,0 km/h (0 Bft) N 0 0 min 0,0 UV-I 0 W/m 2,0 C 3,6 C 0,0 km/h (0 Bft)
28.05.2022 04:48 3,6 C 1,1 C 89 % 1022,9 hPa 0,0 l/m 0,0 km/h (0 Bft) N 0 0 min 0,0 UV-I 0 W/m 2,0 C 3,6 C 0,0 km/h (0 Bft)
28.05.2022 04:49 3,6 C 1,7 C 89 % 1023,0 hPa 0,0 l/m 0,0 km/h (0 Bft) N 0 0 min 0,0 UV-I 0 W/m 2,0 C 3,6 C 0,0 km/h (0 Bft)
28.05.2022 04:50 3,6 C 1,1 C 89 % 1023,0 hPa 0,0 l/m 0,0 km/h (0 Bft) N 0 0 min 0,0 UV-I 0 W/m 2,0 C 3,6 C 0,0 km/h (0 Bft)
28.05.2022 04:51 3,6 C 1,7 C 89 % 1022,9 hPa 0,0 l/m 0,0 km/h (0 Bft) N 0 0 min 0,0 UV-I 0 W/m 2,0 C 3,6 C 0,0 km/h (0 Bft)
28.05.2022 04:52 3,6 C 1,1 C 89 % 1023,0 hPa 0,0 l/m 0,0 km/h (0 Bft) N 0 0 min 0,0 UV-I 0 W/m 2,0 C 3,6 C 0,0 km/h (0 Bft)
28.05.2022 04:53 3,4 C 1,7 C 89 % 1023,0 hPa 0,0 l/m 0,0 km/h (0 Bft) N 0 0 min 0,0 UV-I 0 W/m 1,8 C 3,4 C 0,0 km/h (0 Bft)
28.05.2022 04:54 3,4 C 1,7 C 88 % 1023,0 hPa 0,0 l/m 0,0 km/h (0 Bft) N 0 0 min 0,0 UV-I 0 W/m 1,6 C 3,4 C 0,0 km/h (0 Bft)
28.05.2022 04:55 3,4 C 1,7 C 89 % 1023,0 hPa 0,0 l/m 0,0 km/h (0 Bft) N 0 0 min 0,0 UV-I 0 W/m 1,8 C 3,4 C 0,0 km/h (0 Bft)
28.05.2022 04:56 3,4 C 1,7 C 89 % 1023,0 hPa 0,0 l/m 0,0 km/h (0 Bft) N 0 0 min 0,0 UV-I 0 W/m 1,8 C 3,4 C 0,0 km/h (0 Bft)
28.05.2022 04:57 3,4 C 1,1 C 89 % 1023,0 hPa 0,0 l/m 0,0 km/h (0 Bft) N 0 0 min 0,0 UV-I 0 W/m 1,8 C 3,4 C 0,0 km/h (0 Bft)
28.05.2022 04:58 3,4 C 1,1 C 89 % 1023,0 hPa 0,0 l/m 0,0 km/h (0 Bft) N 0 0 min 0,0 UV-I 0 W/m 1,8 C 3,4 C 0,0 km/h (0 Bft)
28.05.2022 04:59 3,3 C 1,1 C 89 % 1023,0 hPa 0,0 l/m 0,0 km/h (0 Bft) N 0 0 min 0,0 UV-I 0 W/m 1,7 C 3,3 C 0,0 km/h (0 Bft)
28.05.2022 05:00 3,4 C 1,1 C 89 % 1023,0 hPa 0,0 l/m 0,0 km/h (0 Bft) N 0 0 min 0,0 UV-I 0 W/m 1,8 C 3,4 C 0,0 km/h (0 Bft)
28.05.2022 05:01 3,4 C 1,1 C 89 % 1023,0 hPa 0,0 l/m 0,0 km/h (0 Bft) N 0 0 min 0,0 UV-I 0 W/m 1,8 C 3,4 C 0,0 km/h (0 Bft)
28.05.2022 05:02 3,5 C 1,1 C 89 % 1023,0 hPa 0,0 l/m 0,0 km/h (0 Bft) N 0 0 min 0,0 UV-I 0 W/m 1,9 C 3,5 C 0,0 km/h (0 Bft)
28.05.2022 05:03 3,5 C 1,1 C 89 % 1023,0 hPa 0,0 l/m 0,0 km/h (0 Bft) N 0 0 min 0,0 UV-I 0 W/m 1,9 C 3,5 C 0,0 km/h (0 Bft)
28.05.2022 05:04 3,5 C 1,1 C 89 % 1023,0 hPa 0,0 l/m 0,0 km/h (0 Bft) N 0 0 min 0,0 UV-I 0 W/m 1,9 C 3,5 C 0,0 km/h (0 Bft)
28.05.2022 05:05 3,5 C 1,1 C 89 % 1022,9 hPa 0,0 l/m 0,0 km/h (0 Bft) N 0 0 min 0,0 UV-I 0 W/m 1,9 C 3,5 C 0,0 km/h (0 Bft)
28.05.2022 05:06 3,4 C 1,1 C 89 % 1022,9 hPa 0,0 l/m 0,0 km/h (0 Bft) N 0 0 min 0,0 UV-I 0 W/m 1,8 C 3,4 C 0,0 km/h (0 Bft)
28.05.2022 05:07 3,4 C 1,7 C 89 % 1022,8 hPa 0,0 l/m 0,0 km/h (0 Bft) N 0 0 min 0,0 UV-I 0 W/m 1,8 C 3,4 C 0,0 km/h (0 Bft)
28.05.2022 05:08 3,4 C 1,7 C 89 % 1022,8 hPa 0,0 l/m 0,0 km/h (0 Bft) N 0 0 min 0,0 UV-I 0 W/m 1,8 C 3,4 C 0,0 km/h (0 Bft)
28.05.2022 05:09 3,4 C 1,7 C 89 % 1022,9 hPa 0,0 l/m 0,0 km/h (0 Bft) N 0 0 min 0,0 UV-I 0 W/m 1,8 C 3,4 C 0,0 km/h (0 Bft)
28.05.2022 05:10 3,4 C 1,7 C 89 % 1022,8 hPa 0,0 l/m 0,0 km/h (0 Bft) N 0 0 min 0,0 UV-I 0 W/m 1,8 C 3,4 C 0,0 km/h (0 Bft)
28.05.2022 05:11 3,4 C 1,7 C 89 % 1022,9 hPa 0,0 l/m 0,0 km/h (0 Bft) N 0 0 min 0,0 UV-I 0 W/m 1,8 C 3,4 C 0,0 km/h (0 Bft)
28.05.2022 05:12 3,3 C 1,7 C 89 % 1022,9 hPa 0,0 l/m 0,0 km/h (0 Bft) N 0 0 min 0,0 UV-I 0 W/m 1,7 C 3,3 C 0,0 km/h (0 Bft)
28.05.2022 05:13 3,3 C 1,7 C 89 % 1022,8 hPa 0,0 l/m 0,0 km/h (0 Bft) N 0 0 min 0,0 UV-I 0 W/m 1,7 C 3,3 C 0,0 km/h (0 Bft)
28.05.2022 05:14 3,4 C 1,7 C 89 % 1022,9 hPa 0,0 l/m 0,0 km/h (0 Bft) N 0 0 min 0,0 UV-I 0 W/m 1,8 C 3,4 C 0,0 km/h (0 Bft)
28.05.2022 05:15 3,4 C 1,7 C 89 % 1022,9 hPa 0,0 l/m 0,0 km/h (0 Bft) N 0 0 min 0,0 UV-I 0 W/m 1,8 C 3,4 C 0,0 km/h (0 Bft)
28.05.2022 05:16 3,5 C 1,7 C 89 % 1023,0 hPa 0,0 l/m 0,0 km/h (0 Bft) N 0 0 min 0,0 UV-I 0 W/m 1,9 C 3,5 C 0,0 km/h (0 Bft)
28.05.2022 05:17 3,6 C 1,7 C 89 % 1022,9 hPa 0,0 l/m 0,0 km/h (0 Bft) N 0 0 min 0,0 UV-I 0 W/m 2,0 C 3,6 C 0,0 km/h (0 Bft)
28.05.2022 05:18 3,6 C 1,7 C 89 % 1022,8 hPa 0,0 l/m 0,0 km/h (0 Bft) N 0 0 min 0,0 UV-I 0 W/m 2,0 C 3,6 C 0,0 km/h (0 Bft)
28.05.2022 05:19 3,7 C 1,7 C 89 % 1022,9 hPa 0,0 l/m 0,0 km/h (0 Bft) N 0 0 min 0,0 UV-I 0 W/m 2,1 C 3,7 C 0,0 km/h (0 Bft)
28.05.2022 05:20 3,8 C 1,7 C 89 % 1023,0 hPa 0,0 l/m 0,0 km/h (0 Bft) N 0 0 min 0,0 UV-I 0 W/m 2,2 C 3,8 C 0,0 km/h (0 Bft)
28.05.2022 05:21 3,8 C 2,2 C 90 % 1023,0 hPa 0,0 l/m 0,0 km/h (0 Bft) N 0 0 min 0,0 UV-I 0 W/m 2,3 C 3,8 C 0,0 km/h (0 Bft)
28.05.2022 05:22 3,9 C 2,2 C 90 % 1023,0 hPa 0,0 l/m 0,0 km/h (0 Bft) N 0 0 min 0,0 UV-I 0 W/m 2,4 C 3,9 C 0,0 km/h (0 Bft)
28.05.2022 05:23 4,0 C 2,2 C 90 % 1023,0 hPa 0,0 l/m 0,0 km/h (0 Bft) N 0 0 min 0,0 UV-I 0 W/m 2,5 C 4,0 C 0,0 km/h (0 Bft)
28.05.2022 05:24 4,1 C 2,2 C 89 % 1022,9 hPa 0,0 l/m 0,0 km/h (0 Bft) N 0 0 min 0,0 UV-I 5 W/m 2,5 C 4,1 C 0,0 km/h (0 Bft)
28.05.2022 05:25 4,1 C 2,2 C 89 % 1022,9 hPa 0,0 l/m 0,0 km/h (0 Bft) N 0 0 min 0,0 UV-I 5 W/m 2,5 C 4,1 C 0,0 km/h (0 Bft)
28.05.2022 05:26 4,0 C 2,2 C 89 % 1023,0 hPa 0,0 l/m 0,0 km/h (0 Bft) N 0 0 min 0,0 UV-I 5 W/m 2,4 C 4,0 C 0,0 km/h (0 Bft)
28.05.2022 05:27 3,9 C 2,2 C 89 % 1023,0 hPa 0,0 l/m 0,0 km/h (0 Bft) N 0 0 min 0,0 UV-I 5 W/m 2,3 C 3,9 C 0,0 km/h (0 Bft)
28.05.2022 05:28 3,8 C 2,2 C 89 % 1023,0 hPa 0,0 l/m 0,0 km/h (0 Bft) N 0 0 min 0,0 UV-I 5 W/m 2,2 C 3,8 C 0,0 km/h (0 Bft)
28.05.2022 05:29 3,8 C 1,7 C 88 % 1023,0 hPa 0,0 l/m 0,0 km/h (0 Bft) N 0 0 min 0,0 UV-I 5 W/m 2,0 C 3,8 C 0,0 km/h (0 Bft)
28.05.2022 05:30 3,7 C 1,7 C 88 % 1023,0 hPa 0,0 l/m 0,0 km/h (0 Bft) N 0 0 min 0,0 UV-I 5 W/m 1,9 C 3,7 C 0,0 km/h (0 Bft)
28.05.2022 05:31 3,7 C 1,7 C 89 % 1022,9 hPa 0,0 l/m 0,0 km/h (0 Bft) N 0 0 min 0,0 UV-I 5 W/m 2,1 C 3,7 C 0,0 km/h (0 Bft)
28.05.2022 05:32 3,7 C 1,7 C 88 % 1023,0 hPa 0,0 l/m 0,0 km/h (0 Bft) N 0 0 min 0,0 UV-I 5 W/m 1,9 C 3,7 C 0,0 km/h (0 Bft)
28.05.2022 05:33 3,7 C 1,7 C 89 % 1022,9 hPa 0,0 l/m 0,0 km/h (0 Bft) N 0 0 min 0,0 UV-I 5 W/m 2,1 C 3,7 C 0,0 km/h (0 Bft)
28.05.2022 05:34 3,7 C 1,7 C 89 % 1022,9 hPa 0,0 l/m 0,0 km/h (0 Bft) N 0 0 min 0,0 UV-I 5 W/m 2,1 C 3,7 C 0,0 km/h (0 Bft)
28.05.2022 05:35 3,7 C 1,7 C 89 % 1023,0 hPa 0,0 l/m 0,0 km/h (0 Bft) N 0 0 min 0,0 UV-I 5 W/m 2,1 C 3,7 C 0,0 km/h (0 Bft)
28.05.2022 05:36 3,8 C 1,7 C 89 % 1022,9 hPa 0,0 l/m 0,0 km/h (0 Bft) N 0 0 min 0,0 UV-I 5 W/m 2,2 C 3,8 C 0,0 km/h (0 Bft)
28.05.2022 05:37 3,8 C 2,2 C 89 % 1022,9 hPa 0,0 l/m 0,0 km/h (0 Bft) N 0 0 min 0,0 UV-I 5 W/m 2,2 C 3,8 C 0,0 km/h (0 Bft)
28.05.2022 05:38 3,9 C 2,2 C 89 % 1022,9 hPa 0,0 l/m 0,0 km/h (0 Bft) N 0 0 min 0,0 UV-I 7 W/m 2,3 C 3,9 C 0,0 km/h (0 Bft)
28.05.2022 05:39 3,9 C 2,2 C 89 % 1022,9 hPa 0,0 l/m 0,0 km/h (0 Bft) N 0 0 min 0,0 UV-I 7 W/m 2,3 C 3,9 C 0,0 km/h (0 Bft)
28.05.2022 05:40 4,0 C 2,2 C 89 % 1022,9 hPa 0,0 l/m 0,0 km/h (0 Bft) N 0 0 min 0,0 UV-I 7 W/m 2,4 C 4,0 C 0,0 km/h (0 Bft)
28.05.2022 05:41 4,1 C 2,2 C 89 % 1022,8 hPa 0,0 l/m 0,0 km/h (0 Bft) N 0 0 min 0,0 UV-I 7 W/m 2,5 C 4,1 C 0,0 km/h (0 Bft)
28.05.2022 05:42 4,1 C 2,2 C 89 % 1022,9 hPa 0,0 l/m 0,0 km/h (0 Bft) N 0 0 min 0,0 UV-I 7 W/m 2,5 C 4,1 C 0,0 km/h (0 Bft)
28.05.2022 05:43 4,1 C 2,2 C 89 % 1022,9 hPa 0,0 l/m 0,0 km/h (0 Bft) N 0 0 min 0,0 UV-I 7 W/m 2,5 C 4,1 C 0,0 km/h (0 Bft)
28.05.2022 05:44 4,0 C 2,2 C 88 % 1022,9 hPa 0,0 l/m 0,0 km/h (0 Bft) N 0 0 min 0,0 UV-I 8 W/m 2,2 C 4,0 C 0,0 km/h (0 Bft)
28.05.2022 05:45 3,9 C 2,2 C 88 % 1022,9 hPa 0,0 l/m 0,0 km/h (0 Bft) N 0 0 min 0,0 UV-I 9 W/m 2,1 C 3,9 C 0,0 km/h (0 Bft)
28.05.2022 05:46 3,9 C 2,2 C 89 % 1022,9 hPa 0,0 l/m 0,0 km/h (0 Bft) N 0 0 min 0,0 UV-I 9 W/m 2,3 C 3,9 C 0,0 km/h (0 Bft)
28.05.2022 05:47 3,8 C 2,2 C 88 % 1022,9 hPa 0,0 l/m 0,0 km/h (0 Bft) N 0 0 min 0,0 UV-I 9 W/m 2,0 C 3,8 C 0,0 km/h (0 Bft)
28.05.2022 05:48 3,7 C 1,7 C 88 % 1022,8 hPa 0,0 l/m 0,0 km/h (0 Bft) N 0 0 min 0,0 UV-I 9 W/m 1,9 C 3,7 C 0,0 km/h (0 Bft)
28.05.2022 05:49 3,6 C 1,7 C 88 % 1022,8 hPa 0,0 l/m 0,0 km/h (0 Bft) N 0 0 min 0,0 UV-I 11 W/m 1,8 C 3,6 C 0,0 km/h (0 Bft)
28.05.2022 05:50 3,6 C 1,7 C 88 % 1022,8 hPa 0,0 l/m 0,0 km/h (0 Bft) N 0 0 min 0,0 UV-I 11 W/m 1,8 C 3,6 C 0,0 km/h (0 Bft)
28.05.2022 05:51 3,6 C 1,7 C 89 % 1022,9 hPa 0,0 l/m 0,0 km/h (0 Bft) N 0 0 min 0,0 UV-I 12 W/m 2,0 C 3,6 C 0,0 km/h (0 Bft)
28.05.2022 05:52 3,6 C 1,7 C 88 % 1022,9 hPa 0,0 l/m 0,0 km/h (0 Bft) N 0 0 min 0,0 UV-I 12 W/m 1,8 C 3,6 C 0,0 km/h (0 Bft)
28.05.2022 05:53 3,6 C 1,7 C 89 % 1022,9 hPa 0,0 l/m 0,0 km/h (0 Bft) N 0 0 min 0,0 UV-I 12 W/m 2,0 C 3,6 C 0,0 km/h (0 Bft)
28.05.2022 05:54 3,5 C 1,7 C 88 % 1022,8 hPa 0,0 l/m 0,0 km/h (0 Bft) N 0 0 min 0,0 UV-I 12 W/m 1,7 C 3,5 C 0,0 km/h (0 Bft)
28.05.2022 05:55 3,5 C 1,7 C 89 % 1022,9 hPa 0,0 l/m 0,0 km/h (0 Bft) N 0 0 min 0,0 UV-I 14 W/m 1,9 C 3,5 C 0,0 km/h (0 Bft)
28.05.2022 05:56 3,4 C 1,7 C 89 % 1022,9 hPa 0,0 l/m 0,0 km/h (0 Bft) N 0 0 min 0,0 UV-I 15 W/m 1,8 C 3,4 C 0,0 km/h (0 Bft)
28.05.2022 05:57 3,5 C 1,7 C 89 % 1022,9 hPa 0,0 l/m 0,0 km/h (0 Bft) N 0 0 min 0,0 UV-I 16 W/m 1,9 C 3,5 C 0,0 km/h (0 Bft)
28.05.2022 05:58 3,4 C 1,7 C 89 % 1022,9 hPa 0,0 l/m 0,0 km/h (0 Bft) N 0 0 min 0,0 UV-I 16 W/m 1,8 C 3,4 C 0,0 km/h (0 Bft)
28.05.2022 05:59 3,5 C 1,7 C 89 % 1022,8 hPa 0,0 l/m 0,0 km/h (0 Bft) N 0 0 min 0,0 UV-I 16 W/m 1,9 C 3,5 C 0,0 km/h (0 Bft)
28.05.2022 06:00 3,5 C 1,7 C 89 % 1022,8 hPa 0,0 l/m 0,0 km/h (0 Bft) N 0 0 min 0,0 UV-I 16 W/m 1,9 C 3,5 C 0,0 km/h (0 Bft)
28.05.2022 06:01 3,5 C 1,7 C 89 % 1022,9 hPa 0,0 l/m 0,0 km/h (0 Bft) N 0 0 min 0,0 UV-I 16 W/m 1,9 C 3,5 C 0,0 km/h (0 Bft)
28.05.2022 06:02 3,5 C 1,7 C 89 % 1022,9 hPa 0,0 l/m 0,0 km/h (0 Bft) N 0 0 min 0,0 UV-I 16 W/m 1,9 C 3,5 C 0,0 km/h (0 Bft)
28.05.2022 06:03 3,5 C 2,2 C 89 % 1022,9 hPa 0,0 l/m 0,0 km/h (0 Bft) N 0 0 min 0,0 UV-I 16 W/m 1,9 C 3,5 C 0,0 km/h (0 Bft)
28.05.2022 06:04 3,5 C 2,2 C 89 % 1022,9 hPa 0,0 l/m 0,0 km/h (0 Bft) N 0 0 min 0,0 UV-I 18 W/m 1,9 C 3,5 C 0,0 km/h (0 Bft)
28.05.2022 06:05 3,5 C 2,2 C 89 % 1022,9 hPa 0,0 l/m 0,0 km/h (0 Bft) N 0 0 min 0,0 UV-I 18 W/m 1,9 C 3,5 C 0,0 km/h (0 Bft)
28.05.2022 06:06 3,6 C 2,2 C 89 % 1022,8 hPa 0,0 l/m 0,0 km/h (0 Bft) N 0 0 min 0,0 UV-I 19 W/m 2,0 C 3,6 C 0,0 km/h (0 Bft)
28.05.2022 06:07 3,6 C 2,2 C 89 % 1022,9 hPa 0,0 l/m 0,0 km/h (0 Bft) N 0 0 min 0,0 UV-I 19 W/m 2,0 C 3,6 C 0,0 km/h (0 Bft)
28.05.2022 06:08 3,6 C 2,2 C 89 % 1022,8 hPa 0,0 l/m 0,0 km/h (0 Bft) N 0 0 min 0,0 UV-I 19 W/m 2,0 C 3,6 C 0,0 km/h (0 Bft)
28.05.2022 06:09 3,6 C 2,2 C 89 % 1023,0 hPa 0,0 l/m 0,0 km/h (0 Bft) N 0 0 min 0,0 UV-I 21 W/m 2,0 C 3,6 C 0,0 km/h (0 Bft)
28.05.2022 06:10 3,7 C 2,2 C 89 % 1022,9 hPa 0,0 l/m 0,0 km/h (0 Bft) N 0 0 min 0,0 UV-I 21 W/m 2,1 C 3,7 C 0,0 km/h (0 Bft)
28.05.2022 06:11 3,6 C 2,2 C 89 % 1022,9 hPa 0,0 l/m 0,0 km/h (0 Bft) N 0 0 min 0,0 UV-I 21 W/m 2,0 C 3,6 C 0,0 km/h (0 Bft)
28.05.2022 06:12 3,7 C 2,2 C 89 % 1022,8 hPa 0,0 l/m 0,0 km/h (0 Bft) N 0 0 min 0,0 UV-I 21 W/m 2,1 C 3,7 C 0,0 km/h (0 Bft)
28.05.2022 06:13 3,7 C 2,2 C 89 % 1022,9 hPa 0,0 l/m 0,0 km/h (0 Bft) N 0 0 min 0,0 UV-I 23 W/m 2,1 C 3,7 C 0,0 km/h (0 Bft)
28.05.2022 06:14 3,8 C 2,2 C 90 % 1022,9 hPa 0,0 l/m 0,0 km/h (0 Bft) N 0 0 min 0,0 UV-I 25 W/m 2,3 C 3,8 C 0,0 km/h (0 Bft)
28.05.2022 06:15 3,9 C 2,2 C 90 % 1022,9 hPa 0,0 l/m 0,0 km/h (0 Bft) N 0 0 min 0,0 UV-I 26 W/m 2,4 C 3,9 C 0,0 km/h (0 Bft)
28.05.2022 06:16 4,1 C 2,8 C 90 % 1022,9 hPa 0,0 l/m 0,0 km/h (0 Bft) N 0 0 min 0,0 UV-I 26 W/m 2,6 C 4,1 C 0,0 km/h (0 Bft)
28.05.2022 06:17 4,2 C 2,8 C 90 % 1022,8 hPa 0,0 l/m 0,0 km/h (0 Bft) N 0 0 min 0,0 UV-I 28 W/m 2,7 C 4,2 C 0,0 km/h (0 Bft)
28.05.2022 06:18 4,3 C 2,8 C 90 % 1022,9 hPa 0,0 l/m 0,0 km/h (0 Bft) N 0 0 min 0,0 UV-I 28 W/m 2,8 C 4,3 C 0,0 km/h (0 Bft)
28.05.2022 06:19 4,3 C 2,8 C 90 % 1022,9 hPa 0,0 l/m 0,0 km/h (0 Bft) N 0 0 min 0,0 UV-I 31 W/m 2,8 C 4,3 C 0,0 km/h (0 Bft)
28.05.2022 06:20 4,4 C 2,8 C 90 % 1022,9 hPa 0,0 l/m 0,0 km/h (0 Bft) N 0 0 min 0,0 UV-I 33 W/m 2,9 C 4,4 C 0,0 km/h (0 Bft)
28.05.2022 06:21 4,5 C 3,3 C 89 % 1022,9 hPa 0,0 l/m 0,0 km/h (0 Bft) N 0 0 min 0,0 UV-I 35 W/m 2,8 C 4,5 C 0,0 km/h (0 Bft)
28.05.2022 06:22 4,6 C 3,3 C 89 % 1022,9 hPa 0,0 l/m 0,0 km/h (0 Bft) N 0 0 min 0,0 UV-I 35 W/m 2,9 C 4,6 C 0,0 km/h (0 Bft)
28.05.2022 06:23 4,5 C 3,3 C 89 % 1022,9 hPa 0,0 l/m 0,0 km/h (0 Bft) N 0 0 min 0,0 UV-I 37 W/m 2,8 C 4,5 C 0,0 km/h (0 Bft)
28.05.2022 06:24 4,5 C 3,3 C 89 % 1022,9 hPa 0,0 l/m 0,0 km/h (0 Bft) N 0 0 min 0,0 UV-I 39 W/m 2,8 C 4,5 C 0,0 km/h (0 Bft)
28.05.2022 06:25 4,5 C 3,3 C 89 % 1022,9 hPa 0,0 l/m 0,0 km/h (0 Bft) N 0 0 min 0,0 UV-I 40 W/m 2,8 C 4,5 C 0,0 km/h (0 Bft)
28.05.2022 06:26 4,6 C 3,3 C 89 % 1022,8 hPa 0,0 l/m 0,0 km/h (0 Bft) N 0 0 min 0,0 UV-I 42 W/m 2,9 C 4,6 C 0,0 km/h (0 Bft)
28.05.2022 06:27 4,6 C 3,3 C 89 % 1022,9 hPa 0,0 l/m 0,0 km/h (0 Bft) N 0 0 min 0,0 UV-I 44 W/m 2,9 C 4,6 C 0,0 km/h (0 Bft)
28.05.2022 06:28 4,7 C 3,3 C 89 % 1022,8 hPa 0,0 l/m 0,0 km/h (0 Bft) N 0 0 min 0,0 UV-I 47 W/m 3,0 C 4,7 C 0,0 km/h (0 Bft)
28.05.2022 06:29 4,8 C 3,3 C 89 % 1022,8 hPa 0,0 l/m 0,0 km/h (0 Bft) N 0 0 min 0,0 UV-I 49 W/m 3,1 C 4,8 C 0,0 km/h (0 Bft)
28.05.2022 06:30 4,8 C 3,3 C 89 % 1022,9 hPa 0,0 l/m 0,0 km/h (0 Bft) N 0 0 min 0,0 UV-I 53 W/m 3,1 C 4,8 C 0,0 km/h (0 Bft)
28.05.2022 06:31 4,9 C 3,9 C 89 % 1022,9 hPa 0,0 l/m 0,0 km/h (0 Bft) N 0 0 min 0,0 UV-I 72 W/m 3,2 C 4,9 C 0,0 km/h (0 Bft)
28.05.2022 06:32 5,0 C 3,9 C 89 % 1022,9 hPa 0,0 l/m 0,0 km/h (0 Bft) N 0 0 min 0,0 UV-I 72 W/m 3,3 C 5,0 C 0,0 km/h (0 Bft)
28.05.2022 06:33 5,2 C 3,9 C 89 % 1022,9 hPa 0,0 l/m 0,0 km/h (0 Bft) N 0 0 min 0,0 UV-I 56 W/m 3,5 C 5,2 C 0,0 km/h (0 Bft)
28.05.2022 06:34 5,2 C 4,4 C 88 % 1022,9 hPa 0,0 l/m 0,0 km/h (0 Bft) N 0 0 min 0,0 UV-I 62 W/m 3,4 C 5,2 C 0,0 km/h (0 Bft)
28.05.2022 06:35 5,3 C 4,4 C 88 % 1022,9 hPa 0,0 l/m 0,0 km/h (0 Bft) N 0 0 min 0,0 UV-I 54 W/m 3,5 C 5,3 C 0,0 km/h (0 Bft)
28.05.2022 06:36 5,4 C 4,4 C 88 % 1022,9 hPa 0,0 l/m 0,0 km/h (0 Bft) N 0 0 min 0,0 UV-I 42 W/m 3,6 C 5,4 C 0,0 km/h (0 Bft)
28.05.2022 06:37 5,4 C 4,4 C 88 % 1022,9 hPa 0,0 l/m 0,0 km/h (0 Bft) N 0 0 min 0,0 UV-I 39 W/m 3,6 C 5,4 C 0,0 km/h (0 Bft)
28.05.2022 06:38 5,5 C 4,4 C 88 % 1023,0 hPa 0,0 l/m 0,0 km/h (0 Bft) N 0 0 min 0,0 UV-I 37 W/m 3,7 C 5,5 C 0,0 km/h (0 Bft)
28.05.2022 06:39 5,5 C 4,4 C 88 % 1023,0 hPa 0,0 l/m 0,0 km/h (0 Bft) N 0 0 min 0,0 UV-I 67 W/m 3,7 C 5,5 C 0,0 km/h (0 Bft)
28.05.2022 06:40 5,6 C 4,4 C 87 % 1023,0 hPa 0,0 l/m 0,0 km/h (0 Bft) N 0 0 min 0,0 UV-I 67 W/m 3,6 C 5,6 C 0,0 km/h (0 Bft)
28.05.2022 06:41 5,7 C 4,4 C 87 % 1023,0 hPa 0,0 l/m 0,0 km/h (0 Bft) N 0 0 min 0,0 UV-I 72 W/m 3,7 C 5,7 C 0,0 km/h (0 Bft)
28.05.2022 06:42 5,7 C 4,4 C 87 % 1023,0 hPa 0,0 l/m 0,0 km/h (0 Bft) N 0 0 min 0,0 UV-I 54 W/m 3,7 C 5,7 C 0,0 km/h (0 Bft)
28.05.2022 06:43 5,7 C 5,0 C 87 % 1023,0 hPa 0,0 l/m 0,0 km/h (0 Bft) N 0 0 min 0,0 UV-I 55 W/m 3,7 C 5,7 C 0,0 km/h (0 Bft)
28.05.2022 06:44 5,7 C 5,0 C 87 % 1023,1 hPa 0,0 l/m 0,0 km/h (0 Bft) N 0 0 min 0,0 UV-I 65 W/m 3,7 C 5,7 C 0,0 km/h (0 Bft)
28.05.2022 06:45 5,8 C 5,0 C 86 % 1023,1 hPa 0,0 l/m 0,0 km/h (0 Bft) N 0 0 min 0,0 UV-I 76 W/m 3,6 C 5,8 C 0,0 km/h (0 Bft)
28.05.2022 06:46 5,8 C 5,0 C 86 % 1023,1 hPa 0,0 l/m 0,0 km/h (0 Bft) N 0 0 min 0,0 UV-I 47 W/m 3,6 C 5,8 C 0,0 km/h (0 Bft)
28.05.2022 06:47 5,8 C 5,0 C 86 % 1023,0 hPa 0,0 l/m 0,0 km/h (0 Bft) N 0 0 min 0,0 UV-I 46 W/m 3,6 C 5,8 C 0,0 km/h (0 Bft)
28.05.2022 06:48 5,9 C 5,0 C 86 % 1023,1 hPa 0,0 l/m 0,0 km/h (0 Bft) N 0 0 min 0,0 UV-I 60 W/m 3,7 C 5,9 C 0,0 km/h (0 Bft)
28.05.2022 06:49 5,9 C 5,0 C 86 % 1023,1 hPa 0,0 l/m 0,0 km/h (0 Bft) N 0 0 min 0,0 UV-I 91 W/m 3,7 C 5,9 C 0,0 km/h (0 Bft)
28.05.2022 06:50 5,9 C 5,0 C 86 % 1023,1 hPa 0,0 l/m 0,0 km/h (0 Bft) N 0 0 min 0,0 UV-I 148 W/m 3,7 C 5,9 C 0,0 km/h (0 Bft)
28.05.2022 06:51 6,0 C 5,6 C 86 % 1023,0 hPa 0,0 l/m 0,0 km/h (0 Bft) N 0 0 min 0,0 UV-I 171 W/m 3,8 C 6,0 C 0,0 km/h (0 Bft)
28.05.2022 06:52 6,1 C 5,6 C 86 % 1023,0 hPa 0,0 l/m 0,0 km/h (0 Bft) N 0 0 min 0,0 UV-I 148 W/m 3,9 C 6,1 C 0,0 km/h (0 Bft)
28.05.2022 06:53 6,1 C 6,1 C 86 % 1023,0 hPa 0,0 l/m 0,0 km/h (0 Bft) N 0 0 min 0,0 UV-I 91 W/m 3,9 C 6,1 C 0,0 km/h (0 Bft)
28.05.2022 06:54 6,2 C 6,1 C 86 % 1023,0 hPa 0,0 l/m 0,0 km/h (0 Bft) N 0 0 min 0,0 UV-I 110 W/m 4,0 C 6,2 C 0,0 km/h (0 Bft)
28.05.2022 06:55 6,2 C 6,1 C 86 % 1023,0 hPa 0,0 l/m 0,0 km/h (0 Bft) N 0 0 min 0,0 UV-I 104 W/m 4,0 C 6,2 C 0,0 km/h (0 Bft)
28.05.2022 06:56 6,3 C 6,1 C 86 % 1023,0 hPa 0,0 l/m 0,0 km/h (0 Bft) N 0 0 min 0,0 UV-I 100 W/m 4,1 C 6,3 C 0,0 km/h (0 Bft)
28.05.2022 06:57 6,3 C 6,1 C 85 % 1023,0 hPa 0,0 l/m 0,0 km/h (0 Bft) N 0 0 min 0,0 UV-I 83 W/m 4,0 C 6,3 C 0,0 km/h (0 Bft)
28.05.2022 06:58 6,3 C 6,1 C 85 % 1023,1 hPa 0,0 l/m 0,0 km/h (0 Bft) N 0 0 min 0,0 UV-I 70 W/m 4,0 C 6,3 C 0,0 km/h (0 Bft)
28.05.2022 06:59 6,3 C 6,1 C 85 % 1023,0 hPa 0,0 l/m 0,0 km/h (0 Bft) N 0 0 min 0,0 UV-I 62 W/m 4,0 C 6,3 C 0,0 km/h (0 Bft)
28.05.2022 07:00 6,4 C 6,1 C 85 % 1023,1 hPa 0,0 l/m 3,2 km/h (1 Bft) S-SW 202 0 min 0,0 UV-I 44 W/m 4,1 C 6,4 C 9,7 km/h (2 Bft)
28.05.2022 07:01 6,3 C 6,1 C 85 % 1023,1 hPa 0,0 l/m 4,8 km/h (1 Bft) SW 225 0 min 0,0 UV-I 44 W/m 4,0 C 6,3 C 6,4 km/h (2 Bft)
28.05.2022 07:02 6,3 C 6,1 C 85 % 1023,0 hPa 0,0 l/m 3,2 km/h (1 Bft) SW 225 0 min 0,0 UV-I 53 W/m 4,0 C 6,3 C 4,8 km/h (1 Bft)
28.05.2022 07:03 6,3 C 6,1 C 85 % 1023,1 hPa 0,0 l/m 3,2 km/h (1 Bft) SW 225 0 min 0,0 UV-I 69 W/m 4,0 C 6,3 C 4,8 km/h (1 Bft)
28.05.2022 07:04 6,3 C 6,1 C 85 % 1023,2 hPa 0,0 l/m 4,8 km/h (1 Bft) SW 225 0 min 0,5 UV-I 121 W/m 4,0 C 6,3 C 6,4 km/h (2 Bft)
28.05.2022 07:05 6,3 C 6,1 C 85 % 1023,2 hPa 0,0 l/m 3,2 km/h (1 Bft) SW 225 0 min 0,5 UV-I 120 W/m 4,0 C 6,3 C 4,8 km/h (1 Bft)
28.05.2022 07:06 6,3 C 6,1 C 85 % 1023,0 hPa 0,0 l/m 4,8 km/h (1 Bft) SW 225 0 min 0,5 UV-I 116 W/m 4,0 C 6,3 C 4,8 km/h (1 Bft)
28.05.2022 07:07 6,4 C 6,7 C 85 % 1023,1 hPa 0,0 l/m 3,2 km/h (1 Bft) SW 225 0 min 0,5 UV-I 128 W/m 4,1 C 6,4 C 6,4 km/h (2 Bft)
28.05.2022 07:08 6,4 C 6,7 C 85 % 1023,0 hPa 0,0 l/m 4,8 km/h (1 Bft) SW 225 0 min 0,5 UV-I 128 W/m 4,1 C 6,4 C 6,4 km/h (2 Bft)
28.05.2022 07:09 6,5 C 6,7 C 85 % 1023,1 hPa 0,0 l/m 4,8 km/h (1 Bft) SW 225 0 min 0,5 UV-I 125 W/m 4,2 C 6,5 C 6,4 km/h (2 Bft)
28.05.2022 07:10 6,6 C 6,7 C 84 % 1023,1 hPa 0,0 l/m 4,8 km/h (1 Bft) SW 225 0 min 0,0 UV-I 56 W/m 4,1 C 6,6 C 8,0 km/h (2 Bft)
28.05.2022 07:11 6,6 C 6,7 C 84 % 1023,1 hPa 0,0 l/m 1,6 km/h (1 Bft) SW 225 0 min 0,0 UV-I 81 W/m 4,1 C 6,6 C 4,8 km/h (1 Bft)
28.05.2022 07:12 6,6 C 6,7 C 84 % 1023,2 hPa 0,0 l/m 0,0 km/h (0 Bft) SW 225 0 min 0,0 UV-I 70 W/m 4,1 C 6,6 C 4,8 km/h (1 Bft)
28.05.2022 07:13 6,6 C 6,7 C 84 % 1023,1 hPa 0,0 l/m 3,2 km/h (1 Bft) SW 225 0 min 0,0 UV-I 56 W/m 4,1 C 6,6 C 4,8 km/h (1 Bft)
28.05.2022 07:14 6,6 C 6,7 C 84 % 1023,1 hPa 0,0 l/m 0,0 km/h (0 Bft) SW 225 0 min 0,0 UV-I 49 W/m 4,1 C 6,6 C 1,6 km/h (1 Bft)
28.05.2022 07:15 6,6 C 6,7 C 84 % 1023,1 hPa 0,0 l/m 0,0 km/h (0 Bft) N 0 0 min 0,0 UV-I 67 W/m 4,1 C 6,6 C 0,0 km/h (0 Bft)
28.05.2022 07:16 6,6 C 6,7 C 84 % 1023,2 hPa 0,0 l/m 1,6 km/h (1 Bft) SW 225 0 min 0,5 UV-I 81 W/m 4,1 C 6,6 C 6,4 km/h (2 Bft)
28.05.2022 07:17 6,6 C 6,7 C 84 % 1023,1 hPa 0,0 l/m 3,2 km/h (1 Bft) SW 225 0 min 0,6 UV-I 127 W/m 4,1 C 6,6 C 4,8 km/h (1 Bft)
28.05.2022 07:18 6,6 C 6,7 C 84 % 1023,2 hPa 0,0 l/m 3,2 km/h (1 Bft) SW 225 0 min 0,5 UV-I 100 W/m 4,1 C 6,6 C 6,4 km/h (2 Bft)
28.05.2022 07:19 6,6 C 6,7 C 84 % 1023,1 hPa 0,0 l/m 1,6 km/h (1 Bft) SW 225 0 min 0,0 UV-I 46 W/m 4,1 C 6,6 C 3,2 km/h (1 Bft)
28.05.2022 07:20 6,6 C 6,1 C 84 % 1023,1 hPa 0,0 l/m 3,2 km/h (1 Bft) SW 225 0 min 0,5 UV-I 58 W/m 4,1 C 6,6 C 8,0 km/h (2 Bft)
28.05.2022 07:21 6,6 C 6,1 C 84 % 1023,2 hPa 0,0 l/m 4,8 km/h (1 Bft) SW 225 0 min 0,6 UV-I 58 W/m 4,1 C 6,6 C 6,4 km/h (2 Bft)
28.05.2022 07:22 6,6 C 6,7 C 84 % 1023,1 hPa 0,0 l/m 3,2 km/h (1 Bft) SW 225 0 min 0,6 UV-I 190 W/m 4,1 C 6,6 C 4,8 km/h (1 Bft)
28.05.2022 07:23 6,7 C 6,7 C 84 % 1023,1 hPa 0,0 l/m 4,8 km/h (1 Bft) SW 225 0 min 0,6 UV-I 185 W/m 4,2 C 6,7 C 8,0 km/h (2 Bft)
28.05.2022 07:24 6,7 C 7,2 C 85 % 1023,1 hPa 0,0 l/m 3,2 km/h (1 Bft) W-SW 247 0 min 0,7 UV-I 179 W/m 4,4 C 6,7 C 4,8 km/h (1 Bft)
28.05.2022 07:25 6,7 C 7,2 C 85 % 1023,1 hPa 0,0 l/m 4,8 km/h (1 Bft) W-SW 247 0 min 0,7 UV-I 178 W/m 4,4 C 6,7 C 8,0 km/h (2 Bft)
28.05.2022 07:26 6,8 C 7,2 C 85 % 1023,2 hPa 0,0 l/m 6,4 km/h (2 Bft) SW 225 0 min 0,7 UV-I 185 W/m 4,5 C 6,8 C 8,0 km/h (2 Bft)
28.05.2022 07:27 6,8 C 7,2 C 84 % 1023,1 hPa 0,0 l/m 6,4 km/h (2 Bft) SW 225 0 min 0,7 UV-I 188 W/m 4,3 C 6,8 C 11,3 km/h (2 Bft)
28.05.2022 07:28 6,9 C 7,2 C 84 % 1023,1 hPa 0,0 l/m 4,8 km/h (1 Bft) W-SW 247 0 min 0,7 UV-I 162 W/m 4,4 C 6,9 C 8,0 km/h (2 Bft)
28.05.2022 07:29 6,9 C 7,2 C 84 % 1023,1 hPa 0,0 l/m 4,8 km/h (1 Bft) S-SW 202 0 min 0,7 UV-I 179 W/m 4,4 C 6,9 C 11,3 km/h (2 Bft)
28.05.2022 07:30 7,0 C 7,2 C 84 % 1023,1 hPa 0,0 l/m 4,8 km/h (1 Bft) S-SW 202 0 min 0,7 UV-I 199 W/m 4,5 C 7,0 C 8,0 km/h (2 Bft)
28.05.2022 07:31 7,1 C 7,2 C 84 % 1023,1 hPa 0,0 l/m 4,8 km/h (1 Bft) W-SW 247 0 min 0,7 UV-I 200 W/m 4,6 C 7,1 C 6,4 km/h (2 Bft)
28.05.2022 07:32 7,1 C 7,8 C 84 % 1023,0 hPa 0,0 l/m 4,8 km/h (1 Bft) SW 225 0 min 0,7 UV-I 195 W/m 4,6 C 7,1 C 6,4 km/h (2 Bft)
28.05.2022 07:33 7,1 C 7,8 C 84 % 1023,1 hPa 0,0 l/m 4,8 km/h (1 Bft) S-SW 202 0 min 0,8 UV-I 195 W/m 4,6 C 7,1 C 6,4 km/h (2 Bft)
28.05.2022 07:34 7,2 C 7,8 C 84 % 1023,1 hPa 0,0 l/m 3,2 km/h (1 Bft) S-SW 202 0 min 0,8 UV-I 207 W/m 4,7 C 7,2 C 4,8 km/h (1 Bft)
28.05.2022 07:35 7,3 C 7,8 C 84 % 1023,3 hPa 0,0 l/m 0,0 km/h (0 Bft) S-SW 202 0 min 0,8 UV-I 210 W/m 4,8 C 7,3 C 1,6 km/h (1 Bft)
28.05.2022 07:36 7,4 C 7,8 C 84 % 1023,3 hPa 0,0 l/m 0,0 km/h (0 Bft) N 0 0 min 0,8 UV-I 213 W/m 4,9 C 7,4 C 0,0 km/h (0 Bft)
28.05.2022 07:37 7,7 C 7,8 C 84 % 1023,1 hPa 0,0 l/m 0,0 km/h (0 Bft) S-SW 202 0 min 0,8 UV-I 216 W/m 5,2 C 7,7 C 6,4 km/h (2 Bft)
28.05.2022 07:38 7,8 C 8,3 C 84 % 1023,2 hPa 0,0 l/m 6,4 km/h (2 Bft) W 270 0 min 0,8 UV-I 214 W/m 5,3 C 7,8 C 11,3 km/h (2 Bft)
28.05.2022 07:39 7,9 C 8,3 C 84 % 1023,2 hPa 0,0 l/m 6,4 km/h (2 Bft) W 270 0 min 0,8 UV-I 216 W/m 5,4 C 7,9 C 11,3 km/h (2 Bft)
28.05.2022 07:40 8,1 C 8,3 C 83 % 1023,1 hPa 0,0 l/m 8,0 km/h (2 Bft) W 270 0 min 0,9 UV-I 221 W/m 5,4 C 6,9 C 14,5 km/h (3 Bft)
28.05.2022 07:41 8,3 C 8,3 C 83 % 1023,2 hPa 0,0 l/m 3,2 km/h (1 Bft) W-NW 292 0 min 0,9 UV-I 227 W/m 5,6 C 8,3 C 14,5 km/h (3 Bft)
28.05.2022 07:42 8,4 C 8,9 C 83 % 1023,2 hPa 0,0 l/m 3,2 km/h (1 Bft) W-NW 292 0 min 0,9 UV-I 230 W/m 5,7 C 8,4 C 6,4 km/h (2 Bft)
28.05.2022 07:43 8,6 C 8,9 C 83 % 1023,2 hPa 0,0 l/m 6,4 km/h (2 Bft) N-NW 337 0 min 0,9 UV-I 234 W/m 5,9 C 8,6 C 14,5 km/h (3 Bft)
28.05.2022 07:44 8,7 C 8,9 C 82 % 1023,2 hPa 0,0 l/m 3,2 km/h (1 Bft) SW 225 0 min 0,9 UV-I 239 W/m 5,8 C 8,7 C 6,4 km/h (2 Bft)
28.05.2022 07:45 8,8 C 8,9 C 81 % 1023,2 hPa 0,0 l/m 4,8 km/h (1 Bft) NW 315 0 min 1,0 UV-I 244 W/m 5,7 C 8,8 C 6,4 km/h (2 Bft)
28.05.2022 07:46 9,0 C 8,9 C 81 % 1023,2 hPa 0,0 l/m 1,6 km/h (1 Bft) NW 315 0 min 1,0 UV-I 253 W/m 5,9 C 9,0 C 3,2 km/h (1 Bft)
28.05.2022 07:47 9,1 C 9,4 C 81 % 1023,2 hPa 0,0 l/m 0,0 km/h (0 Bft) NW 315 0 min 1,0 UV-I 252 W/m 6,0 C 9,1 C 3,2 km/h (1 Bft)
28.05.2022 07:48 9,2 C 9,4 C 81 % 1023,2 hPa 0,0 l/m 1,6 km/h (1 Bft) NW 315 0 min 1,0 UV-I 250 W/m 6,1 C 9,2 C 4,8 km/h (1 Bft)
28.05.2022 07:49 9,3 C 9,4 C 81 % 1023,2 hPa 0,0 l/m 12,9 km/h (3 Bft) W-NW 292 0 min 1,0 UV-I 250 W/m 6,2 C 5,3 C 16,1 km/h (3 Bft)
28.05.2022 07:50 9,3 C 9,4 C 80 % 1023,2 hPa 0,0 l/m 6,4 km/h (2 Bft) NW 315 0 min 1,0 UV-I 253 W/m 6,0 C 9,3 C 16,1 km/h (3 Bft)
28.05.2022 07:51 9,4 C 9,4 C 80 % 1023,2 hPa 0,0 l/m 8,0 km/h (2 Bft) W-SW 247 0 min 1,0 UV-I 253 W/m 6,1 C 8,2 C 12,9 km/h (3 Bft)
28.05.2022 07:52 9,4 C 9,4 C 79 % 1023,2 hPa 0,0 l/m 3,2 km/h (1 Bft) O-NO 67 0 min 1,0 UV-I 258 W/m 5,9 C 9,4 C 4,8 km/h (1 Bft)
28.05.2022 07:53 9,5 C 10,0 C 79 % 1023,3 hPa 0,0 l/m 6,4 km/h (2 Bft) W-NW 292 0 min 1,1 UV-I 265 W/m 6,0 C 9,5 C 9,7 km/h (2 Bft)
28.05.2022 07:54 9,4 C 10,0 C 79 % 1023,2 hPa 0,0 l/m 4,8 km/h (1 Bft) N-NO 22 0 min 1,1 UV-I 243 W/m 5,9 C 9,4 C 8,0 km/h (2 Bft)
28.05.2022 07:55 9,6 C 10,0 C 79 % 1023,2 hPa 0,0 l/m 6,4 km/h (2 Bft) W-NW 292 0 min 1,1 UV-I 322 W/m 6,1 C 9,6 C 16,1 km/h (3 Bft)
28.05.2022 07:56 9,6 C 10,6 C 79 % 1023,2 hPa 0,0 l/m 4,8 km/h (1 Bft) SW 225 0 min 0,8 UV-I 322 W/m 6,1 C 9,6 C 11,3 km/h (2 Bft)
28.05.2022 07:57 9,6 C 10,6 C 79 % 1023,2 hPa 0,0 l/m 8,0 km/h (2 Bft) SW 225 0 min 0,8 UV-I 322 W/m 6,1 C 8,4 C 11,3 km/h (2 Bft)
28.05.2022 07:58 9,6 C 10,6 C 79 % 1023,3 hPa 0,0 l/m 9,7 km/h (2 Bft) SW 225 0 min 0,9 UV-I 322 W/m 6,1 C 7,3 C 19,3 km/h (3 Bft)
28.05.2022 07:59 9,6 C 10,0 C 79 % 1023,3 hPa 0,0 l/m 4,8 km/h (1 Bft) N-NO 22 0 min 1,0 UV-I 256 W/m 6,1 C 9,6 C 17,7 km/h (3 Bft)
28.05.2022 08:00 9,6 C 10,6 C 79 % 1023,2 hPa 0,0 l/m 4,8 km/h (1 Bft) W 270 0 min 1,2 UV-I 304 W/m 6,1 C 9,6 C 6,4 km/h (2 Bft)
28.05.2022 08:01 9,6 C 10,6 C 79 % 1023,2 hPa 0,0 l/m 6,4 km/h (2 Bft) W 270 0 min 1,2 UV-I 323 W/m 6,1 C 9,6 C 11,3 km/h (2 Bft)
28.05.2022 08:02 9,7 C 10,6 C 78 % 1023,3 hPa 0,0 l/m 8,0 km/h (2 Bft) NW 315 1 min 1,2 UV-I 352 W/m 6,1 C 8,5 C 16,1 km/h (3 Bft)
28.05.2022 08:03 9,7 C 11,1 C 78 % 1023,3 hPa 0,0 l/m 4,8 km/h (1 Bft) W 270 1 min 1,3 UV-I 374 W/m 6,1 C 9,7 C 6,4 km/h (2 Bft)
28.05.2022 08:04 9,8 C 11,1 C 79 % 1023,2 hPa 0,0 l/m 3,2 km/h (1 Bft) W-NW 292 0 min 1,2 UV-I 323 W/m 6,3 C 9,8 C 9,7 km/h (2 Bft)
28.05.2022 08:05 9,8 C 11,1 C 79 % 1023,3 hPa 0,0 l/m 14,5 km/h (3 Bft) W-SW 247 0 min 1,1 UV-I 261 W/m 6,3 C 5,1 C 20,9 km/h (4 Bft)
28.05.2022 08:06 9,8 C 10,6 C 78 % 1023,2 hPa 0,0 l/m 8,0 km/h (2 Bft) W-SW 247 0 min 1,0 UV-I 246 W/m 6,1 C 8,6 C 16,1 km/h (3 Bft)
28.05.2022 08:07 9,8 C 10,6 C 78 % 1023,1 hPa 0,0 l/m 9,7 km/h (2 Bft) W 270 0 min 1,3 UV-I 246 W/m 6,1 C 7,6 C 20,9 km/h (4 Bft)
28.05.2022 08:08 9,8 C 10,6 C 78 % 1023,2 hPa 0,0 l/m 3,2 km/h (1 Bft) SW 225 0 min 0,9 UV-I 246 W/m 6,1 C 9,8 C 11,3 km/h (2 Bft)
28.05.2022 08:09 9,8 C 10,6 C 78 % 1023,2 hPa 0,0 l/m 4,8 km/h (1 Bft) W-NW 292 0 min 1,3 UV-I 246 W/m 6,1 C 9,8 C 8,0 km/h (2 Bft)
28.05.2022 08:10 9,8 C 10,6 C 78 % 1023,1 hPa 0,0 l/m 3,2 km/h (1 Bft) W-SW 247 1 min 1,4 UV-I 371 W/m 6,1 C 9,8 C 6,4 km/h (2 Bft)
28.05.2022 08:11 9,8 C 10,6 C 78 % 1023,1 hPa 0,0 l/m 8,0 km/h (2 Bft) W-SW 247 1 min 1,4 UV-I 354 W/m 6,1 C 8,6 C 11,3 km/h (2 Bft)
28.05.2022 08:12 9,9 C 10,6 C 78 % 1023,2 hPa 0,0 l/m 8,0 km/h (2 Bft) W 270 0 min 1,4 UV-I 338 W/m 6,2 C 8,7 C 11,3 km/h (2 Bft)
28.05.2022 08:13 10,0 C 10,6 C 79 % 1023,2 hPa 0,0 l/m 9,7 km/h (2 Bft) W 270 0 min 1,3 UV-I 338 W/m 6,5 C 7,8 C 14,5 km/h (3 Bft)
28.05.2022 08:14 10,1 C 11,1 C 78 % 1023,2 hPa 0,0 l/m 8,0 km/h (2 Bft) W-SW 247 0 min 1,4 UV-I 336 W/m 6,4 C 9,0 C 16,1 km/h (3 Bft)
28.05.2022 08:15 10,1 C 11,1 C 77 % 1023,1 hPa 0,0 l/m 12,9 km/h (3 Bft) W 270 1 min 1,4 UV-I 345 W/m 6,3 C 6,2 C 19,3 km/h (3 Bft)
28.05.2022 08:16 10,1 C 10,6 C 77 % 1023,0 hPa 0,0 l/m 6,4 km/h (2 Bft) SW 225 1 min 1,0 UV-I 345 W/m 6,3 C 10,1 C 12,9 km/h (3 Bft)
28.05.2022 08:17 10,0 C 10,6 C 78 % 1023,1 hPa 0,0 l/m 4,8 km/h (1 Bft) SW 225 1 min 1,4 UV-I 364 W/m 6,3 C 10,0 C 9,7 km/h (2 Bft)
28.05.2022 08:18 10,1 C 10,6 C 78 % 1023,1 hPa 0,0 l/m 11,3 km/h (2 Bft) W 270 1 min 1,5 UV-I 362 W/m 6,4 C 7,0 C 17,7 km/h (3 Bft)
28.05.2022 08:19 10,1 C 10,6 C 78 % 1023,1 hPa 0,0 l/m 11,3 km/h (2 Bft) W 270 1 min 1,5 UV-I 380 W/m 6,4 C 7,0 C 20,9 km/h (4 Bft)
28.05.2022 08:20 10,1 C 11,1 C 78 % 1023,2 hPa 0,0 l/m 3,2 km/h (1 Bft) W-SW 247 1 min 1,5 UV-I 387 W/m 6,4 C 10,1 C 4,8 km/h (1 Bft)
28.05.2022 08:21 10,2 C 11,1 C 78 % 1023,2 hPa 0,0 l/m 4,8 km/h (1 Bft) W 270 1 min 1,5 UV-I 374 W/m 6,5 C 10,2 C 11,3 km/h (2 Bft)
28.05.2022 08:22 10,2 C 11,1 C 78 % 1023,1 hPa 0,0 l/m 14,5 km/h (3 Bft) W 270 1 min 1,5 UV-I 361 W/m 6,5 C 5,6 C 25,7 km/h (4 Bft)
28.05.2022 08:23 10,3 C 11,1 C 77 % 1023,1 hPa 0,0 l/m 14,5 km/h (3 Bft) W-SW 247 1 min 1,5 UV-I 381 W/m 6,4 C 5,7 C 25,7 km/h (4 Bft)
28.05.2022 08:26 10,3 C 11,1 C 77 % 1023,3 hPa 0,0 l/m 8,1 km/h (2 Bft) W 268 3 min 1,7 UV-I 493 W/m 6,4 C 9,1 C 16,1 km/h (3 Bft)
28.05.2022 08:28 10,5 C 11,7 C 76 % 1023,2 hPa 0,0 l/m 9,4 km/h (2 Bft) S-SW 212 2 min 1,5 UV-I 428 W/m 6,5 C 8,5 C 16,1 km/h (3 Bft)
28.05.2022 08:30 10,7 C 11,7 C 76 % 1023,1 hPa 0,0 l/m 13,8 km/h (3 Bft) W-NW 302 2 min 1,7 UV-I 437 W/m 6,6 C 6,5 C 25,7 km/h (4 Bft)
28.05.2022 08:32 10,7 C 11,7 C 75 % 1023,2 hPa 0,0 l/m 12,4 km/h (3 Bft) W 273 0 min 1,5 UV-I 320 W/m 6,5 C 7,1 C 22,5 km/h (4 Bft)
28.05.2022 08:34 10,6 C 11,1 C 75 % 1023,2 hPa 0,0 l/m 12,7 km/h (3 Bft) W 273 0 min 1,6 UV-I 314 W/m 6,4 C 6,9 C 20,9 km/h (4 Bft)
28.05.2022 08:36 10,6 C 11,7 C 75 % 1023,2 hPa 0,0 l/m 7,5 km/h (2 Bft) SW 224 2 min 1,7 UV-I 396 W/m 6,4 C 9,8 C 19,3 km/h (3 Bft)
28.05.2022 08:38 10,7 C 11,7 C 75 % 1023,2 hPa 0,0 l/m 8,1 km/h (2 Bft) W 274 2 min 1,7 UV-I 427 W/m 6,5 C 9,5 C 14,5 km/h (3 Bft)
28.05.2022 08:40 10,8 C 12,2 C 75 % 1023,2 hPa 0,0 l/m 6,8 km/h (2 Bft) SW 225 2 min 1,8 UV-I 446 W/m 6,5 C 10,5 C 12,9 km/h (3 Bft)
28.05.2022 08:42 10,9 C 11,7 C 75 % 1023,1 hPa 0,0 l/m 10,5 km/h (2 Bft) NW 306 2 min 1,7 UV-I 440 W/m 6,6 C 8,3 C 16,1 km/h (3 Bft)
28.05.2022 08:44 10,7 C 11,1 C 74 % 1023,1 hPa 0,0 l/m 13,4 km/h (3 Bft) W-SW 254 2 min 1,4 UV-I 436 W/m 6,3 C 6,7 C 17,7 km/h (3 Bft)
28.05.2022 08:46 10,6 C 11,1 C 74 % 1023,2 hPa 0,0 l/m 8,5 km/h (2 Bft) W-NW 299 2 min 1,9 UV-I 439 W/m 6,2 C 9,2 C 14,5 km/h (3 Bft)
28.05.2022 08:48 10,6 C 11,1 C 75 % 1023,2 hPa 0,0 l/m 9,9 km/h (2 Bft) W-SW 258 2 min 1,8 UV-I 443 W/m 6,4 C 8,3 C 16,1 km/h (3 Bft)
28.05.2022 08:50 10,6 C 11,1 C 74 % 1023,2 hPa 0,0 l/m 10,6 km/h (2 Bft) W-SW 238 0 min 1,3 UV-I 312 W/m 6,2 C 7,9 C 17,7 km/h (3 Bft)
28.05.2022 08:52 10,5 C 11,7 C 74 % 1023,2 hPa 0,0 l/m 11,0 km/h (2 Bft) W 277 0 min 1,9 UV-I 93 W/m 6,1 C 7,6 C 19,3 km/h (3 Bft)
28.05.2022 08:54 10,4 C 11,1 C 74 % 1023,2 hPa 0,0 l/m 11,7 km/h (2 Bft) W 267 0 min 1,3 UV-I 100 W/m 6,0 C 7,1 C 20,9 km/h (4 Bft)
28.05.2022 08:56 10,4 C 11,1 C 75 % 1023,2 hPa 0,0 l/m 8,5 km/h (2 Bft) W-NW 288 2 min 2,0 UV-I 392 W/m 6,2 C 8,9 C 17,7 km/h (3 Bft)
28.05.2022 08:58 10,6 C 11,7 C 74 % 1023,1 hPa 0,0 l/m 7,9 km/h (2 Bft) NW 306 2 min 1,7 UV-I 457 W/m 6,2 C 9,5 C 19,3 km/h (3 Bft)
28.05.2022 09:00 10,7 C 12,2 C 75 % 1023,1 hPa 0,0 l/m 6,7 km/h (2 Bft) W-NW 285 0 min 2,1 UV-I 244 W/m 6,5 C 10,5 C 12,9 km/h (3 Bft)
28.05.2022 09:02 11,1 C 12,8 C 73 % 1023,1 hPa 0,0 l/m 5,6 km/h (1 Bft) NW 308 2 min 2,3 UV-I 584 W/m 6,4 C 11,1 C 12,9 km/h (3 Bft)
28.05.2022 09:04 11,3 C 13,3 C 72 % 1023,1 hPa 0,0 l/m 11,2 km/h (2 Bft) W-SW 242 2 min 1,9 UV-I 606 W/m 6,4 C 8,4 C 19,3 km/h (3 Bft)
28.05.2022 09:06 11,3 C 13,3 C 71 % 1022,9 hPa 0,0 l/m 9,5 km/h (2 Bft) NW 306 2 min 1,7 UV-I 484 W/m 6,2 C 9,3 C 19,3 km/h (3 Bft)
28.05.2022 09:08 11,2 C 12,8 C 72 % 1023,1 hPa 0,0 l/m 9,4 km/h (2 Bft) W 275 0 min 1,7 UV-I 217 W/m 6,3 C 9,3 C 20,9 km/h (4 Bft)
28.05.2022 09:10 11,2 C 12,8 C 70 % 1023,1 hPa 0,0 l/m 3,8 km/h (1 Bft) O-NO 78 2 min 2,3 UV-I 570 W/m 5,9 C 11,2 C 9,7 km/h (2 Bft)
28.05.2022 09:12 11,3 C 12,8 C 71 % 1023,0 hPa 0,0 l/m 4,0 km/h (1 Bft) W 276 2 min 1,5 UV-I 570 W/m 6,2 C 11,3 C 9,7 km/h (2 Bft)
28.05.2022 09:14 11,2 C 12,2 C 70 % 1023,0 hPa 0,0 l/m 7,5 km/h (2 Bft) NW 320 2 min 1,4 UV-I 381 W/m 5,9 C 10,4 C 16,1 km/h (3 Bft)
28.05.2022 09:16 11,0 C 12,2 C 71 % 1023,1 hPa 0,0 l/m 7,5 km/h (2 Bft) W 259 0 min 1,3 UV-I 145 W/m 5,9 C 10,2 C 14,5 km/h (3 Bft)
28.05.2022 09:18 10,8 C 11,7 C 70 % 1023,0 hPa 0,0 l/m 5,5 km/h (1 Bft) W 274 0 min 1,6 UV-I 205 W/m 5,6 C 10,8 C 9,7 km/h (2 Bft)
28.05.2022 09:20 10,8 C 12,2 C 72 % 1023,1 hPa 0,0 l/m 1,8 km/h (1 Bft) W 277 0 min 1,4 UV-I 203 W/m 6,0 C 10,8 C 3,2 km/h (1 Bft)
28.05.2022 09:22 10,8 C 12,8 C 72 % 1023,0 hPa 0,0 l/m 5,3 km/h (1 Bft) W-SW 256 0 min 1,3 UV-I 197 W/m 6,0 C 10,8 C 14,5 km/h (3 Bft)
28.05.2022 09:24 10,8 C 12,8 C 71 % 1023,1 hPa 0,0 l/m 7,5 km/h (2 Bft) N-NW 346 0 min 1,3 UV-I 214 W/m 5,8 C 10,0 C 16,1 km/h (3 Bft)
28.05.2022 09:26 10,9 C 12,8 C 72 % 1023,1 hPa 0,0 l/m 5,5 km/h (1 Bft) NW 325 0 min 1,7 UV-I 240 W/m 6,1 C 10,9 C 14,5 km/h (3 Bft)
28.05.2022 09:28 10,9 C 12,8 C 71 % 1023,0 hPa 0,0 l/m 4,5 km/h (1 Bft) SW 215 0 min 1,4 UV-I 195 W/m 5,9 C 10,9 C 11,3 km/h (2 Bft)
28.05.2022 09:30 10,8 C 12,2 C 71 % 1023,0 hPa 0,0 l/m 7,7 km/h (2 Bft) W 264 0 min 1,4 UV-I 147 W/m 5,8 C 9,9 C 17,7 km/h (3 Bft)
28.05.2022 09:32 10,7 C 12,2 C 70 % 1023,2 hPa 0,0 l/m 9,5 km/h (2 Bft) N-NW 337 0 min 2,0 UV-I 133 W/m 5,5 C 8,7 C 16,1 km/h (3 Bft)
28.05.2022 09:34 10,8 C 12,2 C 71 % 1023,1 hPa 0,0 l/m 10,3 km/h (2 Bft) N-NW 327 0 min 1,8 UV-I 214 W/m 5,8 C 8,3 C 24,1 km/h (4 Bft)
28.05.2022 09:36 11,1 C 12,8 C 70 % 1023,0 hPa 0,0 l/m 7,9 km/h (2 Bft) W-NW 293 2 min 2,6 UV-I 626 W/m 5,8 C 10,1 C 14,5 km/h (3 Bft)
28.05.2022 09:38 11,4 C 13,3 C 71 % 1023,0 hPa 0,0 l/m 2,2 km/h (1 Bft) W-SW 240 2 min 2,3 UV-I 631 W/m 6,3 C 11,4 C 4,8 km/h (1 Bft)
28.05.2022 09:40 11,7 C 13,9 C 71 % 1023,1 hPa 0,0 l/m 10,8 km/h (2 Bft) NW 306 2 min 2,4 UV-I 541 W/m 6,6 C 9,1 C 25,7 km/h (4 Bft)
28.05.2022 09:42 11,7 C 13,9 C 67 % 1023,0 hPa 0,0 l/m 13,8 km/h (3 Bft) N-NW 331 2 min 2,7 UV-I 482 W/m 5,8 C 7,7 C 22,5 km/h (4 Bft)
28.05.2022 09:44 11,6 C 13,3 C 67 % 1023,0 hPa 0,0 l/m 19,3 km/h (3 Bft) NW 304 2 min 2,1 UV-I 380 W/m 5,7 C 5,6 C 29,0 km/h (5 Bft)
28.05.2022 09:46 11,5 C 13,3 C 67 % 1023,0 hPa 0,0 l/m 18,2 km/h (3 Bft) N-NW 342 2 min 3,4 UV-I 371 W/m 5,6 C 5,8 C 25,7 km/h (4 Bft)
28.05.2022 09:48 11,7 C 13,9 C 67 % 1023,1 hPa 0,0 l/m 13,8 km/h (3 Bft) N-NW 336 2 min 3,1 UV-I 678 W/m 5,8 C 7,7 C 22,5 km/h (4 Bft)
28.05.2022 09:50 11,9 C 14,4 C 68 % 1023,0 hPa 0,0 l/m 9,8 km/h (2 Bft) W-NW 290 2 min 3,3 UV-I 676 W/m 6,2 C 9,8 C 24,1 km/h (4 Bft)
28.05.2022 09:52 12,2 C 14,4 C 68 % 1023,1 hPa 0,0 l/m 7,6 km/h (2 Bft) N-NW 334 2 min 3,1 UV-I 658 W/m 6,5 C 11,4 C 19,3 km/h (3 Bft)
28.05.2022 09:54 12,4 C 15,0 C 69 % 1023,0 hPa 0,0 l/m 10,1 km/h (2 Bft) N-NO 17 2 min 3,1 UV-I 625 W/m 6,9 C 10,2 C 17,7 km/h (3 Bft)
28.05.2022 09:56 12,6 C 15,0 C 68 % 1023,0 hPa 0,0 l/m 12,3 km/h (3 Bft) N-NW 329 2 min 2,6 UV-I 617 W/m 6,9 C 9,4 C 19,3 km/h (3 Bft)
28.05.2022 09:58 12,5 C 15,0 C 68 % 1023,0 hPa 0,0 l/m 6,5 km/h (2 Bft) SW 224 2 min 3,1 UV-I 616 W/m 6,8 C 12,5 C 12,9 km/h (3 Bft)
28.05.2022 10:00 12,3 C 14,4 C 64 % 1023,1 hPa 0,0 l/m 9,8 km/h (2 Bft) W 279 0 min 1,7 UV-I 291 W/m 5,7 C 10,2 C 17,7 km/h (3 Bft)
28.05.2022 10:02 11,8 C 13,3 C 64 % 1023,0 hPa 0,0 l/m 12,2 km/h (2 Bft) W-NW 288 0 min 1,8 UV-I 238 W/m 5,2 C 8,5 C 24,1 km/h (4 Bft)
28.05.2022 10:04 11,5 C 12,8 C 64 % 1023,1 hPa 0,0 l/m 10,9 km/h (2 Bft) SW 217 0 min 2,2 UV-I 211 W/m 4,9 C 8,8 C 24,1 km/h (4 Bft)
28.05.2022 10:06 11,2 C 12,8 C 65 % 1023,0 hPa 0,0 l/m 7,8 km/h (2 Bft) W-SW 249 0 min 1,7 UV-I 199 W/m 4,9 C 10,2 C 17,7 km/h (3 Bft)
28.05.2022 10:08 11,1 C 12,8 C 66 % 1023,0 hPa 0,0 l/m 7,8 km/h (2 Bft) N 10 0 min 1,8 UV-I 198 W/m 5,0 C 10,1 C 19,3 km/h (3 Bft)
28.05.2022 10:10 11,0 C 12,2 C 66 % 1023,0 hPa 0,0 l/m 10,7 km/h (2 Bft) N-NW 339 0 min 1,9 UV-I 226 W/m 4,9 C 8,3 C 19,3 km/h (3 Bft)
28.05.2022 10:12 10,9 C 12,8 C 68 % 1023,1 hPa 0,0 l/m 7,7 km/h (2 Bft) NW 315 0 min 1,9 UV-I 229 W/m 5,2 C 10,0 C 14,5 km/h (3 Bft)
28.05.2022 10:14 11,2 C 13,3 C 68 % 1022,9 hPa 0,0 l/m 12,3 km/h (3 Bft) NW 325 0 min 2,9 UV-I 308 W/m 5,5 C 7,8 C 19,3 km/h (3 Bft)
28.05.2022 10:16 11,7 C 15,0 C 68 % 1022,9 hPa 0,0 l/m 7,8 km/h (2 Bft) N 5 2 min 3,9 UV-I 759 W/m 6,0 C 10,8 C 14,5 km/h (3 Bft)
28.05.2022 10:18 12,3 C 15,6 C 67 % 1022,9 hPa 0,0 l/m 11,7 km/h (2 Bft) N-NW 327 2 min 3,9 UV-I 775 W/m 6,4 C 9,3 C 17,7 km/h (3 Bft)
28.05.2022 10:20 12,4 C 15,6 C 66 % 1023,0 hPa 0,0 l/m 10,8 km/h (2 Bft) W-SW 253 2 min 2,4 UV-I 532 W/m 6,2 C 9,8 C 19,3 km/h (3 Bft)
28.05.2022 10:22 12,3 C 15,0 C 65 % 1023,0 hPa 0,0 l/m 10,1 km/h (2 Bft) SW 229 0 min 3,1 UV-I 308 W/m 5,9 C 10,1 C 20,9 km/h (4 Bft)
28.05.2022 10:24 12,3 C 15,0 C 65 % 1022,9 hPa 0,0 l/m 14,1 km/h (3 Bft) W 277 0 min 2,9 UV-I 308 W/m 5,9 C 8,3 C 24,1 km/h (4 Bft)
28.05.2022 10:26 12,0 C 13,9 C 64 % 1023,0 hPa 0,0 l/m 9,2 km/h (2 Bft) W 276 0 min 2,0 UV-I 212 W/m 5,4 C 10,2 C 16,1 km/h (3 Bft)
28.05.2022 10:28 11,6 C 13,3 C 65 % 1022,9 hPa 0,0 l/m 5,3 km/h (1 Bft) W-NW 298 0 min 1,9 UV-I 194 W/m 5,2 C 11,6 C 12,9 km/h (3 Bft)
28.05.2022 10:30 11,4 C 13,3 C 67 % 1023,0 hPa 0,0 l/m 6,0 km/h (2 Bft) W-NW 284 0 min 2,8 UV-I 211 W/m 5,5 C 11,4 C 14,5 km/h (3 Bft)
28.05.2022 10:32 11,9 C 15,0 C 69 % 1022,9 hPa 0,0 l/m 6,1 km/h (2 Bft) NW 323 2 min 4,2 UV-I 850 W/m 6,4 C 11,9 C 14,5 km/h (3 Bft)
28.05.2022 10:34 12,6 C 16,1 C 66 % 1023,0 hPa 0,0 l/m 9,4 km/h (2 Bft) NW 317 2 min 3,6 UV-I 837 W/m 6,4 C 10,8 C 17,7 km/h (3 Bft)
28.05.2022 10:36 12,6 C 15,6 C 64 % 1023,0 hPa 0,0 l/m 7,1 km/h (2 Bft) NW 316 2 min 1,6 UV-I 527 W/m 6,0 C 12,2 C 12,9 km/h (3 Bft)
28.05.2022 10:38 12,2 C 14,4 C 64 % 1023,0 hPa 0,0 l/m 4,9 km/h (1 Bft) N-NW 331 0 min 1,3 UV-I 192 W/m 5,6 C 12,2 C 11,3 km/h (2 Bft)
28.05.2022 10:40 11,9 C 13,9 C 66 % 1023,0 hPa 0,0 l/m 11,1 km/h (2 Bft) W 263 0 min 1,5 UV-I 222 W/m 5,8 C 9,1 C 19,3 km/h (3 Bft)
28.05.2022 10:42 11,7 C 13,3 C 66 % 1023,0 hPa 0,0 l/m 12,2 km/h (2 Bft) W 273 0 min 1,6 UV-I 254 W/m 5,6 C 8,4 C 20,9 km/h (4 Bft)
28.05.2022 10:44 11,5 C 13,3 C 67 % 1023,0 hPa 0,0 l/m 7,5 km/h (2 Bft) W 261 0 min 1,7 UV-I 235 W/m 5,6 C 10,8 C 14,5 km/h (3 Bft)
28.05.2022 10:46 11,5 C 13,9 C 68 % 1023,2 hPa 0,0 l/m 4,5 km/h (1 Bft) SW 234 0 min 1,7 UV-I 240 W/m 5,8 C 11,5 C 6,4 km/h (2 Bft)
28.05.2022 10:48 11,5 C 13,9 C 68 % 1023,0 hPa 0,0 l/m 7,8 km/h (2 Bft) N-NO 32 0 min 1,9 UV-I 267 W/m 5,8 C 10,6 C 20,9 km/h (4 Bft)
28.05.2022 10:50 11,4 C 13,9 C 66 % 1023,1 hPa 0,0 l/m 10,7 km/h (2 Bft) N-NW 331 0 min 2,0 UV-I 289 W/m 5,3 C 8,8 C 20,9 km/h (4 Bft)
28.05.2022 10:52 11,3 C 13,3 C 67 % 1023,0 hPa 0,0 l/m 12,8 km/h (3 Bft) S 188 0 min 1,8 UV-I 269 W/m 5,4 C 7,6 C 20,9 km/h (4 Bft)
28.05.2022 10:54 11,2 C 13,3 C 67 % 1023,0 hPa 0,0 l/m 9,1 km/h (2 Bft) N-NW 334 0 min 1,6 UV-I 225 W/m 5,3 C 9,4 C 19,3 km/h (3 Bft)
28.05.2022 10:56 11,1 C 12,8 C 68 % 1023,1 hPa 0,0 l/m 10,5 km/h (2 Bft) SW 235 0 min 1,7 UV-I 205 W/m 5,4 C 8,5 C 22,5 km/h (4 Bft)
28.05.2022 10:58 11,1 C 12,8 C 67 % 1023,0 hPa 0,0 l/m 5,9 km/h (2 Bft) W-NW 296 0 min 1,9 UV-I 188 W/m 5,2 C 11,1 C 16,1 km/h (3 Bft)
28.05.2022 11:00 11,0 C 13,9 C 67 % 1023,0 hPa 0,0 l/m 9,9 km/h (2 Bft) W-NW 294 0 min 3,0 UV-I 216 W/m 5,1 C 8,8 C 17,7 km/h (3 Bft)
28.05.2022 11:02 11,6 C 15,0 C 68 % 1022,9 hPa 0,0 l/m 7,8 km/h (2 Bft) NW 314 2 min 4,8 UV-I 888 W/m 5,9 C 10,7 C 14,5 km/h (3 Bft)
28.05.2022 11:04 12,4 C 17,2 C 70 % 1022,8 hPa 0,0 l/m 3,2 km/h (1 Bft) N-NW 344 2 min 4,3 UV-I 939 W/m 7,1 C 12,4 C 6,4 km/h (2 Bft)
28.05.2022 11:06 12,8 C 17,8 C 66 % 1023,0 hPa 0,0 l/m 9,4 km/h (2 Bft) NW 306 2 min 3,7 UV-I 939 W/m 6,6 C 11,0 C 17,7 km/h (3 Bft)
28.05.2022 11:08 12,8 C 17,2 C 67 % 1022,9 hPa 0,0 l/m 6,5 km/h (2 Bft) W-NW 293 2 min 3,4 UV-I 808 W/m 6,8 C 12,8 C 12,9 km/h (3 Bft)
28.05.2022 11:10 12,6 C 15,6 C 65 % 1022,9 hPa 0,0 l/m 6,8 km/h (2 Bft) N-NW 335 0 min 2,1 UV-I 242 W/m 6,2 C 12,4 C 17,7 km/h (3 Bft)
28.05.2022 11:12 12,2 C 15,0 C 65 % 1023,0 hPa 0,0 l/m 9,3 km/h (2 Bft) N 355 0 min 2,6 UV-I 260 W/m 5,8 C 10,4 C 27,4 km/h (4 Bft)
28.05.2022 11:14 12,3 C 16,7 C 64 % 1023,0 hPa 0,0 l/m 19,5 km/h (3 Bft) NW 323 2 min 4,4 UV-I 508 W/m 5,7 C 6,4 C 25,7 km/h (4 Bft)
28.05.2022 11:16 12,5 C 17,2 C 65 % 1023,0 hPa 0,0 l/m 14,7 km/h (3 Bft) N 5 2 min 4,9 UV-I 815 W/m 6,1 C 8,3 C 22,5 km/h (4 Bft)
28.05.2022 11:18 12,8 C 18,9 C 64 % 1022,9 hPa 0,0 l/m 13,2 km/h (3 Bft) N-NW 342 2 min 5,2 UV-I 945 W/m 6,2 C 9,2 C 22,5 km/h (4 Bft)
28.05.2022 11:20 13,1 C 19,4 C 65 % 1022,9 hPa 0,0 l/m 10,3 km/h (2 Bft) N 355 2 min 5,1 UV-I 984 W/m 6,7 C 10,9 C 24,1 km/h (4 Bft)
28.05.2022 11:22 13,4 C 20,6 C 67 % 1022,8 hPa 0,0 l/m 10,8 km/h (2 Bft) N-NW 347 2 min 5,4 UV-I 1054 W/m 7,4 C 11,0 C 19,3 km/h (3 Bft)
28.05.2022 11:24 13,5 C 19,4 C 62 % 1022,9 hPa 0,0 l/m 13,6 km/h (3 Bft) NW 304 2 min 3,3 UV-I 983 W/m 6,4 C 9,9 C 19,3 km/h (3 Bft)
28.05.2022 11:26 13,1 C 17,2 C 64 % 1022,9 hPa 0,0 l/m 12,7 km/h (3 Bft) W-NW 290 0 min 2,5 UV-I 321 W/m 6,4 C 9,8 C 25,7 km/h (4 Bft)
28.05.2022 11:28 12,8 C 15,6 C 63 % 1022,9 hPa 0,0 l/m 15,1 km/h (3 Bft) NW 305 0 min 2,2 UV-I 240 W/m 5,9 C 8,5 C 29,0 km/h (5 Bft)
28.05.2022 11:30 12,2 C 14,4 C 61 % 1022,9 hPa 0,0 l/m 15,7 km/h (3 Bft) W-SW 250 0 min 2,5 UV-I 237 W/m 4,9 C 7,5 C 24,1 km/h (4 Bft)
28.05.2022 11:32 12,1 C 15,0 C 65 % 1022,9 hPa 0,0 l/m 6,0 km/h (2 Bft) N-NW 340 0 min 4,2 UV-I 267 W/m 5,7 C 12,1 C 17,7 km/h (3 Bft)
28.05.2022 11:34 12,4 C 16,1 C 63 % 1022,9 hPa 0,0 l/m 12,6 km/h (3 Bft) N-NW 347 0 min 4,3 UV-I 267 W/m 5,6 C 9,0 C 24,1 km/h (4 Bft)
28.05.2022 11:36 12,7 C 17,2 C 64 % 1023,0 hPa 0,0 l/m 11,9 km/h (2 Bft) W-NW 283 0 min 4,1 UV-I 267 W/m 6,1 C 9,7 C 24,1 km/h (4 Bft)
28.05.2022 11:38 12,8 C 16,1 C 64 % 1023,0 hPa 0,0 l/m 8,2 km/h (2 Bft) W 269 0 min 3,0 UV-I 273 W/m 6,2 C 11,7 C 22,5 km/h (4 Bft)
28.05.2022 11:40 12,6 C 16,1 C 63 % 1022,9 hPa 0,0 l/m 14,6 km/h (3 Bft) W 265 0 min 4,3 UV-I 298 W/m 5,7 C 8,4 C 24,1 km/h (4 Bft)
28.05.2022 11:42 12,9 C 18,3 C 65 % 1022,9 hPa 0,0 l/m 11,8 km/h (2 Bft) W-NW 286 2 min 5,6 UV-I 1040 W/m 6,5 C 9,9 C 24,1 km/h (4 Bft)
28.05.2022 11:44 13,3 C 18,9 C 65 % 1022,8 hPa 0,0 l/m 15,6 km/h (3 Bft) W 272 2 min 6,0 UV-I 1113 W/m 6,9 C 8,9 C 25,7 km/h (4 Bft)
28.05.2022 11:46 13,6 C 20,0 C 66 % 1022,9 hPa 0,0 l/m 11,6 km/h (2 Bft) NW 306 2 min 5,6 UV-I 811 W/m 7,4 C 10,8 C 19,3 km/h (3 Bft)
28.05.2022 11:48 13,6 C 18,9 C 61 % 1022,8 hPa 0,0 l/m 17,0 km/h (3 Bft) W-NW 293 2 min 3,5 UV-I 813 W/m 6,2 C 8,8 C 29,0 km/h (5 Bft)
28.05.2022 11:50 13,3 C 18,3 C 63 % 1022,8 hPa 0,0 l/m 14,2 km/h (3 Bft) W-NW 282 2 min 4,5 UV-I 816 W/m 6,4 C 9,4 C 22,5 km/h (4 Bft)
28.05.2022 11:52 13,3 C 17,8 C 65 % 1022,8 hPa 0,0 l/m 13,9 km/h (3 Bft) NW 323 2 min 4,5 UV-I 996 W/m 6,9 C 9,5 C 22,5 km/h (4 Bft)
28.05.2022 11:54 13,3 C 18,9 C 64 % 1022,8 hPa 0,0 l/m 13,6 km/h (3 Bft) N 360 2 min 5,6 UV-I 953 W/m 6,6 C 9,7 C 25,7 km/h (4 Bft)
28.05.2022 11:56 13,5 C 19,4 C 65 % 1022,7 hPa 0,0 l/m 9,5 km/h (2 Bft) N-NO 19 2 min 5,1 UV-I 949 W/m 7,1 C 11,7 C 17,7 km/h (3 Bft)
28.05.2022 11:58 13,6 C 20,0 C 65 % 1022,7 hPa 0,0 l/m 12,5 km/h (3 Bft) NW 311 2 min 5,7 UV-I 936 W/m 7,1 C 10,5 C 20,9 km/h (4 Bft)
28.05.2022 12:00 13,9 C 20,6 C 66 % 1022,8 hPa 0,0 l/m 8,2 km/h (2 Bft) W-NW 290 2 min 5,8 UV-I 916 W/m 7,7 C 12,8 C 16,1 km/h (3 Bft)
28.05.2022 12:02 13,9 C 20,6 C 64 % 1022,7 hPa 0,0 l/m 7,1 km/h (2 Bft) W-NW 283 2 min 6,0 UV-I 965 W/m 7,2 C 13,5 C 17,7 km/h (3 Bft)
28.05.2022 12:04 13,9 C 20,6 C 65 % 1022,6 hPa 0,0 l/m 5,3 km/h (1 Bft) NW 311 2 min 5,6 UV-I 1043 W/m 7,4 C 13,9 C 12,9 km/h (3 Bft)
28.05.2022 12:06 14,0 C 21,1 C 62 % 1022,6 hPa 0,0 l/m 6,4 km/h (2 Bft) NW 312 2 min 6,1 UV-I 1062 W/m 6,8 C 14,0 C 12,9 km/h (3 Bft)
28.05.2022 12:08 14,1 C 20,6 C 64 % 1022,5 hPa 0,0 l/m 5,4 km/h (1 Bft) N-NW 342 2 min 3,6 UV-I 1025 W/m 7,4 C 14,1 C 12,9 km/h (3 Bft)
28.05.2022 12:10 13,7 C 18,9 C 59 % 1022,5 hPa 0,0 l/m 7,2 km/h (2 Bft) NW 315 2 min 2,9 UV-I 373 W/m 5,8 C 13,2 C 16,1 km/h (3 Bft)
28.05.2022 12:12 13,6 C 19,4 C 63 % 1022,5 hPa 0,0 l/m 5,9 km/h (2 Bft) W 268 2 min 4,5 UV-I 791 W/m 6,7 C 13,6 C 11,3 km/h (2 Bft)
28.05.2022 12:14 13,7 C 18,9 C 61 % 1022,5 hPa 0,0 l/m 4,8 km/h (1 Bft) NW 306 2 min 3,2 UV-I 563 W/m 6,3 C 13,7 C 11,3 km/h (2 Bft)
28.05.2022 12:16 13,4 C 17,8 C 60 % 1022,6 hPa 0,0 l/m 5,5 km/h (1 Bft) NW 319 0 min 2,4 UV-I 319 W/m 5,8 C 13,4 C 9,7 km/h (2 Bft)
28.05.2022 12:18 13,2 C 17,2 C 62 % 1022,6 hPa 0,0 l/m 5,3 km/h (1 Bft) N-NW 333 0 min 2,0 UV-I 278 W/m 6,1 C 13,2 C 8,0 km/h (2 Bft)
28.05.2022 12:20 12,9 C 16,1 C 61 % 1022,6 hPa 0,0 l/m 14,2 km/h (3 Bft) W 267 0 min 1,6 UV-I 247 W/m 5,6 C 8,9 C 24,1 km/h (4 Bft)
28.05.2022 12:22 12,6 C 14,4 C 60 % 1022,6 hPa 0,0 l/m 12,1 km/h (2 Bft) W-NW 288 0 min 1,3 UV-I 176 W/m 5,0 C 9,5 C 17,7 km/h (3 Bft)
28.05.2022 12:24 12,3 C 13,9 C 63 % 1022,6 hPa 0,0 l/m 11,0 km/h (2 Bft) W-NW 296 0 min 1,3 UV-I 180 W/m 5,5 C 9,6 C 19,3 km/h (3 Bft)
28.05.2022 12:26 12,1 C 13,9 C 64 % 1022,7 hPa 0,0 l/m 13,6 km/h (3 Bft) W 267 0 min 1,4 UV-I 187 W/m 5,5 C 8,2 C 20,9 km/h (4 Bft)
28.05.2022 12:28 11,9 C 13,3 C 65 % 1022,6 hPa 0,0 l/m 11,0 km/h (2 Bft) W 271 0 min 1,6 UV-I 205 W/m 5,5 C 9,2 C 16,1 km/h (3 Bft)
28.05.2022 12:30 11,7 C 12,2 C 68 % 1022,7 hPa 0,0 l/m 13,4 km/h (3 Bft) W-SW 242 0 min 1,9 UV-I 245 W/m 6,0 C 7,8 C 22,5 km/h (4 Bft)
28.05.2022 12:32 11,4 C 12,2 C 69 % 1022,7 hPa 0,0 l/m 11,1 km/h (2 Bft) W-SW 252 0 min 2,2 UV-I 287 W/m 5,9 C 8,6 C 19,3 km/h (3 Bft)
28.05.2022 12:34 11,4 C 12,8 C 71 % 1022,7 hPa 0,0 l/m 9,2 km/h (2 Bft) W-SW 242 0 min 2,4 UV-I 314 W/m 6,3 C 9,6 C 16,1 km/h (3 Bft)
28.05.2022 12:36 11,5 C 13,3 C 71 % 1022,7 hPa 0,0 l/m 10,5 km/h (2 Bft) SW 222 2 min 2,5 UV-I 347 W/m 6,4 C 9,0 C 17,7 km/h (3 Bft)
28.05.2022 12:38 11,5 C 13,9 C 70 % 1022,7 hPa 0,0 l/m 10,4 km/h (2 Bft) W-SW 248 2 min 2,5 UV-I 398 W/m 6,2 C 9,0 C 14,5 km/h (3 Bft)
28.05.2022 12:40 11,6 C 13,9 C 69 % 1022,8 hPa 0,0 l/m 9,0 km/h (2 Bft) W 273 0 min 1,9 UV-I 327 W/m 6,1 C 9,9 C 19,3 km/h (3 Bft)
28.05.2022 12:42 11,5 C 13,3 C 68 % 1022,7 hPa 0,0 l/m 7,6 km/h (2 Bft) W-NW 294 0 min 1,7 UV-I 222 W/m 5,8 C 10,7 C 16,1 km/h (3 Bft)
28.05.2022 12:44 11,4 C 13,3 C 68 % 1022,7 hPa 0,0 l/m 7,1 km/h (2 Bft) W 265 0 min 1,9 UV-I 223 W/m 5,7 C 10,9 C 16,1 km/h (3 Bft)
28.05.2022 12:46 11,4 C 13,3 C 69 % 1022,7 hPa 0,0 l/m 13,2 km/h (3 Bft) W 270 0 min 2,2 UV-I 254 W/m 5,9 C 7,6 C 20,9 km/h (4 Bft)
28.05.2022 12:48 11,4 C 13,3 C 69 % 1022,7 hPa 0,0 l/m 5,8 km/h (2 Bft) W 265 0 min 2,7 UV-I 281 W/m 5,9 C 11,4 C 20,9 km/h (4 Bft)
28.05.2022 12:50 11,8 C 15,6 C 70 % 1022,6 hPa 0,0 l/m 5,9 km/h (2 Bft) W 261 2 min 5,5 UV-I 609 W/m 6,5 C 11,8 C 11,3 km/h (2 Bft)
28.05.2022 12:52 12,7 C 18,9 C 70 % 1022,6 hPa 0,0 l/m 6,5 km/h (2 Bft) N 5 2 min 6,3 UV-I 1084 W/m 7,4 C 12,7 C 17,7 km/h (3 Bft)
28.05.2022 12:54 13,3 C 20,6 C 71 % 1022,6 hPa 0,0 l/m 6,4 km/h (2 Bft) W-NW 287 2 min 6,6 UV-I 1095 W/m 8,2 C 13,3 C 20,9 km/h (4 Bft)
28.05.2022 12:56 13,5 C 21,1 C 66 % 1022,6 hPa 0,0 l/m 11,4 km/h (2 Bft) N-NW 333 2 min 6,7 UV-I 1103 W/m 7,3 C 10,8 C 20,9 km/h (4 Bft)
28.05.2022 12:58 13,9 C 21,7 C 66 % 1022,4 hPa 0,0 l/m 9,5 km/h (2 Bft) W 264 2 min 6,5 UV-I 1107 W/m 7,7 C 12,1 C 16,1 km/h (3 Bft)
28.05.2022 13:00 14,3 C 22,2 C 64 % 1022,4 hPa 0,0 l/m 11,8 km/h (2 Bft) W 272 2 min 6,8 UV-I 1099 W/m 7,6 C 11,5 C 22,5 km/h (4 Bft)
28.05.2022 13:02 14,1 C 20,6 C 62 % 1022,3 hPa 0,0 l/m 11,8 km/h (2 Bft) W-SW 246 2 min 6,8 UV-I 1124 W/m 6,9 C 11,3 C 17,7 km/h (3 Bft)
28.05.2022 13:04 13,9 C 20,0 C 62 % 1022,3 hPa 0,0 l/m 10,6 km/h (2 Bft) W-SW 254 2 min 6,3 UV-I 1121 W/m 6,7 C 11,6 C 20,9 km/h (4 Bft)
28.05.2022 13:06 13,8 C 20,6 C 62 % 1022,2 hPa 0,0 l/m 9,9 km/h (2 Bft) SW 216 2 min 6,2 UV-I 1118 W/m 6,6 C 11,8 C 19,3 km/h (3 Bft)
28.05.2022 13:08 14,1 C 20,0 C 64 % 1022,4 hPa 0,0 l/m 3,3 km/h (1 Bft) NW 313 2 min 4,6 UV-I 1111 W/m 7,4 C 14,1 C 6,4 km/h (2 Bft)
28.05.2022 13:10 13,9 C 19,4 C 65 % 1022,3 hPa 0,0 l/m 4,5 km/h (1 Bft) N 355 2 min 3,3 UV-I 698 W/m 7,4 C 13,9 C 14,5 km/h (3 Bft)
28.05.2022 13:12 13,8 C 19,4 C 60 % 1022,2 hPa 0,0 l/m 13,0 km/h (3 Bft) N-NW 340 2 min 5,3 UV-I 390 W/m 6,2 C 10,5 C 22,5 km/h (4 Bft)
28.05.2022 13:14 14,0 C 20,0 C 61 % 1022,2 hPa 0,0 l/m 11,7 km/h (2 Bft) N-NW 329 2 min 4,9 UV-I 933 W/m 6,6 C 11,2 C 17,7 km/h (3 Bft)
28.05.2022 13:16 13,6 C 17,2 C 63 % 1022,3 hPa 0,0 l/m 10,5 km/h (2 Bft) W-NW 302 0 min 2,0 UV-I 282 W/m 6,7 C 11,3 C 19,3 km/h (3 Bft)
28.05.2022 13:18 13,3 C 16,1 C 62 % 1022,5 hPa 0,0 l/m 5,4 km/h (1 Bft) NW 305 0 min 2,2 UV-I 286 W/m 6,2 C 13,3 C 14,5 km/h (3 Bft)
28.05.2022 13:20 13,1 C 15,6 C 61 % 1022,2 hPa 0,0 l/m 10,7 km/h (2 Bft) W 271 0 min 3,0 UV-I 319 W/m 5,8 C 10,7 C 17,7 km/h (3 Bft)
28.05.2022 13:22 12,9 C 15,6 C 62 % 1022,2 hPa 0,0 l/m 8,9 km/h (2 Bft) W-NW 294 0 min 2,7 UV-I 320 W/m 5,8 C 11,4 C 17,7 km/h (3 Bft)
28.05.2022 13:24 12,8 C 15,0 C 62 % 1022,2 hPa 0,0 l/m 6,1 km/h (2 Bft) W-NW 298 0 min 2,8 UV-I 322 W/m 5,7 C 12,8 C 11,3 km/h (2 Bft)
28.05.2022 13:26 12,8 C 15,6 C 63 % 1022,3 hPa 0,0 l/m 6,1 km/h (2 Bft) W-SW 257 0 min 2,9 UV-I 314 W/m 5,9 C 12,8 C 12,9 km/h (3 Bft)
28.05.2022 13:28 12,8 C 16,1 C 64 % 1022,2 hPa 0,0 l/m 8,7 km/h (2 Bft) NW 306 2 min 5,1 UV-I 446 W/m 6,2 C 11,4 C 22,5 km/h (4 Bft)
28.05.2022 13:30 13,7 C 20,0 C 65 % 1022,1 hPa 0,0 l/m 8,1 km/h (2 Bft) N-NW 346 2 min 7,0 UV-I 1188 W/m 7,2 C 12,7 C 17,7 km/h (3 Bft)
28.05.2022 13:32 14,0 C 20,0 C 62 % 1022,2 hPa 0,0 l/m 10,9 km/h (2 Bft) N-NW 343 2 min 5,6 UV-I 1139 W/m 6,8 C 11,6 C 22,5 km/h (4 Bft)
28.05.2022 13:34 13,7 C 18,3 C 61 % 1022,2 hPa 0,0 l/m 9,9 km/h (2 Bft) NW 316 2 min 4,0 UV-I 433 W/m 6,3 C 11,7 C 19,3 km/h (3 Bft)
28.05.2022 13:36 13,4 C 17,8 C 59 % 1022,2 hPa 0,0 l/m 7,8 km/h (2 Bft) N-NW 347 2 min 3,5 UV-I 398 W/m 5,6 C 12,5 C 16,1 km/h (3 Bft)
28.05.2022 13:38 13,2 C 16,7 C 60 % 1022,1 hPa 0,0 l/m 8,4 km/h (2 Bft) N-NW 327 2 min 3,1 UV-I 345 W/m 5,6 C 12,0 C 16,1 km/h (3 Bft)
28.05.2022 13:40 13,1 C 16,7 C 62 % 1022,1 hPa 0,0 l/m 6,6 km/h (2 Bft) W 265 0 min 3,1 UV-I 302 W/m 6,0 C 13,0 C 16,1 km/h (3 Bft)
28.05.2022 13:42 13,0 C 16,7 C 63 % 1022,0 hPa 0,0 l/m 7,8 km/h (2 Bft) W 276 0 min 3,4 UV-I 276 W/m 6,1 C 12,1 C 20,9 km/h (4 Bft)
28.05.2022 13:44 13,3 C 18,3 C 63 % 1021,9 hPa 0,0 l/m 10,1 km/h (2 Bft) W-NW 300 2 min 6,1 UV-I 615 W/m 6,4 C 11,2 C 16,1 km/h (3 Bft)
28.05.2022 13:46 13,9 C 21,1 C 63 % 1021,9 hPa 0,0 l/m 8,2 km/h (2 Bft) W 271 2 min 6,5 UV-I 998 W/m 7,0 C 12,8 C 20,9 km/h (4 Bft)
28.05.2022 13:48 14,6 C 22,2 C 62 % 1021,9 hPa 0,0 l/m 10,8 km/h (2 Bft) W 261 2 min 5,8 UV-I 1012 W/m 7,4 C 12,3 C 19,3 km/h (3 Bft)
28.05.2022 13:50 14,8 C 22,2 C 59 % 1021,9 hPa 0,0 l/m 11,8 km/h (2 Bft) W 259 2 min 6,6 UV-I 1052 W/m 6,9 C 12,1 C 20,9 km/h (4 Bft)
28.05.2022 13:52 14,7 C 22,2 C 59 % 1021,9 hPa 0,0 l/m 7,8 km/h (2 Bft) W-SW 244 2 min 6,6 UV-I 1095 W/m 6,8 C 13,9 C 17,7 km/h (3 Bft)
28.05.2022 13:54 14,6 C 21,7 C 57 % 1022,0 hPa 0,0 l/m 15,4 km/h (3 Bft) W-SW 244 2 min 6,0 UV-I 1095 W/m 6,2 C 10,6 C 24,1 km/h (4 Bft)
28.05.2022 13:56 14,2 C 19,4 C 59 % 1021,9 hPa 0,0 l/m 9,5 km/h (2 Bft) W-SW 244 2 min 3,4 UV-I 753 W/m 6,3 C 12,5 C 17,7 km/h (3 Bft)
28.05.2022 13:58 14,1 C 18,9 C 61 % 1021,9 hPa 0,0 l/m 10,7 km/h (2 Bft) SW 236 2 min 3,2 UV-I 406 W/m 6,7 C 11,8 C 16,1 km/h (3 Bft)
28.05.2022 14:00 13,8 C 17,2 C 60 % 1021,9 hPa 0,0 l/m 11,9 km/h (2 Bft) W 279 2 min 2,8 UV-I 347 W/m 6,2 C 10,9 C 20,9 km/h (4 Bft)
28.05.2022 14:02 13,5 C 16,1 C 61 % 1021,9 hPa 0,0 l/m 11,3 km/h (2 Bft) W 263 0 min 1,9 UV-I 245 W/m 6,1 C 10,9 C 24,1 km/h (4 Bft)
28.05.2022 14:04 13,1 C 15,0 C 60 % 1022,0 hPa 0,0 l/m 15,2 km/h (3 Bft) W-SW 238 0 min 1,7 UV-I 215 W/m 5,5 C 8,8 C 24,1 km/h (4 Bft)
28.05.2022 14:06 12,7 C 13,9 C 62 % 1021,9 hPa 0,0 l/m 12,8 km/h (3 Bft) W 270 0 min 1,7 UV-I 223 W/m 5,6 C 9,3 C 22,5 km/h (4 Bft)
28.05.2022 14:08 12,4 C 13,9 C 63 % 1021,9 hPa 0,0 l/m 11,3 km/h (2 Bft) W-SW 246 0 min 2,0 UV-I 246 W/m 5,6 C 9,6 C 19,3 km/h (3 Bft)
28.05.2022 14:10 12,3 C 13,9 C 63 % 1021,9 hPa 0,0 l/m 12,3 km/h (3 Bft) W-NW 298 0 min 2,5 UV-I 292 W/m 5,5 C 9,0 C 19,3 km/h (3 Bft)
28.05.2022 14:12 12,4 C 14,4 C 63 % 1021,9 hPa 0,0 l/m 7,5 km/h (2 Bft) W-NW 287 2 min 3,6 UV-I 350 W/m 5,6 C 11,7 C 17,7 km/h (3 Bft)
28.05.2022 14:14 12,9 C 16,1 C 64 % 1021,8 hPa 0,0 l/m 6,0 km/h (2 Bft) W-SW 250 2 min 4,5 UV-I 357 W/m 6,3 C 12,9 C 12,9 km/h (3 Bft)
28.05.2022 14:16 13,2 C 17,8 C 64 % 1021,8 hPa 0,0 l/m 6,6 km/h (2 Bft) NW 326 2 min 3,9 UV-I 357 W/m 6,5 C 13,1 C 14,5 km/h (3 Bft)
28.05.2022 14:18 13,6 C 20,6 C 63 % 1021,8 hPa 0,0 l/m 10,0 km/h (2 Bft) W-SW 254 2 min 6,6 UV-I 639 W/m 6,7 C 11,6 C 22,5 km/h (4 Bft)
28.05.2022 14:20 14,1 C 21,1 C 60 % 1021,7 hPa 0,0 l/m 14,8 km/h (3 Bft) W 268 2 min 6,5 UV-I 1066 W/m 6,5 C 10,2 C 20,9 km/h (4 Bft)
28.05.2022 14:22 14,3 C 21,7 C 60 % 1021,7 hPa 0,0 l/m 10,5 km/h (2 Bft) SW 223 2 min 6,5 UV-I 1033 W/m 6,6 C 12,1 C 17,7 km/h (3 Bft)
28.05.2022 14:24 14,4 C 22,2 C 59 % 1021,6 hPa 0,0 l/m 7,4 km/h (2 Bft) W 270 2 min 6,6 UV-I 1031 W/m 6,5 C 13,8 C 12,9 km/h (3 Bft)
28.05.2022 14:26 14,4 C 22,8 C 60 % 1021,6 hPa 0,0 l/m 9,5 km/h (2 Bft) N-NW 332 2 min 6,7 UV-I 1057 W/m 6,7 C 12,7 C 16,1 km/h (3 Bft)
28.05.2022 14:28 14,6 C 23,3 C 58 % 1021,5 hPa 0,0 l/m 12,7 km/h (3 Bft) W-NW 294 2 min 6,6 UV-I 1099 W/m 6,4 C 11,5 C 22,5 km/h (4 Bft)
28.05.2022 14:30 14,9 C 23,9 C 60 % 1021,7 hPa 0,0 l/m 5,8 km/h (2 Bft) W-NW 301 2 min 6,3 UV-I 1161 W/m 7,2 C 14,9 C 12,9 km/h (3 Bft)
28.05.2022 14:32 14,8 C 23,9 C 58 % 1021,6 hPa 0,0 l/m 10,9 km/h (2 Bft) W 278 2 min 5,4 UV-I 988 W/m 6,6 C 12,5 C 22,5 km/h (4 Bft)
28.05.2022 14:34 14,3 C 20,6 C 59 % 1021,5 hPa 0,0 l/m 10,9 km/h (2 Bft) W-NW 289 2 min 3,6 UV-I 504 W/m 6,4 C 11,9 C 19,3 km/h (3 Bft)
28.05.2022 14:36 13,8 C 17,8 C 59 % 1021,6 hPa 0,0 l/m 9,4 km/h (2 Bft) W-NW 287 0 min 2,4 UV-I 212 W/m 5,9 C 12,1 C 16,1 km/h (3 Bft)
28.05.2022 14:38 13,5 C 16,7 C 61 % 1021,6 hPa 0,0 l/m 4,5 km/h (1 Bft) W-NW 288 0 min 2,4 UV-I 204 W/m 6,1 C 13,5 C 8,0 km/h (2 Bft)
28.05.2022 14:40 13,3 C 16,1 C 59 % 1021,5 hPa 0,0 l/m 9,6 km/h (2 Bft) W 260 0 min 3,2 UV-I 245 W/m 5,5 C 11,4 C 17,7 km/h (3 Bft)
28.05.2022 14:42 13,3 C 17,2 C 59 % 1021,5 hPa 0,0 l/m 9,1 km/h (2 Bft) W-SW 248 0 min 5,1 UV-I 255 W/m 5,5 C 11,7 C 16,1 km/h (3 Bft)
28.05.2022 14:44 13,9 C 20,6 C 58 % 1021,4 hPa 0,0 l/m 3,9 km/h (1 Bft) W-NW 286 2 min 6,3 UV-I 716 W/m 5,8 C 13,9 C 6,4 km/h (2 Bft)
28.05.2022 14:46 14,3 C 21,7 C 54 % 1021,5 hPa 0,0 l/m 5,6 km/h (1 Bft) W-NW 298 2 min 5,1 UV-I 1074 W/m 5,1 C 14,3 C 12,9 km/h (3 Bft)
28.05.2022 14:48 14,4 C 22,8 C 55 % 1021,3 hPa 0,0 l/m 8,6 km/h (2 Bft) W-NW 290 2 min 6,5 UV-I 1086 W/m 5,5 C 13,1 C 17,7 km/h (3 Bft)
28.05.2022 14:50 14,7 C 22,2 C 55 % 1021,4 hPa 0,0 l/m 4,5 km/h (1 Bft) N 5 2 min 3,9 UV-I 1017 W/m 5,8 C 14,7 C 16,1 km/h (3 Bft)
28.05.2022 14:52 14,4 C 21,7 C 54 % 1021,4 hPa 0,0 l/m 13,2 km/h (3 Bft) NW 307 2 min 3,4 UV-I 353 W/m 5,2 C 11,1 C 20,9 km/h (4 Bft)
28.05.2022 14:54 13,9 C 18,3 C 56 % 1021,4 hPa 0,0 l/m 11,2 km/h (2 Bft) N 5 0 min 1,6 UV-I 206 W/m 5,3 C 11,3 C 17,7 km/h (3 Bft)
28.05.2022 14:56 13,7 C 17,2 C 57 % 1021,4 hPa 0,0 l/m 7,5 km/h (2 Bft) N-NO 19 0 min 1,4 UV-I 204 W/m 5,3 C 13,0 C 16,1 km/h (3 Bft)
28.05.2022 14:58 13,4 C 16,1 C 55 % 1021,4 hPa 0,0 l/m 8,7 km/h (2 Bft) W-NW 290 0 min 1,6 UV-I 231 W/m 4,5 C 12,0 C 17,7 km/h (3 Bft)
28.05.2022 15:00 13,3 C 15,6 C 54 % 1021,5 hPa 0,0 l/m 7,3 km/h (2 Bft) W-SW 242 0 min 2,1 UV-I 269 W/m 4,2 C 12,7 C 19,3 km/h (3 Bft)
28.05.2022 15:02 13,2 C 15,6 C 54 % 1021,4 hPa 0,0 l/m 5,0 km/h (1 Bft) W-NW 289 0 min 2,4 UV-I 308 W/m 4,1 C 13,2 C 9,7 km/h (2 Bft)
28.05.2022 15:04 13,2 C 15,6 C 54 % 1021,4 hPa 0,0 l/m 8,7 km/h (2 Bft) W 269 0 min 2,8 UV-I 341 W/m 4,1 C 11,8 C 16,1 km/h (3 Bft)
28.05.2022 15:06 13,2 C 16,7 C 54 % 1021,5 hPa 0,0 l/m 7,1 km/h (2 Bft) W 277 2 min 3,1 UV-I 382 W/m 4,1 C 12,8 C 12,9 km/h (3 Bft)
28.05.2022 15:08 13,6 C 17,8 C 58 % 1021,3 hPa 0,0 l/m 7,3 km/h (2 Bft) NW 319 2 min 4,6 UV-I 1009 W/m 5,5 C 13,0 C 12,9 km/h (3 Bft)
28.05.2022 15:10 13,9 C 18,9 C 57 % 1021,3 hPa 0,0 l/m 5,2 km/h (1 Bft) S-SW 209 2 min 4,1 UV-I 566 W/m 5,5 C 13,9 C 12,9 km/h (3 Bft)
28.05.2022 15:12 13,8 C 17,2 C 55 % 1021,3 hPa 0,0 l/m 10,8 km/h (2 Bft) W 269 2 min 2,9 UV-I 417 W/m 4,9 C 11,4 C 19,3 km/h (3 Bft)
28.05.2022 15:14 13,4 C 16,1 C 54 % 1021,3 hPa 0,0 l/m 6,6 km/h (2 Bft) W-NW 288 0 min 2,0 UV-I 221 W/m 4,3 C 13,3 C 11,3 km/h (2 Bft)
28.05.2022 15:16 13,2 C 15,0 C 55 % 1021,3 hPa 0,0 l/m 11,7 km/h (2 Bft) N-NW 327 0 min 2,1 UV-I 234 W/m 4,4 C 10,3 C 20,9 km/h (4 Bft)
28.05.2022 15:18 13,2 C 15,6 C 55 % 1021,3 hPa 0,0 l/m 11,6 km/h (2 Bft) W 263 0 min 3,4 UV-I 335 W/m 4,4 C 10,4 C 22,5 km/h (4 Bft)
28.05.2022 15:20 13,5 C 18,3 C 55 % 1021,3 hPa 0,0 l/m 7,2 km/h (2 Bft) W-NW 300 2 min 5,0 UV-I 650 W/m 4,6 C 13,0 C 12,9 km/h (3 Bft)
28.05.2022 15:22 13,7 C 17,2 C 53 % 1021,3 hPa 0,0 l/m 7,2 km/h (2 Bft) NW 311 2 min 3,0 UV-I 380 W/m 4,3 C 13,2 C 14,5 km/h (3 Bft)
28.05.2022 15:24 13,4 C 16,1 C 52 % 1021,4 hPa 0,0 l/m 7,2 km/h (2 Bft) S 191 0 min 2,8 UV-I 271 W/m 3,7 C 12,9 C 17,7 km/h (3 Bft)
28.05.2022 15:26 13,7 C 19,4 C 54 % 1021,3 hPa 0,0 l/m 6,7 km/h (2 Bft) N-NO 17 2 min 4,9 UV-I 742 W/m 4,6 C 13,5 C 20,9 km/h (4 Bft)
28.05.2022 15:28 13,9 C 18,9 C 53 % 1021,2 hPa 0,0 l/m 9,5 km/h (2 Bft) N-NW 327 2 min 4,0 UV-I 895 W/m 4,5 C 12,1 C 20,9 km/h (4 Bft)
28.05.2022 15:30 13,9 C 20,6 C 52 % 1021,3 hPa 0,0 l/m 16,2 km/h (3 Bft) W 273 2 min 4,7 UV-I 860 W/m 4,2 C 9,5 C 27,4 km/h (4 Bft)
28.05.2022 15:32 13,9 C 18,9 C 54 % 1021,3 hPa 0,0 l/m 8,4 km/h (2 Bft) NW 309 2 min 3,3 UV-I 725 W/m 4,7 C 12,7 C 17,7 km/h (3 Bft)
28.05.2022 15:34 13,8 C 18,9 C 52 % 1021,1 hPa 0,0 l/m 8,4 km/h (2 Bft) W 265 0 min 3,8 UV-I 269 W/m 4,1 C 12,6 C 14,5 km/h (3 Bft)
28.05.2022 15:36 13,9 C 18,9 C 53 % 1021,2 hPa 0,0 l/m 9,9 km/h (2 Bft) W-NW 286 2 min 4,1 UV-I 835 W/m 4,5 C 12,0 C 20,9 km/h (4 Bft)
28.05.2022 15:38 13,9 C 20,0 C 53 % 1021,1 hPa 0,0 l/m 3,5 km/h (1 Bft) NW 306 2 min 4,6 UV-I 888 W/m 4,5 C 13,9 C 9,7 km/h (2 Bft)
28.05.2022 15:40 14,2 C 21,7 C 55 % 1021,0 hPa 0,0 l/m 4,6 km/h (1 Bft) W-NW 292 2 min 4,2 UV-I 976 W/m 5,3 C 14,2 C 9,7 km/h (2 Bft)
28.05.2022 15:42 14,2 C 19,4 C 53 % 1021,0 hPa 0,0 l/m 8,5 km/h (2 Bft) W-NW 298 0 min 2,6 UV-I 233 W/m 4,8 C 13,0 C 17,7 km/h (3 Bft)
28.05.2022 15:44 14,2 C 18,9 C 55 % 1021,0 hPa 0,0 l/m 9,3 km/h (2 Bft) W-SW 244 0 min 4,1 UV-I 200 W/m 5,3 C 12,6 C 19,3 km/h (3 Bft)
28.05.2022 15:46 14,4 C 21,1 C 51 % 1021,0 hPa 0,0 l/m 5,4 km/h (1 Bft) W-SW 257 2 min 4,3 UV-I 830 W/m 4,4 C 14,4 C 14,5 km/h (3 Bft)
28.05.2022 15:48 14,6 C 21,1 C 54 % 1021,0 hPa 0,0 l/m 9,9 km/h (2 Bft) W 280 2 min 4,1 UV-I 363 W/m 5,4 C 12,7 C 14,5 km/h (3 Bft)
28.05.2022 15:50 14,6 C 19,4 C 51 % 1020,9 hPa 0,0 l/m 11,7 km/h (2 Bft) W-NW 293 2 min 2,9 UV-I 344 W/m 4,6 C 11,9 C 16,1 km/h (3 Bft)
28.05.2022 15:52 14,3 C 17,8 C 53 % 1020,9 hPa 0,0 l/m 6,0 km/h (2 Bft) N-NO 25 2 min 2,8 UV-I 365 W/m 4,9 C 14,3 C 12,9 km/h (3 Bft)
28.05.2022 15:54 14,4 C 19,4 C 58 % 1020,8 hPa 0,0 l/m 8,6 km/h (2 Bft) NW 313 2 min 3,2 UV-I 419 W/m 6,2 C 13,1 C 17,7 km/h (3 Bft)
28.05.2022 15:56 14,4 C 19,4 C 55 % 1020,8 hPa 0,0 l/m 20,3 km/h (4 Bft) N-NW 336 2 min 3,0 UV-I 429 W/m 5,5 C 8,9 C 29,0 km/h (5 Bft)
28.05.2022 15:58 14,1 C 17,8 C 55 % 1020,9 hPa 0,0 l/m 16,3 km/h (3 Bft) W-NW 292 0 min 2,3 UV-I 276 W/m 5,2 C 9,7 C 32,2 km/h (5 Bft)
28.05.2022 16:00 13,9 C 18,3 C 57 % 1020,8 hPa 0,0 l/m 15,7 km/h (3 Bft) N 350 2 min 4,3 UV-I 386 W/m 5,5 C 9,6 C 22,5 km/h (4 Bft)
28.05.2022 16:02 14,3 C 21,1 C 57 % 1020,9 hPa 0,0 l/m 8,4 km/h (2 Bft) N-NW 331 2 min 4,9 UV-I 919 W/m 5,9 C 13,1 C 19,3 km/h (3 Bft)
28.05.2022 16:04 14,8 C 22,8 C 57 % 1020,9 hPa 0,0 l/m 10,4 km/h (2 Bft) N 5 2 min 4,9 UV-I 882 W/m 6,4 C 12,7 C 19,3 km/h (3 Bft)
28.05.2022 16:06 14,7 C 22,2 C 52 % 1020,9 hPa 0,0 l/m 14,5 km/h (3 Bft) W-NW 302 2 min 4,9 UV-I 851 W/m 5,0 C 11,0 C 25,7 km/h (4 Bft)
28.05.2022 16:08 14,7 C 22,8 C 53 % 1020,9 hPa 0,0 l/m 12,4 km/h (3 Bft) NW 325 2 min 4,8 UV-I 838 W/m 5,2 C 11,8 C 24,1 km/h (4 Bft)
28.05.2022 16:10 15,1 C 24,4 C 56 % 1020,8 hPa 0,0 l/m 8,8 km/h (2 Bft) N-NW 334 2 min 4,8 UV-I 828 W/m 6,4 C 13,8 C 16,1 km/h (3 Bft)
28.05.2022 16:12 15,0 C 23,9 C 51 % 1020,8 hPa 0,0 l/m 15,4 km/h (3 Bft) N 5 2 min 4,8 UV-I 815 W/m 4,9 C 11,1 C 25,7 km/h (4 Bft)
28.05.2022 16:14 14,7 C 23,3 C 52 % 1020,8 hPa 0,0 l/m 22,0 km/h (4 Bft) N-NW 329 2 min 4,7 UV-I 807 W/m 5,0 C 8,9 C 38,6 km/h (5 Bft)
28.05.2022 16:16 14,6 C 23,9 C 56 % 1020,8 hPa 0,0 l/m 8,5 km/h (2 Bft) N-NW 340 2 min 4,3 UV-I 815 W/m 5,9 C 13,4 C 16,1 km/h (3 Bft)
28.05.2022 16:18 14,9 C 24,4 C 55 % 1020,7 hPa 0,0 l/m 11,9 km/h (2 Bft) N-NW 332 2 min 4,3 UV-I 853 W/m 5,9 C 12,2 C 22,5 km/h (4 Bft)
28.05.2022 16:20 14,8 C 23,3 C 53 % 1020,8 hPa 0,0 l/m 15,0 km/h (3 Bft) SW 217 2 min 3,7 UV-I 860 W/m 5,3 C 10,9 C 30,6 km/h (5 Bft)
28.05.2022 16:22 15,1 C 24,4 C 53 % 1020,8 hPa 0,0 l/m 9,9 km/h (2 Bft) NW 324 2 min 4,4 UV-I 872 W/m 5,6 C 13,3 C 24,1 km/h (4 Bft)
28.05.2022 16:24 14,9 C 23,3 C 53 % 1020,7 hPa 0,0 l/m 13,0 km/h (3 Bft) N 10 2 min 3,7 UV-I 896 W/m 5,4 C 11,8 C 22,5 km/h (4 Bft)
28.05.2022 16:26 14,4 C 19,4 C 51 % 1020,7 hPa 0,0 l/m 15,8 km/h (3 Bft) N-NW 330 2 min 2,5 UV-I 373 W/m 4,4 C 10,2 C 25,7 km/h (4 Bft)
28.05.2022 16:28 13,9 C 17,2 C 51 % 1020,8 hPa 0,0 l/m 15,2 km/h (3 Bft) W-NW 290 0 min 2,2 UV-I 212 W/m 3,9 C 9,8 C 24,1 km/h (4 Bft)
28.05.2022 16:30 13,7 C 16,7 C 54 % 1020,7 hPa 0,0 l/m 7,6 km/h (2 Bft) W-NW 283 0 min 2,2 UV-I 234 W/m 4,6 C 13,0 C 19,3 km/h (3 Bft)
28.05.2022 16:32 13,4 C 16,1 C 54 % 1020,8 hPa 0,0 l/m 8,0 km/h (2 Bft) W-NW 302 0 min 2,1 UV-I 224 W/m 4,3 C 12,4 C 19,3 km/h (3 Bft)
28.05.2022 16:34 13,3 C 16,7 C 55 % 1020,8 hPa 0,0 l/m 13,9 km/h (3 Bft) W-NW 303 0 min 2,4 UV-I 277 W/m 4,5 C 9,5 C 24,1 km/h (4 Bft)
28.05.2022 16:36 13,4 C 18,3 C 56 % 1020,7 hPa 0,0 l/m 8,3 km/h (2 Bft) W 261 2 min 2,9 UV-I 383 W/m 4,8 C 12,2 C 20,9 km/h (4 Bft)
28.05.2022 16:38 13,7 C 18,3 C 56 % 1020,8 hPa 0,0 l/m 6,5 km/h (2 Bft) N 360 2 min 3,2 UV-I 383 W/m 5,1 C 13,7 C 12,9 km/h (3 Bft)
28.05.2022 16:40 14,1 C 20,6 C 57 % 1020,7 hPa 0,0 l/m 11,5 km/h (2 Bft) N 5 2 min 3,5 UV-I 383 W/m 5,7 C 11,4 C 20,9 km/h (4 Bft)
28.05.2022 16:42 14,3 C 21,1 C 59 % 1020,7 hPa 0,0 l/m 8,8 km/h (2 Bft) N-NW 346 2 min 3,2 UV-I 383 W/m 6,4 C 12,9 C 17,7 km/h (3 Bft)
28.05.2022 16:44 14,6 C 22,8 C 56 % 1020,7 hPa 0,0 l/m 14,8 km/h (3 Bft) N 355 2 min 3,3 UV-I 791 W/m 5,9 C 10,8 C 22,5 km/h (4 Bft)
28.05.2022 16:46 14,3 C 20,6 C 56 % 1020,7 hPa 0,0 l/m 17,7 km/h (3 Bft) W-NW 300 2 min 2,0 UV-I 374 W/m 5,6 C 9,5 C 30,6 km/h (5 Bft)
28.05.2022 16:48 14,3 C 20,0 C 55 % 1020,7 hPa 0,0 l/m 10,1 km/h (2 Bft) W-NW 299 0 min 2,5 UV-I 274 W/m 5,4 C 12,3 C 25,7 km/h (4 Bft)
28.05.2022 16:50 14,2 C 18,9 C 53 % 1020,6 hPa 0,0 l/m 12,8 km/h (3 Bft) N-NW 342 0 min 2,3 UV-I 266 W/m 4,8 C 11,0 C 27,4 km/h (4 Bft)
28.05.2022 16:52 13,8 C 17,2 C 52 % 1020,7 hPa 0,0 l/m 11,9 km/h (2 Bft) W-NW 298 0 min 1,8 UV-I 223 W/m 4,1 C 10,9 C 19,3 km/h (3 Bft)
28.05.2022 16:54 13,6 C 16,1 C 53 % 1020,6 hPa 0,0 l/m 11,4 km/h (2 Bft) NW 320 0 min 1,7 UV-I 204 W/m 4,2 C 10,9 C 22,5 km/h (4 Bft)
28.05.2022 16:56 13,3 C 15,6 C 53 % 1020,6 hPa 0,0 l/m 11,0 km/h (2 Bft) NW 318 0 min 1,7 UV-I 195 W/m 3,9 C 10,8 C 20,9 km/h (4 Bft)
28.05.2022 16:58 13,2 C 15,0 C 51 % 1020,6 hPa 0,0 l/m 15,4 km/h (3 Bft) NW 313 0 min 1,7 UV-I 198 W/m 3,3 C 8,9 C 24,1 km/h (4 Bft)
28.05.2022 17:00 13,2 C 15,6 C 52 % 1020,6 hPa 0,0 l/m 9,6 km/h (2 Bft) N 355 0 min 2,3 UV-I 204 W/m 3,6 C 11,3 C 17,7 km/h (3 Bft)
28.05.2022 17:02 13,4 C 17,8 C 52 % 1020,5 hPa 0,0 l/m 12,5 km/h (3 Bft) N-NW 334 0 min 2,8 UV-I 204 W/m 3,7 C 10,2 C 24,1 km/h (4 Bft)
28.05.2022 17:04 13,8 C 20,6 C 50 % 1020,6 hPa 0,0 l/m 15,1 km/h (3 Bft) NW 304 2 min 3,2 UV-I 533 W/m 3,6 C 9,7 C 29,0 km/h (5 Bft)
28.05.2022 17:06 14,1 C 21,1 C 51 % 1020,6 hPa 0,0 l/m 17,9 km/h (3 Bft) N-NW 340 2 min 3,0 UV-I 834 W/m 4,1 C 9,2 C 27,4 km/h (4 Bft)
28.05.2022 17:08 14,3 C 22,8 C 53 % 1020,6 hPa 0,0 l/m 12,0 km/h (2 Bft) NW 325 2 min 3,4 UV-I 823 W/m 4,9 C 11,5 C 17,7 km/h (3 Bft)
28.05.2022 17:10 14,3 C 22,2 C 54 % 1020,6 hPa 0,0 l/m 9,2 km/h (2 Bft) NW 324 2 min 2,8 UV-I 821 W/m 5,1 C 12,7 C 24,1 km/h (4 Bft)
28.05.2022 17:12 14,1 C 19,4 C 54 % 1020,6 hPa 0,0 l/m 10,2 km/h (2 Bft) W-NW 301 2 min 1,9 UV-I 402 W/m 4,9 C 12,0 C 16,1 km/h (3 Bft)
28.05.2022 17:14 13,8 C 17,8 C 54 % 1020,6 hPa 0,0 l/m 12,4 km/h (3 Bft) NW 311 0 min 1,8 UV-I 211 W/m 4,7 C 10,7 C 19,3 km/h (3 Bft)
28.05.2022 17:16 13,4 C 16,1 C 54 % 1020,5 hPa 0,0 l/m 9,7 km/h (2 Bft) N 5 0 min 1,7 UV-I 194 W/m 4,3 C 11,5 C 17,7 km/h (3 Bft)
28.05.2022 17:18 13,4 C 17,2 C 55 % 1020,5 hPa 0,0 l/m 10,5 km/h (2 Bft) W-NW 302 2 min 2,7 UV-I 360 W/m 4,5 C 11,1 C 22,5 km/h (4 Bft)
28.05.2022 17:20 13,6 C 18,9 C 55 % 1020,5 hPa 0,0 l/m 16,1 km/h (3 Bft) NW 320 2 min 2,0 UV-I 524 W/m 4,7 C 9,1 C 27,4 km/h (4 Bft)
28.05.2022 17:22 13,3 C 17,2 C 56 % 1020,6 hPa 0,0 l/m 9,2 km/h (2 Bft) W-NW 293 0 min 1,6 UV-I 189 W/m 4,7 C 11,7 C 16,1 km/h (3 Bft)
28.05.2022 17:24 13,2 C 16,1 C 57 % 1020,6 hPa 0,0 l/m 7,1 km/h (2 Bft) W-NW 298 0 min 1,6 UV-I 200 W/m 4,9 C 12,8 C 16,1 km/h (3 Bft)
28.05.2022 17:26 12,9 C 15,0 C 56 % 1020,5 hPa 0,0 l/m 9,5 km/h (2 Bft) W 273 0 min 1,6 UV-I 211 W/m 4,3 C 11,1 C 17,7 km/h (3 Bft)
28.05.2022 17:28 12,9 C 15,0 C 58 % 1020,5 hPa 0,0 l/m 9,3 km/h (2 Bft) S 188 0 min 1,6 UV-I 226 W/m 4,8 C 11,2 C 25,7 km/h (4 Bft)
28.05.2022 17:30 12,9 C 15,6 C 57 % 1020,5 hPa 0,0 l/m 8,1 km/h (2 Bft) N 5 0 min 2,2 UV-I 288 W/m 4,6 C 11,8 C 17,7 km/h (3 Bft)
28.05.2022 17:32 12,9 C 15,0 C 59 % 1020,4 hPa 0,0 l/m 12,5 km/h (3 Bft) W-NW 296 0 min 1,7 UV-I 288 W/m 5,1 C 9,6 C 22,5 km/h (4 Bft)
28.05.2022 17:34 13,0 C 16,1 C 59 % 1020,4 hPa 0,0 l/m 14,1 km/h (3 Bft) W-NW 298 0 min 2,3 UV-I 295 W/m 5,2 C 9,1 C 24,1 km/h (4 Bft)
28.05.2022 17:36 13,1 C 16,1 C 60 % 1020,5 hPa 0,0 l/m 12,7 km/h (3 Bft) NW 313 0 min 1,8 UV-I 323 W/m 5,5 C 9,8 C 19,3 km/h (3 Bft)
28.05.2022 17:38 13,2 C 16,1 C 59 % 1020,5 hPa 0,0 l/m 9,4 km/h (2 Bft) W-NW 299 2 min 1,9 UV-I 345 W/m 5,4 C 11,4 C 19,3 km/h (3 Bft)
28.05.2022 17:40 13,1 C 16,1 C 58 % 1020,5 hPa 0,0 l/m 14,5 km/h (3 Bft) N-NW 328 2 min 2,3 UV-I 382 W/m 5,0 C 9,1 C 25,7 km/h (4 Bft)
28.05.2022 17:42 13,2 C 18,3 C 58 % 1020,5 hPa 0,0 l/m 14,1 km/h (3 Bft) NW 315 2 min 2,2 UV-I 530 W/m 5,1 C 9,3 C 24,1 km/h (4 Bft)
28.05.2022 17:44 13,3 C 18,3 C 61 % 1020,6 hPa 0,0 l/m 9,9 km/h (2 Bft) W 275 0 min 2,4 UV-I 341 W/m 5,9 C 11,3 C 20,9 km/h (4 Bft)
28.05.2022 17:46 13,2 C 17,8 C 58 % 1020,5 hPa 0,0 l/m 15,9 km/h (3 Bft) N-NW 341 0 min 1,8 UV-I 298 W/m 5,1 C 8,7 C 24,1 km/h (4 Bft)
28.05.2022 17:48 13,0 C 16,1 C 58 % 1020,6 hPa 0,0 l/m 13,4 km/h (3 Bft) N 350 0 min 1,6 UV-I 248 W/m 4,9 C 9,4 C 20,9 km/h (4 Bft)
28.05.2022 17:50 12,8 C 15,6 C 59 % 1020,5 hPa 0,0 l/m 7,8 km/h (2 Bft) NW 315 0 min 1,5 UV-I 213 W/m 5,0 C 11,9 C 16,1 km/h (3 Bft)
28.05.2022 17:52 12,7 C 15,0 C 59 % 1020,5 hPa 0,0 l/m 9,6 km/h (2 Bft) N-NW 338 0 min 1,4 UV-I 185 W/m 4,9 C 10,8 C 19,3 km/h (3 Bft)
28.05.2022 17:54 12,6 C 14,4 C 58 % 1020,4 hPa 0,0 l/m 12,4 km/h (3 Bft) NW 322 0 min 1,4 UV-I 186 W/m 4,6 C 9,3 C 17,7 km/h (3 Bft)
28.05.2022 17:56 12,3 C 14,4 C 57 % 1020,5 hPa 0,0 l/m 11,6 km/h (2 Bft) N-NW 347 0 min 1,4 UV-I 198 W/m 4,0 C 9,3 C 17,7 km/h (3 Bft)
28.05.2022 17:58 12,2 C 13,9 C 58 % 1020,5 hPa 0,0 l/m 12,0 km/h (2 Bft) NW 322 0 min 1,4 UV-I 224 W/m 4,2 C 9,0 C 16,1 km/h (3 Bft)
28.05.2022 18:00 12,3 C 14,4 C 59 % 1020,5 hPa 0,0 l/m 7,6 km/h (2 Bft) NW 311 0 min 1,4 UV-I 244 W/m 4,5 C 11,5 C 14,5 km/h (3 Bft)
28.05.2022 18:02 12,3 C 14,4 C 59 % 1020,5 hPa 0,0 l/m 6,9 km/h (2 Bft) N-NW 333 0 min 1,4 UV-I 232 W/m 4,5 C 12,0 C 12,9 km/h (3 Bft)
28.05.2022 18:04 12,3 C 14,4 C 59 % 1020,4 hPa 0,0 l/m 8,8 km/h (2 Bft) N-NW 330 0 min 1,4 UV-I 238 W/m 4,5 C 10,8 C 12,9 km/h (3 Bft)
28.05.2022 18:06 12,4 C 14,4 C 59 % 1020,4 hPa 0,0 l/m 7,9 km/h (2 Bft) N-NW 337 0 min 1,3 UV-I 232 W/m 4,6 C 11,4 C 12,9 km/h (3 Bft)
28.05.2022 18:08 12,4 C 14,4 C 59 % 1020,3 hPa 0,0 l/m 9,4 km/h (2 Bft) N 5 0 min 1,3 UV-I 221 W/m 4,6 C 10,6 C 19,3 km/h (3 Bft)
28.05.2022 18:10 12,4 C 14,4 C 59 % 1020,3 hPa 0,0 l/m 9,9 km/h (2 Bft) N 5 0 min 1,2 UV-I 213 W/m 4,6 C 10,3 C 20,9 km/h (4 Bft)
28.05.2022 18:12 12,4 C 14,4 C 59 % 1020,3 hPa 0,0 l/m 9,5 km/h (2 Bft) N-NW 333 0 min 1,2 UV-I 209 W/m 4,6 C 10,5 C 16,1 km/h (3 Bft)
28.05.2022 18:14 12,4 C 14,4 C 59 % 1020,4 hPa 0,0 l/m 8,7 km/h (2 Bft) N-NW 344 0 min 1,2 UV-I 206 W/m 4,6 C 11,0 C 14,5 km/h (3 Bft)
28.05.2022 18:16 12,4 C 14,4 C 59 % 1020,3 hPa 0,0 l/m 6,5 km/h (2 Bft) N-NW 343 0 min 1,2 UV-I 209 W/m 4,6 C 12,4 C 12,9 km/h (3 Bft)
28.05.2022 18:18 12,4 C 15,0 C 58 % 1020,3 hPa 0,0 l/m 7,8 km/h (2 Bft) NW 309 0 min 1,2 UV-I 217 W/m 4,4 C 11,5 C 12,9 km/h (3 Bft)
28.05.2022 18:20 12,4 C 15,0 C 58 % 1020,2 hPa 0,0 l/m 8,7 km/h (2 Bft) N-NW 335 0 min 1,3 UV-I 238 W/m 4,4 C 11,0 C 14,5 km/h (3 Bft)
28.05.2022 18:22 12,4 C 15,0 C 58 % 1020,1 hPa 0,0 l/m 10,9 km/h (2 Bft) NW 304 0 min 1,4 UV-I 273 W/m 4,4 C 9,8 C 19,3 km/h (3 Bft)
28.05.2022 18:24 12,7 C 16,1 C 58 % 1020,3 hPa 0,0 l/m 8,9 km/h (2 Bft) N 360 2 min 1,8 UV-I 435 W/m 4,7 C 11,2 C 14,5 km/h (3 Bft)
28.05.2022 18:26 13,2 C 17,2 C 60 % 1020,1 hPa 0,0 l/m 8,9 km/h (2 Bft) W-NW 298 2 min 1,9 UV-I 546 W/m 5,6 C 11,7 C 16,1 km/h (3 Bft)
28.05.2022 18:28 13,5 C 17,2 C 58 % 1020,1 hPa 0,0 l/m 3,9 km/h (1 Bft) N-NW 346 2 min 1,8 UV-I 573 W/m 5,4 C 13,5 C 6,4 km/h (2 Bft)
28.05.2022 18:30 13,8 C 17,8 C 58 % 1020,1 hPa 0,0 l/m 9,2 km/h (2 Bft) NW 311 2 min 1,8 UV-I 543 W/m 5,7 C 12,2 C 27,4 km/h (4 Bft)
28.05.2022 18:32 13,7 C 17,2 C 56 % 1020,2 hPa 0,0 l/m 14,0 km/h (3 Bft) NW 323 2 min 1,5 UV-I 490 W/m 5,1 C 10,0 C 22,5 km/h (4 Bft)
28.05.2022 18:34 13,5 C 16,1 C 55 % 1020,1 hPa 0,0 l/m 10,4 km/h (2 Bft) W-NW 290 0 min 1,1 UV-I 210 W/m 4,6 C 11,3 C 17,7 km/h (3 Bft)
28.05.2022 18:36 13,2 C 15,0 C 55 % 1020,2 hPa 0,0 l/m 12,5 km/h (3 Bft) N-NW 336 0 min 1,0 UV-I 190 W/m 4,4 C 10,0 C 20,9 km/h (4 Bft)
28.05.2022 18:38 12,9 C 14,4 C 56 % 1020,1 hPa 0,0 l/m 11,9 km/h (2 Bft) N-NW 329 0 min 0,8 UV-I 163 W/m 4,3 C 9,9 C 19,3 km/h (3 Bft)
28.05.2022 18:40 12,7 C 13,9 C 57 % 1020,2 hPa 0,0 l/m 14,3 km/h (3 Bft) N-NW 340 0 min 0,7 UV-I 156 W/m 4,4 C 8,7 C 22,5 km/h (4 Bft)
28.05.2022 18:42 12,5 C 13,3 C 58 % 1020,3 hPa 0,0 l/m 15,2 km/h (3 Bft) N-NW 343 0 min 0,7 UV-I 156 W/m 4,5 C 8,1 C 24,1 km/h (4 Bft)
28.05.2022 18:44 12,3 C 13,3 C 58 % 1020,3 hPa 0,0 l/m 10,3 km/h (2 Bft) N-NW 331 0 min 0,8 UV-I 155 W/m 4,3 C 10,0 C 22,5 km/h (4 Bft)
28.05.2022 18:46 12,2 C 13,3 C 57 % 1020,3 hPa 0,0 l/m 15,4 km/h (3 Bft) N 349 0 min 0,8 UV-I 155 W/m 3,9 C 7,6 C 24,1 km/h (4 Bft)
28.05.2022 18:48 12,1 C 13,3 C 59 % 1020,4 hPa 0,0 l/m 6,8 km/h (2 Bft) N 355 0 min 0,8 UV-I 165 W/m 4,3 C 11,8 C 14,5 km/h (3 Bft)
28.05.2022 18:50 12,2 C 13,3 C 58 % 1020,4 hPa 0,0 l/m 12,7 km/h (3 Bft) NW 311 0 min 1,0 UV-I 247 W/m 4,2 C 8,7 C 20,9 km/h (4 Bft)
28.05.2022 18:52 12,3 C 14,4 C 59 % 1020,4 hPa 0,0 l/m 11,0 km/h (2 Bft) NW 319 0 min 1,2 UV-I 289 W/m 4,5 C 9,6 C 22,5 km/h (4 Bft)
28.05.2022 18:54 12,5 C 15,0 C 57 % 1020,4 hPa 0,0 l/m 9,2 km/h (2 Bft) W-NW 285 0 min 1,0 UV-I 329 W/m 4,2 C 10,8 C 16,1 km/h (3 Bft)
28.05.2022 18:56 12,4 C 14,4 C 59 % 1020,4 hPa 0,0 l/m 7,1 km/h (2 Bft) N-NO 25 0 min 0,8 UV-I 148 W/m 4,6 C 11,9 C 12,9 km/h (3 Bft)
28.05.2022 18:58 12,3 C 13,9 C 59 % 1020,4 hPa 0,0 l/m 6,0 km/h (2 Bft) W-NW 297 0 min 0,8 UV-I 135 W/m 4,5 C 12,3 C 12,9 km/h (3 Bft)
28.05.2022 19:00 12,1 C 13,3 C 58 % 1020,4 hPa 0,0 l/m 10,3 km/h (2 Bft) N-NW 334 0 min 0,8 UV-I 123 W/m 4,1 C 9,8 C 19,3 km/h (3 Bft)
28.05.2022 19:02 12,0 C 12,8 C 59 % 1020,3 hPa 0,0 l/m 12,5 km/h (3 Bft) NW 312 0 min 0,8 UV-I 115 W/m 4,2 C 8,6 C 20,9 km/h (4 Bft)
28.05.2022 19:04 11,9 C 13,9 C 60 % 1020,4 hPa 0,0 l/m 7,3 km/h (2 Bft) N-NW 330 0 min 0,9 UV-I 120 W/m 4,4 C 11,3 C 12,9 km/h (3 Bft)
28.05.2022 19:06 11,9 C 13,9 C 59 % 1020,3 hPa 0,0 l/m 8,0 km/h (2 Bft) N-NW 343 0 min 0,7 UV-I 120 W/m 4,1 C 10,8 C 16,1 km/h (3 Bft)
28.05.2022 19:08 11,9 C 13,3 C 59 % 1020,4 hPa 0,0 l/m 8,4 km/h (2 Bft) W-NW 296 0 min 0,7 UV-I 124 W/m 4,1 C 10,6 C 14,5 km/h (3 Bft)
28.05.2022 19:10 11,8 C 12,8 C 59 % 1020,4 hPa 0,0 l/m 15,6 km/h (3 Bft) N-NW 333 0 min 0,7 UV-I 113 W/m 4,1 C 7,1 C 20,9 km/h (4 Bft)
28.05.2022 19:12 11,8 C 12,8 C 59 % 1020,4 hPa 0,0 l/m 11,6 km/h (2 Bft) W-NW 292 0 min 0,6 UV-I 118 W/m 4,1 C 8,8 C 16,1 km/h (3 Bft)
28.05.2022 19:14 11,7 C 12,8 C 59 % 1020,4 hPa 0,0 l/m 8,4 km/h (2 Bft) NW 319 0 min 0,6 UV-I 120 W/m 4,0 C 10,4 C 17,7 km/h (3 Bft)
28.05.2022 19:16 11,7 C 12,2 C 59 % 1020,4 hPa 0,0 l/m 7,9 km/h (2 Bft) NW 304 0 min 0,6 UV-I 118 W/m 4,0 C 10,7 C 12,9 km/h (3 Bft)
28.05.2022 19:18 11,6 C 12,2 C 58 % 1020,4 hPa 0,0 l/m 10,9 km/h (2 Bft) NW 317 0 min 0,6 UV-I 119 W/m 3,6 C 8,9 C 24,1 km/h (4 Bft)
28.05.2022 19:20 11,6 C 12,2 C 58 % 1020,4 hPa 0,0 l/m 9,9 km/h (2 Bft) W-NW 296 0 min 0,6 UV-I 123 W/m 3,6 C 9,4 C 20,9 km/h (4 Bft)
28.05.2022 19:22 11,6 C 12,2 C 58 % 1020,4 hPa 0,0 l/m 11,3 km/h (2 Bft) W-NW 293 0 min 0,6 UV-I 132 W/m 3,6 C 8,7 C 17,7 km/h (3 Bft)
28.05.2022 19:24 11,6 C 12,2 C 59 % 1020,4 hPa 0,0 l/m 12,3 km/h (3 Bft) W-SW 244 0 min 0,6 UV-I 131 W/m 3,9 C 8,2 C 19,3 km/h (3 Bft)
28.05.2022 19:26 11,6 C 12,2 C 58 % 1020,3 hPa 0,0 l/m 9,7 km/h (2 Bft) NW 313 0 min 0,6 UV-I 125 W/m 3,6 C 9,5 C 19,3 km/h (3 Bft)
28.05.2022 19:28 11,6 C 12,2 C 59 % 1020,4 hPa 0,0 l/m 10,6 km/h (2 Bft) W-NW 289 0 min 0,5 UV-I 117 W/m 3,9 C 9,0 C 16,1 km/h (3 Bft)
28.05.2022 19:30 11,6 C 12,2 C 59 % 1020,4 hPa 0,0 l/m 8,1 km/h (2 Bft) NW 319 0 min 0,5 UV-I 108 W/m 3,9 C 10,5 C 16,1 km/h (3 Bft)
28.05.2022 19:32 11,6 C 12,2 C 59 % 1020,4 hPa 0,0 l/m 9,0 km/h (2 Bft) N-NW 334 0 min 0,5 UV-I 96 W/m 3,9 C 9,9 C 14,5 km/h (3 Bft)
28.05.2022 19:34 11,5 C 11,7 C 59 % 1020,4 hPa 0,0 l/m 8,8 km/h (2 Bft) W-NW 299 0 min 0,4 UV-I 85 W/m 3,8 C 9,9 C 16,1 km/h (3 Bft)
28.05.2022 19:36 11,5 C 11,7 C 60 % 1020,4 hPa 0,0 l/m 5,8 km/h (2 Bft) W-NW 294 0 min 0,0 UV-I 73 W/m 4,0 C 11,5 C 12,9 km/h (3 Bft)
28.05.2022 19:38 11,4 C 11,7 C 60 % 1020,3 hPa 0,0 l/m 4,3 km/h (1 Bft) NW 323 0 min 0,0 UV-I 62 W/m 3,9 C 11,4 C 11,3 km/h (2 Bft)
28.05.2022 19:40 11,4 C 11,7 C 61 % 1020,4 hPa 0,0 l/m 6,0 km/h (2 Bft) N-NW 329 0 min 0,0 UV-I 52 W/m 4,2 C 11,4 C 12,9 km/h (3 Bft)
28.05.2022 19:42 11,3 C 11,1 C 59 % 1020,4 hPa 0,0 l/m 7,1 km/h (2 Bft) W 267 0 min 0,0 UV-I 47 W/m 3,6 C 10,8 C 16,1 km/h (3 Bft)
28.05.2022 19:44 11,3 C 11,1 C 58 % 1020,3 hPa 0,0 l/m 10,4 km/h (2 Bft) N-NW 344 0 min 0,0 UV-I 46 W/m 3,3 C 8,8 C 19,3 km/h (3 Bft)
28.05.2022 19:46 11,3 C 11,1 C 58 % 1020,4 hPa 0,0 l/m 6,9 km/h (2 Bft) NW 307 0 min 0,0 UV-I 46 W/m 3,3 C 11,0 C 17,7 km/h (3 Bft)
28.05.2022 19:48 11,3 C 11,1 C 59 % 1020,3 hPa 0,0 l/m 6,7 km/h (2 Bft) NW 305 0 min 0,0 UV-I 46 W/m 3,6 C 11,1 C 14,5 km/h (3 Bft)
28.05.2022 19:50 11,2 C 11,1 C 59 % 1020,3 hPa 0,0 l/m 6,1 km/h (2 Bft) W-NW 298 0 min 0,0 UV-I 47 W/m 3,5 C 11,2 C 14,5 km/h (3 Bft)
28.05.2022 19:52 11,2 C 11,1 C 60 % 1020,4 hPa 0,0 l/m 4,0 km/h (1 Bft) N-NW 329 0 min 0,0 UV-I 48 W/m 3,7 C 11,2 C 8,0 km/h (2 Bft)
28.05.2022 19:54 11,2 C 11,1 C 60 % 1020,4 hPa 0,0 l/m 7,9 km/h (2 Bft) W-NW 294 0 min 0,0 UV-I 52 W/m 3,7 C 10,2 C 14,5 km/h (3 Bft)
28.05.2022 19:56 11,1 C 11,1 C 60 % 1020,4 hPa 0,0 l/m 5,6 km/h (1 Bft) W-NW 297 0 min 0,0 UV-I 54 W/m 3,6 C 11,1 C 12,9 km/h (3 Bft)
28.05.2022 19:58 11,2 C 11,1 C 59 % 1020,2 hPa 0,0 l/m 12,0 km/h (2 Bft) NW 305 0 min 0,0 UV-I 56 W/m 3,5 C 7,9 C 20,9 km/h (4 Bft)
28.05.2022 20:00 11,1 C 11,1 C 58 % 1020,3 hPa 0,0 l/m 11,9 km/h (2 Bft) NW 309 0 min 0,0 UV-I 56 W/m 3,2 C 7,8 C 17,7 km/h (3 Bft)
28.05.2022 20:02 11,1 C 11,1 C 59 % 1020,3 hPa 0,0 l/m 5,9 km/h (2 Bft) W-NW 299 0 min 0,0 UV-I 62 W/m 3,4 C 11,1 C 14,5 km/h (3 Bft)
28.05.2022 20:04 11,1 C 11,1 C 59 % 1020,3 hPa 0,0 l/m 8,2 km/h (2 Bft) NW 305 0 min 0,0 UV-I 64 W/m 3,4 C 9,9 C 14,5 km/h (3 Bft)
28.05.2022 20:06 11,1 C 11,1 C 59 % 1020,3 hPa 0,0 l/m 6,1 km/h (2 Bft) NW 304 0 min 0,0 UV-I 69 W/m 3,4 C 11,1 C 11,3 km/h (2 Bft)
28.05.2022 20:08 11,1 C 11,1 C 59 % 1020,3 hPa 0,0 l/m 6,4 km/h (2 Bft) W-NW 293 0 min 0,0 UV-I 75 W/m 3,4 C 11,1 C 12,9 km/h (3 Bft)
28.05.2022 20:10 11,1 C 11,1 C 59 % 1020,3 hPa 0,0 l/m 4,9 km/h (1 Bft) N-NW 335 0 min 0,0 UV-I 76 W/m 3,4 C 11,1 C 9,7 km/h (2 Bft)
28.05.2022 20:12 11,1 C 11,1 C 59 % 1020,3 hPa 0,0 l/m 9,3 km/h (2 Bft) N-NW 327 0 min 0,0 UV-I 76 W/m 3,4 C 9,2 C 14,5 km/h (3 Bft)
28.05.2022 20:14 11,1 C 11,1 C 59 % 1020,1 hPa 0,0 l/m 6,5 km/h (2 Bft) W-NW 294 0 min 0,0 UV-I 74 W/m 3,4 C 11,1 C 14,5 km/h (3 Bft)
28.05.2022 20:16 11,1 C 11,1 C 59 % 1020,2 hPa 0,0 l/m 4,6 km/h (1 Bft) NW 323 0 min 0,0 UV-I 74 W/m 3,4 C 11,1 C 6,4 km/h (2 Bft)
28.05.2022 20:18 11,0 C 11,1 C 58 % 1020,1 hPa 0,0 l/m 7,7 km/h (2 Bft) NW 315 0 min 0,0 UV-I 74 W/m 3,1 C 10,1 C 17,7 km/h (3 Bft)
28.05.2022 20:20 11,0 C 11,1 C 59 % 1020,1 hPa 0,0 l/m 5,5 km/h (1 Bft) W-NW 301 0 min 0,0 UV-I 73 W/m 3,3 C 11,0 C 14,5 km/h (3 Bft)
28.05.2022 20:22 10,9 C 11,1 C 59 % 1020,1 hPa 0,0 l/m 5,8 km/h (2 Bft) NW 316 0 min 0,0 UV-I 70 W/m 3,2 C 10,9 C 14,5 km/h (3 Bft)
28.05.2022 20:24 10,9 C 11,1 C 59 % 1020,1 hPa 0,0 l/m 5,4 km/h (1 Bft) NW 306 0 min 0,0 UV-I 67 W/m 3,2 C 10,9 C 11,3 km/h (2 Bft)
28.05.2022 20:26 10,9 C 10,6 C 59 % 1020,1 hPa 0,0 l/m 6,2 km/h (2 Bft) N-NW 331 0 min 0,0 UV-I 60 W/m 3,2 C 10,9 C 9,7 km/h (2 Bft)
28.05.2022 20:28 10,8 C 10,6 C 59 % 1020,0 hPa 0,0 l/m 5,3 km/h (1 Bft) W-NW 296 0 min 0,0 UV-I 53 W/m 3,1 C 10,8 C 12,9 km/h (3 Bft)
28.05.2022 20:30 10,8 C 10,6 C 59 % 1019,9 hPa 0,0 l/m 4,1 km/h (1 Bft) NW 321 0 min 0,0 UV-I 48 W/m 3,1 C 10,8 C 8,0 km/h (2 Bft)
28.05.2022 20:32 10,7 C 10,6 C 59 % 1020,0 hPa 0,0 l/m 6,6 km/h (2 Bft) N-NW 348 0 min 0,0 UV-I 44 W/m 3,0 C 10,6 C 16,1 km/h (3 Bft)
28.05.2022 20:34 10,6 C 10,0 C 59 % 1020,1 hPa 0,0 l/m 9,0 km/h (2 Bft) W-NW 300 0 min 0,0 UV-I 40 W/m 2,9 C 8,8 C 22,5 km/h (4 Bft)
28.05.2022 20:36 10,6 C 10,0 C 60 % 1019,9 hPa 0,0 l/m 8,8 km/h (2 Bft) NW 326 0 min 0,0 UV-I 35 W/m 3,2 C 9,0 C 14,5 km/h (3 Bft)
28.05.2022 20:38 10,5 C 10,0 C 60 % 1019,9 hPa 0,0 l/m 8,6 km/h (2 Bft) NW 321 0 min 0,0 UV-I 33 W/m 3,1 C 9,0 C 16,1 km/h (3 Bft)
28.05.2022 20:40 10,4 C 9,4 C 60 % 1019,8 hPa 0,0 l/m 11,3 km/h (2 Bft) NW 321 0 min 0,0 UV-I 29 W/m 3,0 C 7,3 C 16,1 km/h (3 Bft)
28.05.2022 20:42 10,3 C 9,4 C 60 % 1019,9 hPa 0,0 l/m 7,2 km/h (2 Bft) N 5 0 min 0,0 UV-I 25 W/m 2,9 C 9,7 C 14,5 km/h (3 Bft)
28.05.2022 20:44 10,3 C 9,4 C 60 % 1019,9 hPa 0,0 l/m 5,3 km/h (1 Bft) NW 323 0 min 0,0 UV-I 21 W/m 2,9 C 10,3 C 8,0 km/h (2 Bft)
28.05.2022 20:46 10,2 C 8,9 C 60 % 1019,8 hPa 0,0 l/m 2,8 km/h (1 Bft) NW 325 0 min 0,0 UV-I 19 W/m 2,8 C 10,2 C 6,4 km/h (2 Bft)
28.05.2022 20:48 10,1 C 8,9 C 61 % 1019,8 hPa 0,0 l/m 4,0 km/h (1 Bft) N-NW 333 0 min 0,0 UV-I 18 W/m 2,9 C 10,1 C 9,7 km/h (2 Bft)
28.05.2022 20:50 10,0 C 8,9 C 61 % 1019,9 hPa 0,0 l/m 8,1 km/h (2 Bft) N-NW 330 0 min 0,0 UV-I 18 W/m 2,8 C 8,8 C 14,5 km/h (3 Bft)
28.05.2022 20:52 10,0 C 8,9 C 60 % 1019,8 hPa 0,0 l/m 8,3 km/h (2 Bft) N-NW 328 0 min 0,0 UV-I 16 W/m 2,6 C 8,7 C 14,5 km/h (3 Bft)
28.05.2022 20:54 9,9 C 8,9 C 61 % 1019,8 hPa 0,0 l/m 5,6 km/h (1 Bft) NW 311 0 min 0,0 UV-I 16 W/m 2,7 C 9,9 C 11,3 km/h (2 Bft)
28.05.2022 20:56 9,9 C 8,9 C 60 % 1019,9 hPa 0,0 l/m 5,0 km/h (1 Bft) N-NW 327 0 min 0,0 UV-I 14 W/m 2,5 C 9,9 C 9,7 km/h (2 Bft)
28.05.2022 20:58 9,8 C 8,3 C 61 % 1019,8 hPa 0,0 l/m 6,8 km/h (2 Bft) N-NW 338 0 min 0,0 UV-I 13 W/m 2,6 C 9,5 C 12,9 km/h (3 Bft)
28.05.2022 21:00 9,7 C 8,3 C 61 % 1019,8 hPa 0,0 l/m 3,8 km/h (1 Bft) N-NW 334 0 min 0,0 UV-I 12 W/m 2,5 C 9,7 C 4,8 km/h (1 Bft)
28.05.2022 21:02 9,6 C 7,8 C 63 % 1019,8 hPa 0,0 l/m 2,3 km/h (1 Bft) N-NW 334 0 min 0,0 UV-I 12 W/m 2,9 C 9,6 C 3,2 km/h (1 Bft)
28.05.2022 21:04 9,3 C 7,8 C 63 % 1019,8 hPa 0,0 l/m 3,1 km/h (1 Bft) N-NW 333 0 min 0,0 UV-I 11 W/m 2,6 C 9,3 C 6,4 km/h (2 Bft)
28.05.2022 21:06 9,3 C 7,8 C 63 % 1019,8 hPa 0,0 l/m 3,3 km/h (1 Bft) N-NW 331 0 min 0,0 UV-I 10 W/m 2,6 C 9,3 C 6,4 km/h (2 Bft)
28.05.2022 21:08 9,1 C 7,2 C 64 % 1019,9 hPa 0,0 l/m 1,8 km/h (1 Bft) N-NW 331 0 min 0,0 UV-I 9 W/m 2,7 C 9,1 C 3,2 km/h (1 Bft)
28.05.2022 21:10 9,0 C 7,2 C 64 % 1019,8 hPa 0,0 l/m 2,1 km/h (1 Bft) N-NW 331 0 min 0,0 UV-I 9 W/m 2,6 C 9,0 C 4,8 km/h (1 Bft)
28.05.2022 21:12 8,9 C 7,2 C 64 % 1019,9 hPa 0,0 l/m 4,8 km/h (1 Bft) N-NW 329 0 min 0,0 UV-I 7 W/m 2,5 C 8,9 C 8,0 km/h (2 Bft)
28.05.2022 21:14 8,9 C 7,2 C 65 % 1019,8 hPa 0,0 l/m 3,9 km/h (1 Bft) N-NW 338 0 min 0,0 UV-I 7 W/m 2,7 C 8,9 C 6,4 km/h (2 Bft)
28.05.2022 21:16 8,8 C 6,7 C 66 % 1019,8 hPa 0,0 l/m 4,0 km/h (1 Bft) N 355 0 min 0,0 UV-I 7 W/m 2,8 C 8,8 C 6,4 km/h (2 Bft)
28.05.2022 21:18 8,7 C 6,7 C 66 % 1019,9 hPa 0,0 l/m 5,9 km/h (2 Bft) N 360 0 min 0,0 UV-I 7 W/m 2,7 C 8,7 C 12,9 km/h (3 Bft)
28.05.2022 21:20 8,7 C 6,7 C 66 % 1019,9 hPa 0,0 l/m 8,2 km/h (2 Bft) N-NW 334 0 min 0,0 UV-I 7 W/m 2,7 C 7,3 C 12,9 km/h (3 Bft)
28.05.2022 21:22 8,7 C 7,2 C 66 % 1019,8 hPa 0,0 l/m 6,7 km/h (2 Bft) NW 317 0 min 0,0 UV-I 5 W/m 2,7 C 8,5 C 9,7 km/h (2 Bft)
28.05.2022 21:24 8,8 C 7,2 C 66 % 1019,8 hPa 0,0 l/m 6,3 km/h (2 Bft) N-NW 331 0 min 0,0 UV-I 5 W/m 2,8 C 8,8 C 9,7 km/h (2 Bft)
28.05.2022 21:26 8,8 C 7,2 C 66 % 1019,8 hPa 0,0 l/m 5,4 km/h (1 Bft) N-NW 348 0 min 0,0 UV-I 5 W/m 2,8 C 8,8 C 8,0 km/h (2 Bft)
28.05.2022 21:28 8,7 C 7,2 C 67 % 1019,9 hPa 0,0 l/m 5,8 km/h (2 Bft) N-NW 346 0 min 0,0 UV-I 5 W/m 2,9 C 8,7 C 9,7 km/h (2 Bft)
28.05.2022 21:30 8,7 C 6,7 C 67 % 1019,8 hPa 0,0 l/m 4,2 km/h (1 Bft) N-NW 348 0 min 0,0 UV-I 5 W/m 2,9 C 8,7 C 8,0 km/h (2 Bft)
28.05.2022 21:32 8,6 C 6,7 C 67 % 1019,8 hPa 0,0 l/m 2,6 km/h (1 Bft) NW 313 0 min 0,0 UV-I 3 W/m 2,8 C 8,6 C 8,0 km/h (2 Bft)
28.05.2022 21:34 8,6 C 6,7 C 67 % 1019,9 hPa 0,0 l/m 2,6 km/h (1 Bft) NW 316 0 min 0,0 UV-I 0 W/m 2,8 C 8,6 C 4,8 km/h (1 Bft)
28.05.2022 21:36 8,5 C 6,7 C 68 % 1019,8 hPa 0,0 l/m 2,6 km/h (1 Bft) NW 317 0 min 0,0 UV-I 0 W/m 2,9 C 8,5 C 4,8 km/h (1 Bft)
28.05.2022 21:38 8,4 C 6,7 C 68 % 1019,9 hPa 0,0 l/m 3,1 km/h (1 Bft) NW 317 0 min 0,0 UV-I 0 W/m 2,8 C 8,4 C 4,8 km/h (1 Bft)
28.05.2022 21:40 8,3 C 6,7 C 68 % 1019,9 hPa 0,0 l/m 3,3 km/h (1 Bft) NW 317 0 min 0,0 UV-I 0 W/m 2,7 C 8,3 C 4,8 km/h (1 Bft)
28.05.2022 21:42 8,3 C 6,7 C 68 % 1019,8 hPa 0,0 l/m 0,4 km/h (0 Bft) NW 317 0 min 0,0 UV-I 0 W/m 2,7 C 8,3 C 1,6 km/h (1 Bft)
28.05.2022 21:44 8,4 C 6,1 C 68 % 1019,8 hPa 0,0 l/m 1,5 km/h (1 Bft) NW 317 0 min 0,0 UV-I 0 W/m 2,8 C 8,4 C 3,2 km/h (1 Bft)
28.05.2022 21:46 8,3 C 6,1 C 68 % 1019,9 hPa 0,0 l/m 0,3 km/h (0 Bft) NW 317 0 min 0,0 UV-I 0 W/m 2,7 C 8,3 C 1,6 km/h (1 Bft)
28.05.2022 21:48 8,3 C 6,1 C 69 % 1019,8 hPa 0,0 l/m 2,9 km/h (1 Bft) N-NW 338 0 min 0,0 UV-I 0 W/m 3,0 C 8,3 C 6,4 km/h (2 Bft)
28.05.2022 21:50 8,2 C 6,1 C 69 % 1019,9 hPa 0,0 l/m 2,0 km/h (1 Bft) N-NW 338 0 min 0,0 UV-I 0 W/m 2,9 C 8,2 C 3,2 km/h (1 Bft)
28.05.2022 21:52 8,2 C 5,6 C 69 % 1019,8 hPa 0,0 l/m 3,3 km/h (1 Bft) N-NW 338 0 min 0,0 UV-I 0 W/m 2,9 C 8,2 C 4,8 km/h (1 Bft)
28.05.2022 21:54 8,1 C 5,6 C 70 % 1019,8 hPa 0,0 l/m 4,2 km/h (1 Bft) N-NW 340 0 min 0,0 UV-I 0 W/m 3,0 C 8,1 C 6,4 km/h (2 Bft)
28.05.2022 21:56 8,0 C 5,6 C 70 % 1019,8 hPa 0,0 l/m 4,6 km/h (1 Bft) N-NW 342 0 min 0,0 UV-I 0 W/m 2,9 C 8,0 C 6,4 km/h (2 Bft)
28.05.2022 21:58 7,9 C 5,6 C 71 % 1019,9 hPa 0,0 l/m 2,7 km/h (1 Bft) N-NW 341 0 min 0,0 UV-I 0 W/m 3,0 C 7,9 C 4,8 km/h (1 Bft)
28.05.2022 22:00 7,9 C 5,6 C 71 % 1019,9 hPa 0,0 l/m 2,4 km/h (1 Bft) N-NW 341 0 min 0,0 UV-I 0 W/m 3,0 C 7,9 C 4,8 km/h (1 Bft)
28.05.2022 22:02 7,8 C 5,6 C 71 % 1019,8 hPa 0,0 l/m 4,6 km/h (1 Bft) N 349 0 min 0,0 UV-I 0 W/m 2,9 C 7,8 C 6,4 km/h (2 Bft)
28.05.2022 22:04 7,8 C 5,6 C 71 % 1019,9 hPa 0,0 l/m 4,2 km/h (1 Bft) N-NW 332 0 min 0,0 UV-I 0 W/m 2,9 C 7,8 C 8,0 km/h (2 Bft)
28.05.2022 22:06 7,8 C 5,6 C 71 % 1019,9 hPa 0,0 l/m 3,5 km/h (1 Bft) N-NW 331 0 min 0,0 UV-I 0 W/m 2,9 C 7,8 C 6,4 km/h (2 Bft)
28.05.2022 22:08 7,8 C 5,0 C 71 % 1019,8 hPa 0,0 l/m 1,9 km/h (1 Bft) N-NW 331 0 min 0,0 UV-I 0 W/m 2,9 C 7,8 C 6,4 km/h (2 Bft)
28.05.2022 22:10 7,8 C 5,0 C 71 % 1019,9 hPa 0,0 l/m 2,4 km/h (1 Bft) NW 325 0 min 0,0 UV-I 0 W/m 2,9 C 7,8 C 6,4 km/h (2 Bft)
28.05.2022 22:12 7,7 C 5,0 C 72 % 1019,9 hPa 0,0 l/m 2,6 km/h (1 Bft) NW 317 0 min 0,0 UV-I 0 W/m 3,0 C 7,7 C 6,4 km/h (2 Bft)
28.05.2022 22:14 7,7 C 5,0 C 72 % 1019,9 hPa 0,0 l/m 3,7 km/h (1 Bft) N-NW 329 0 min 0,0 UV-I 0 W/m 3,0 C 7,7 C 8,0 km/h (2 Bft)
28.05.2022 22:16 7,7 C 5,0 C 72 % 1019,8 hPa 0,0 l/m 3,5 km/h (1 Bft) N-NW 329 0 min 0,0 UV-I 0 W/m 3,0 C 7,7 C 6,4 km/h (2 Bft)
28.05.2022 22:18 7,7 C 5,0 C 72 % 1019,8 hPa 0,0 l/m 2,2 km/h (1 Bft) N-NW 338 0 min 0,0 UV-I 0 W/m 3,0 C 7,7 C 6,4 km/h (2 Bft)
28.05.2022 22:20 7,7 C 5,0 C 72 % 1019,8 hPa 0,0 l/m 3,7 km/h (1 Bft) N-NW 332 0 min 0,0 UV-I 0 W/m 3,0 C 7,7 C 6,4 km/h (2 Bft)
28.05.2022 22:22 7,6 C 5,0 C 72 % 1019,9 hPa 0,0 l/m 4,1 km/h (1 Bft) N 355 0 min 0,0 UV-I 0 W/m 2,9 C 7,6 C 6,4 km/h (2 Bft)
28.05.2022 22:24 7,6 C 5,0 C 72 % 1019,8 hPa 0,0 l/m 4,4 km/h (1 Bft) N-NW 346 0 min 0,0 UV-I 0 W/m 2,9 C 7,6 C 8,0 km/h (2 Bft)
28.05.2022 22:26 7,6 C 5,0 C 72 % 1019,8 hPa 0,0 l/m 3,9 km/h (1 Bft) N 360 0 min 0,0 UV-I 0 W/m 2,9 C 7,6 C 8,0 km/h (2 Bft)
28.05.2022 22:28 7,6 C 5,0 C 72 % 1019,8 hPa 0,0 l/m 4,0 km/h (1 Bft) N 360 0 min 0,0 UV-I 0 W/m 2,9 C 7,6 C 6,4 km/h (2 Bft)
28.05.2022 22:30 7,4 C 4,4 C 72 % 1019,8 hPa 0,0 l/m 2,2 km/h (1 Bft) N 360 0 min 0,0 UV-I 0 W/m 2,7 C 7,4 C 4,8 km/h (1 Bft)
28.05.2022 22:32 7,3 C 4,4 C 73 % 1019,7 hPa 0,0 l/m 0,7 km/h (0 Bft) N 360 0 min 0,0 UV-I 0 W/m 2,8 C 7,3 C 3,2 km/h (1 Bft)
28.05.2022 22:34 7,2 C 4,4 C 73 % 1019,8 hPa 0,0 l/m 1,3 km/h (1 Bft) N 355 0 min 0,0 UV-I 0 W/m 2,7 C 7,2 C 4,8 km/h (1 Bft)
28.05.2022 22:36 7,2 C 4,4 C 73 % 1019,8 hPa 0,0 l/m 1,1 km/h (1 Bft) N 355 0 min 0,0 UV-I 0 W/m 2,7 C 7,2 C 3,2 km/h (1 Bft)
28.05.2022 22:38 7,1 C 4,4 C 73 % 1019,8 hPa 0,0 l/m 0,3 km/h (0 Bft) N 355 0 min 0,0 UV-I 0 W/m 2,6 C 7,1 C 1,6 km/h (1 Bft)
28.05.2022 22:40 7,0 C 4,4 C 74 % 1019,8 hPa 0,0 l/m 1,0 km/h (0 Bft) N 355 0 min 0,0 UV-I 0 W/m 2,7 C 7,0 C 4,8 km/h (1 Bft)
28.05.2022 22:42 7,1 C 4,4 C 74 % 1019,9 hPa 0,0 l/m 0,5 km/h (0 Bft) N 355 0 min 0,0 UV-I 0 W/m 2,8 C 7,1 C 1,6 km/h (1 Bft)
28.05.2022 22:44 7,1 C 4,4 C 74 % 1019,9 hPa 0,0 l/m 0,0 km/h (0 Bft) N 355 0 min 0,0 UV-I 0 W/m 2,8 C 7,1 C 0,0 km/h (0 Bft)
28.05.2022 22:46 7,0 C 4,4 C 74 % 1019,8 hPa 0,0 l/m 1,3 km/h (1 Bft) N 355 0 min 0,0 UV-I 0 W/m 2,7 C 7,0 C 4,8 km/h (1 Bft)
28.05.2022 22:48 6,8 C 4,4 C 74 % 1019,8 hPa 0,0 l/m 1,4 km/h (1 Bft) N 355 0 min 0,0 UV-I 0 W/m 2,5 C 6,8 C 3,2 km/h (1 Bft)
28.05.2022 22:50 6,8 C 4,4 C 75 % 1019,8 hPa 0,0 l/m 1,9 km/h (1 Bft) N-NW 329 0 min 0,0 UV-I 0 W/m 2,7 C 6,8 C 4,8 km/h (1 Bft)
28.05.2022 22:52 6,8 C 4,4 C 75 % 1019,8 hPa 0,0 l/m 1,2 km/h (1 Bft) N-NW 330 0 min 0,0 UV-I 0 W/m 2,7 C 6,8 C 3,2 km/h (1 Bft)
28.05.2022 22:54 6,7 C 4,4 C 75 % 1019,7 hPa 0,0 l/m 0,4 km/h (0 Bft) N-NW 330 0 min 0,0 UV-I 0 W/m 2,6 C 6,7 C 1,6 km/h (1 Bft)
28.05.2022 22:56 6,6 C 4,4 C 75 % 1019,8 hPa 0,0 l/m 0,7 km/h (0 Bft) N-NW 330 0 min 0,0 UV-I 0 W/m 2,5 C 6,6 C 1,6 km/h (1 Bft)
28.05.2022 22:58 6,6 C 3,9 C 76 % 1019,8 hPa 0,0 l/m 0,2 km/h (0 Bft) N-NW 330 0 min 0,0 UV-I 0 W/m 2,7 C 6,6 C 1,6 km/h (1 Bft)
28.05.2022 23:00 6,4 C 3,9 C 76 % 1019,8 hPa 0,0 l/m 0,2 km/h (0 Bft) N-NW 330 0 min 0,0 UV-I 0 W/m 2,5 C 6,4 C 1,6 km/h (1 Bft)
28.05.2022 23:02 6,4 C 3,9 C 76 % 1019,8 hPa 0,0 l/m 0,0 km/h (0 Bft) N-NW 330 0 min 0,0 UV-I 0 W/m 2,5 C 6,4 C 0,0 km/h (0 Bft)
28.05.2022 23:04 6,4 C 3,9 C 76 % 1019,8 hPa 0,0 l/m 0,1 km/h (0 Bft) N-NW 330 0 min 0,0 UV-I 0 W/m 2,5 C 6,4 C 1,6 km/h (1 Bft)
28.05.2022 23:06 6,3 C 3,9 C 76 % 1019,8 hPa 0,0 l/m 0,8 km/h (0 Bft) N-NW 330 0 min 0,0 UV-I 0 W/m 2,4 C 6,3 C 1,6 km/h (1 Bft)
28.05.2022 23:08 6,3 C 3,9 C 77 % 1019,8 hPa 0,0 l/m 0,1 km/h (0 Bft) N-NW 330 0 min 0,0 UV-I 0 W/m 2,6 C 6,3 C 1,6 km/h (1 Bft)
28.05.2022 23:10 6,3 C 3,9 C 77 % 1019,8 hPa 0,0 l/m 0,0 km/h (0 Bft) N-NW 330 0 min 0,0 UV-I 0 W/m 2,6 C 6,3 C 0,0 km/h (0 Bft)
28.05.2022 23:12 6,4 C 3,9 C 77 % 1019,7 hPa 0,0 l/m 0,0 km/h (0 Bft) N-NW 330 0 min 0,0 UV-I 0 W/m 2,7 C 6,4 C 0,0 km/h (0 Bft)
28.05.2022 23:14 6,4 C 3,9 C 77 % 1019,7 hPa 0,0 l/m 0,0 km/h (0 Bft) N-NW 330 0 min 0,0 UV-I 0 W/m 2,7 C 6,4 C 0,0 km/h (0 Bft)
28.05.2022 23:16 6,5 C 3,9 C 76 % 1019,7 hPa 0,0 l/m 0,0 km/h (0 Bft) N-NW 330 0 min 0,0 UV-I 0 W/m 2,6 C 6,5 C 0,0 km/h (0 Bft)
28.05.2022 23:18 6,4 C 3,9 C 76 % 1019,8 hPa 0,0 l/m 0,0 km/h (0 Bft) N-NW 330 0 min 0,0 UV-I 0 W/m 2,5 C 6,4 C 0,0 km/h (0 Bft)
28.05.2022 23:20 6,3 C 3,9 C 77 % 1019,7 hPa 0,0 l/m 0,0 km/h (0 Bft) N-NW 330 0 min 0,0 UV-I 0 W/m 2,6 C 6,3 C 0,0 km/h (0 Bft)
28.05.2022 23:22 6,3 C 3,9 C 77 % 1019,8 hPa 0,0 l/m 0,0 km/h (0 Bft) N-NW 330 0 min 0,0 UV-I 0 W/m 2,6 C 6,3 C 0,0 km/h (0 Bft)
28.05.2022 23:24 6,3 C 3,9 C 77 % 1019,8 hPa 0,0 l/m 0,0 km/h (0 Bft) N-NW 330 0 min 0,0 UV-I 0 W/m 2,6 C 6,3 C 0,0 km/h (0 Bft)
28.05.2022 23:26 6,4 C 3,9 C 77 % 1019,8 hPa 0,0 l/m 0,0 km/h (0 Bft) N-NW 330 0 min 0,0 UV-I 0 W/m 2,7 C 6,4 C 0,0 km/h (0 Bft)
28.05.2022 23:28 6,6 C 3,9 C 77 % 1019,7 hPa 0,0 l/m 0,0 km/h (0 Bft) N-NW 331 0 min 0,0 UV-I 0 W/m 2,9 C 6,6 C 0,0 km/h (0 Bft)
28.05.2022 23:30 6,6 C 3,9 C 77 % 1019,7 hPa 0,0 l/m 0,0 km/h (0 Bft) N-NW 332 0 min 0,0 UV-I 0 W/m 2,9 C 6,6 C 1,6 km/h (1 Bft)
28.05.2022 23:32 6,4 C 3,9 C 77 % 1019,6 hPa 0,0 l/m 0,0 km/h (0 Bft) N-NW 332 0 min 0,0 UV-I 0 W/m 2,7 C 6,4 C 0,0 km/h (0 Bft)
28.05.2022 23:34 6,3 C 3,9 C 77 % 1019,7 hPa 0,0 l/m 0,0 km/h (0 Bft) N-NW 332 0 min 0,0 UV-I 0 W/m 2,6 C 6,3 C 1,6 km/h (1 Bft)
28.05.2022 23:36 6,2 C 3,9 C 78 % 1019,7 hPa 0,0 l/m 0,0 km/h (0 Bft) N-NW 333 0 min 0,0 UV-I 0 W/m 2,7 C 6,2 C 0,0 km/h (0 Bft)
28.05.2022 23:38 6,2 C 3,3 C 78 % 1019,7 hPa 0,0 l/m 0,0 km/h (0 Bft) N-NW 333 0 min 0,0 UV-I 0 W/m 2,7 C 6,2 C 0,0 km/h (0 Bft)
28.05.2022 23:40 6,1 C 3,3 C 78 % 1019,7 hPa 0,0 l/m 0,0 km/h (0 Bft) N-NW 333 0 min 0,0 UV-I 0 W/m 2,6 C 6,1 C 0,0 km/h (0 Bft)
28.05.2022 23:42 5,7 C 3,3 C 78 % 1019,7 hPa 0,0 l/m 0,0 km/h (0 Bft) N-NW 333 0 min 0,0 UV-I 0 W/m 2,2 C 5,7 C 0,0 km/h (0 Bft)
28.05.2022 23:44 5,3 C 2,8 C 79 % 1019,6 hPa 0,0 l/m 0,0 km/h (0 Bft) N-NW 333 0 min 0,0 UV-I 0 W/m 2,0 C 5,3 C 0,0 km/h (0 Bft)
28.05.2022 23:46 5,2 C 2,8 C 80 % 1019,7 hPa 0,0 l/m 0,0 km/h (0 Bft) N-NW 333 0 min 0,0 UV-I 0 W/m 2,0 C 5,2 C 0,0 km/h (0 Bft)
28.05.2022 23:48 5,2 C 3,3 C 81 % 1019,6 hPa 0,0 l/m 0,0 km/h (0 Bft) N-NW 333 0 min 0,0 UV-I 0 W/m 2,2 C 5,2 C 0,0 km/h (0 Bft)
28.05.2022 23:50 5,2 C 3,3 C 81 % 1019,6 hPa 0,0 l/m 0,0 km/h (0 Bft) N-NW 333 0 min 0,0 UV-I 0 W/m 2,2 C 5,2 C 0,0 km/h (0 Bft)
28.05.2022 23:52 5,2 C 3,3 C 81 % 1019,6 hPa 0,0 l/m 0,0 km/h (0 Bft) N-NW 333 0 min 0,0 UV-I 0 W/m 2,2 C 5,2 C 0,0 km/h (0 Bft)
28.05.2022 23:54 5,2 C 3,3 C 81 % 1019,6 hPa 0,0 l/m 0,0 km/h (0 Bft) N-NW 333 0 min 0,0 UV-I 0 W/m 2,2 C 5,2 C 0,0 km/h (0 Bft)
28.05.2022 23:56 5,3 C 3,3 C 81 % 1019,6 hPa 0,0 l/m 0,0 km/h (0 Bft) N-NW 333 0 min 0,0 UV-I 0 W/m 2,3 C 5,3 C 0,0 km/h (0 Bft)
28.05.2022 23:58 5,4 C 3,3 C 81 % 1019,7 hPa 0,0 l/m 0,0 km/h (0 Bft) N-NW 333 0 min 0,0 UV-I 0 W/m 2,4 C 5,4 C 0,0 km/h (0 Bft)
28.05.2022 23:59 5,4 C 3,3 C 81 % 1019,5 hPa 0,0 l/m 0,0 km/h (0 Bft) N 0 0 min 0,0 UV-I 0 W/m 2,4 C 5,4 C 0,0 km/h (0 Bft)
_ Min-Zeit 03:32 03:41 17:04 23:59 - 00:09 - - - - - 03:32 03:32 00:09
Minimum _ 2,7 C 0,6 C 50 % 1019,5 hPa - 0,0 km/h (0 Bft) - - - - - 1,1 C 2,7 C 0,0 km/h (0 Bft)
_ Max-Zeit 14:32 16:10 04:04 00:01 00:00 16:14 - - 08:26 13:30 13:30 12:54 14:30 16:14
Maximum _ 15,1 C 24,4 C 90 % 1024,3 hPa 0,0 l/m 22,0 km/h
N-NW (4 Bft)
- - 3 min 7,0 UV-I 1188 W/m 8,2 C 14,9 C 38,6 km/h
N (5 Bft)
Durchschnitt _ 9,2 C 10,0 C 71 % 1022,0 hPa #0,0 l/m 5,7 km/h (1 Bft) W-SW - #5:42 h 2,7 UV-I 346 W/m 4,0 C 8,2 C 10,7 km/h (2 Bft)